GFSMW_sfc_temp_000.txt.gz
Temp
59 60 60 60 60 59 60 61 63 63 64 64 64 62 54 54 54 55 56 56 55 55 53 51 51 51 49 47 48 47 46 46 46 44 46 46 48 49 55 51 53 52 56
56 58 58 58 59 59 59 61 63 62 63 63 57 58 56 53 52 52 53 54 54 54 54 50 49 48 48 47 46 45 44 44 44 42 40 39 43 48 53 50 52 51 51
56 55 55 56 56 57 57 60 61 61 62 61 60 55 55 52 51 50 51 52 53 52 51 50 48 47 46 44 44 43 43 41 43 44 42 37 35 43 45 48 47 51 46
56 55 55 54 55 55 57 59 61 61 61 62 59 58 54 51 50 50 49 49 51 50 50 49 48 46 45 44 44 46 42 42 40 42 47 42 41 36 36 42 48 44 49
57 56 56 56 56 55 55 57 59 59 57 56 55 53 51 50 49 48 47 48 48 49 49 48 46 45 44 43 43 42 41 41 40 39 39 39 39 39 36 35 38 45 47
54 54 54 55 53 53 53 54 56 54 55 55 53 52 50 49 48 46 45 45 45 46 47 47 45 44 43 43 42 42 41 40 40 40 39 38 37 38 37 36 37 38 43
53 53 54 54 52 51 51 53 54 51 52 52 51 51 50 49 47 46 45 45 44 44 44 44 43 43 43 43 42 41 40 40 38 38 38 38 38 39 39 38 36 36 40
55 54 54 54 53 52 51 51 52 50 50 50 49 48 48 46 46 46 45 44 44 44 44 43 43 43 43 42 41 40 39 40 37 37 37 37 38 38 38 37 35 32 35
54 53 53 53 52 51 50 51 51 49 49 48 48 46 46 46 45 44 44 43 44 48 43 43 42 41 41 41 40 38 38 38 37 36 36 35 36 37 38 38 37 34 28
52 52 53 52 52 50 48 49 50 49 47 46 47 46 45 45 44 44 43 43 43 43 42 42 41 40 40 40 39 37 38 37 37 39 35 35 36 37 37 37 36 36 33
52 52 53 53 50 48 48 47 47 47 46 45 44 44 43 43 43 43 42 42 42 42 41 41 40 39 39 39 37 37 37 37 36 35 35 34 35 36 36 36 36 35 34
53 53 52 50 49 48 47 46 46 46 45 44 44 43 43 42 42 41 41 42 41 41 40 40 40 39 39 38 36 36 36 35 34 34 33 33 38 34 34 34 34 34 34
51 51 49 49 48 47 46 45 45 44 44 43 42 41 41 41 40 40 41 41 41 40 40 40 39 39 38 37 37 36 35 35 34 33 32 32 33 32 33 33 33 34 37
52 51 49 48 47 47 45 44 43 43 43 42 41 40 40 40 40 40 40 41 40 39 39 39 38 37 37 37 37 37 35 34 35 34 33 32 33 32 33 35 36 36 33
51 50 48 47 46 45 43 43 43 42 42 41 40 39 39 40 40 40 40 40 39 39 38 37 36 36 37 42 40 39 36 34 32 32 33 34 36 40 40 38 35 35 33
51 50 50 47 45 44 43 44 41 41 41 40 39 40 40 40 40 40 39 38 38 36 36 34 34 33 39 43 45 43 38 34 32 30 32 33 37 36 41 40 41 40 35
51 49 48 47 45 44 44 41 40 40 40 39 39 40 40 40 39 39 38 36 35 34 33 33 32 32 32 43 43 43 38 33 32 31 32 33 37 36 33 36 39 39 39
49 48 46 43 43 41 41 40 40 39 39 39 39 40 40 39 38 37 35 34 33 33 32 32 31 30 35 41 42 41 34 31 30 31 31 31 31 32 36 35 33 32 31
44 44 43 43 41 41 41 40 38 38 38 38 39 40 39 38 36 34 33 33 32 31 30 31 30 29 30 39 40 39 33 32 31 31 31 32 33 37 40 33 30 30 30
43 41 41 41 41 38 40 39 37 37 37 38 38 38 37 35 34 32 32 32 30 30 31 31 30 33 29 36 39 38 34 30 30 31 32 36 36 39 37 34 30 25 27
40 41 41 39 38 38 39 36 35 35 37 37 36 36 35 34 33 31 30 29 29 29 28 28 28 28 29 29 38 39 35 33 32 31 31 32 37 36 38 37 29 29 34
39 39 38 37 36 38 38 34 34 34 35 35 35 34 33 35 35 30 29 28 27 26 25 26 26 29 28 35 37 39 39 38 33 32 32 32 36 36 35 33 35 35 33
38 38 37 35 35 35 35 32 32 34 34 33 32 31 32 31 30 28 27 27 26 25 25 29 28 29 31 28 36 38 39 39 35 33 34 35 35 34 31 32 33 33 26
37 37 35 33 32 32 32 32 33 33 32 31 30 29 28 29 28 29 29 27 25 24 29 29 28 27 29 30 32 34 32 36 33 35 27 32 32 32 30 29 29 27 27
36 36 34 32 30 31 31 32 32 32 30 29 29 27 28 26 26 27 27 29 27 30 29 28 28 27 27 31 36 36 34 34 34 33 28 27 26 24 25 26 26 27 26
35 33 31 31 30 30 30 31 31 30 29 28 28 27 27 25 27 25 26 33 35 36 36 36 34 32 35 37 37 37 36 36 35 28 25 23 22 22 23 23 24 24 25

GFSMW_sfc_temp_003.txt.gz
Temp
56 58 58 58 58 58 59 61 61 62 64 63 62 62 58 59 57 58 54 53 53 52 51 49 49 48 47 45 46 45 44 44 43 41 43 44 45 46 49 47 47 48 50
56 57 56 55 57 57 57 57 60 61 63 63 58 60 60 55 51 51 51 52 52 52 51 48 47 46 45 44 43 42 42 42 42 40 38 38 41 45 52 46 47 46 47
55 54 53 54 55 55 56 58 60 60 60 59 60 58 57 51 49 48 48 49 50 50 49 48 46 45 44 42 42 41 41 39 41 41 40 35 33 39 42 47 44 48 43
55 54 53 54 54 54 56 59 59 59 60 63 62 60 54 50 48 47 47 47 49 48 48 47 46 44 43 42 42 44 40 39 38 39 45 40 39 34 33 39 45 41 46
56 55 56 56 55 54 56 58 58 59 58 57 58 54 51 48 47 46 46 46 46 47 47 46 44 43 42 41 41 40 39 39 38 37 37 36 37 36 33 33 36 42 44
54 53 52 53 52 53 55 57 57 54 54 55 52 54 49 48 47 44 44 44 44 44 45 45 43 43 42 41 40 39 39 38 38 37 36 36 34 34 32 32 34 35 39
52 51 52 53 52 52 53 55 56 52 52 52 51 50 49 49 47 45 43 43 43 43 43 43 42 41 41 41 40 39 38 38 36 35 35 36 36 36 35 34 33 32 36
54 53 54 54 53 52 53 54 54 50 51 50 49 48 48 47 45 45 44 43 43 43 43 42 42 41 41 40 39 38 37 38 35 35 34 35 35 35 35 34 31 28 32
52 53 53 52 51 50 50 52 51 48 48 48 46 46 45 45 44 43 43 43 42 46 42 41 41 40 40 39 38 37 36 36 35 34 34 33 34 34 34 34 33 30 25
52 52 51 51 50 48 47 48 50 49 46 46 45 45 44 44 43 43 42 42 42 42 41 40 39 39 38 38 37 36 36 35 35 37 33 33 33 33 33 33 33 33 29
51 50 51 50 48 46 47 46 47 47 45 45 43 43 42 43 42 42 41 41 41 41 40 39 39 38 37 37 36 35 36 35 34 34 33 33 33 32 33 33 33 32 31
50 51 50 47 48 46 45 44 44 45 43 43 42 42 42 42 41 41 40 41 40 40 39 38 38 37 37 36 35 34 34 34 33 33 32 32 37 31 31 31 31 31 32
49 47 47 48 46 45 44 44 44 43 42 43 42 41 40 40 40 40 40 40 39 38 38 37 36 36 36 35 35 35 34 33 33 32 31 31 31 29 30 31 31 32 36
49 48 47 45 45 45 44 43 42 43 42 42 41 40 39 39 39 39 39 39 38 37 36 36 36 35 35 35 36 35 34 33 34 33 32 31 31 30 31 33 33 35 32
48 48 46 45 44 43 42 43 42 42 42 41 40 39 39 39 39 39 38 38 37 36 35 36 34 33 35 40 38 36 34 32 31 31 31 33 35 40 39 37 35 34 32
49 48 47 45 43 43 42 43 41 41 41 39 38 39 39 39 39 38 37 36 35 35 34 33 32 32 38 42 44 41 34 31 30 29 31 31 35 35 40 40 40 39 34
49 48 47 46 43 43 43 40 39 39 39 38 38 39 39 39 37 37 36 35 33 32 32 31 31 30 30 42 43 42 33 30 29 31 30 31 36 35 32 35 38 36 36
48 47 45 42 42 40 40 40 40 39 38 37 38 39 39 38 37 35 33 32 31 31 30 31 30 29 32 40 41 41 31 29 29 30 29 29 30 31 35 34 32 30 30
46 44 44 42 41 40 40 40 37 37 37 37 38 39 38 36 34 32 31 31 30 29 30 30 29 27 28 38 39 38 30 29 29 30 30 30 32 36 39 34 29 29 29
42 41 41 41 40 38 40 38 36 36 36 37 37 36 35 34 32 30 29 29 29 30 30 29 28 31 28 35 39 38 33 28 30 30 30 36 35 39 38 33 30 24 26
40 41 41 39 37 38 39 36 35 35 36 36 35 34 33 32 30 29 28 28 27 27 26 27 26 26 28 29 38 39 35 32 32 31 32 31 36 38 37 36 29 29 33
38 40 38 36 35 37 38 34 34 33 34 34 33 31 30 33 32 28 27 26 25 24 24 24 25 27 27 34 36 38 39 39 32 31 31 30 36 36 35 33 34 35 33
36 38 37 34 33 34 36 32 30 32 32 31 30 29 30 29 29 26 25 26 24 23 24 27 26 27 30 28 35 37 38 38 35 32 34 34 34 33 31 32 33 32 25
35 36 35 33 30 31 32 31 31 32 31 28 27 28 27 26 26 28 29 25 24 23 27 27 26 26 28 29 30 32 31 35 34 34 25 31 31 31 30 28 28 26 27
35 34 33 31 29 29 29 30 31 30 29 27 28 26 27 24 24 27 25 28 26 28 28 27 27 26 26 30 36 35 34 33 34 32 27 26 25 23 24 24 25 25 25
33 31 30 29 28 29 29 29 30 29 28 28 28 27 26 24 26 24 24 32 34 35 35 35 33 31 34 36 36 37 36 36 34 28 24 22 22 21 22 22 22 23 23

GFSMW_sfc_temp_006.txt.gz
Temp
60 59 58 57 57 57 59 62 61 60 62 61 60 59 56 58 58 58 57 56 52 51 49 48 47 46 45 43 44 42 41 42 42 40 42 42 44 44 45 45 45 45 46
54 56 55 54 55 56 57 59 60 60 61 64 62 60 59 55 55 54 54 51 50 50 50 47 45 45 43 42 41 40 40 40 40 38 36 36 40 43 48 43 45 43 44
55 55 54 53 54 54 55 56 59 61 62 60 57 56 56 55 53 51 47 48 49 48 47 46 45 43 42 40 40 39 39 38 39 39 38 34 32 35 40 42 41 44 40
54 55 53 52 53 54 53 55 58 61 62 61 60 57 54 55 51 46 45 46 47 47 46 45 44 43 41 40 41 42 38 38 36 38 43 38 37 32 31 37 43 39 43
56 54 55 57 53 53 53 55 57 60 61 62 62 60 56 50 45 44 44 44 44 45 45 44 43 42 41 40 39 38 37 37 36 35 35 34 34 33 31 30 33 39 41
52 54 53 53 52 52 52 55 58 59 60 60 60 59 54 48 45 42 42 43 42 43 44 44 42 41 40 39 38 38 37 36 36 35 34 34 33 32 30 28 32 32 35
49 49 50 53 52 51 53 55 59 56 57 55 52 55 51 49 46 44 43 42 42 41 41 42 41 40 40 39 39 37 37 36 34 34 34 34 34 34 33 31 30 30 34
48 50 53 54 52 52 53 56 57 54 52 51 48 47 48 48 45 43 43 43 42 41 41 41 40 40 40 39 37 36 36 36 34 33 33 33 34 34 33 31 29 27 28
48 49 51 52 52 52 53 53 52 50 50 48 47 45 45 45 44 43 42 41 41 44 40 40 39 39 38 38 36 35 35 34 34 33 33 32 33 33 32 32 30 27 23
48 49 49 49 49 50 48 49 52 50 46 45 46 44 43 43 42 42 41 41 40 40 40 39 38 38 37 36 35 34 35 34 34 36 33 32 32 32 31 30 31 30 27
49 49 49 49 47 46 48 47 47 46 44 44 44 43 42 42 41 40 40 40 39 39 39 38 38 37 36 35 34 33 35 34 33 33 32 32 32 31 30 30 30 29 29
47 48 47 47 47 46 46 45 45 44 43 43 43 42 42 41 40 39 39 39 38 38 38 37 37 36 35 34 33 34 34 32 32 32 31 31 36 31 30 30 29 29 30
45 44 46 46 45 44 44 43 44 43 42 43 42 41 40 39 38 38 38 38 38 37 37 36 35 34 34 34 34 33 33 32 32 31 30 30 29 28 29 29 29 30 33
46 46 45 44 44 44 43 42 41 42 42 42 42 39 38 38 37 38 38 37 37 36 35 35 34 34 34 34 35 34 32 31 31 31 30 30 29 29 29 30 31 34 31
46 46 44 43 42 42 41 41 41 41 42 41 40 38 37 37 37 37 36 36 36 35 34 34 33 32 34 39 36 35 33 30 29 29 30 31 33 38 38 36 33 32 31
47 47 46 44 43 42 41 42 40 40 42 40 38 37 37 37 36 36 35 36 34 33 33 31 31 30 36 40 43 41 32 30 29 27 29 29 34 33 39 39 39 38 32
47 46 45 44 42 42 42 40 39 40 39 38 37 37 37 37 35 35 35 34 32 30 30 29 29 28 29 40 42 42 33 30 28 30 30 31 35 34 31 34 38 34 37
47 46 44 41 41 41 39 39 39 38 37 36 37 37 37 35 35 34 33 31 29 29 28 28 28 27 31 39 40 40 31 29 28 30 29 28 29 30 34 34 31 29 29
46 44 44 42 41 40 40 39 37 37 37 36 36 36 36 34 33 31 30 29 28 27 27 28 27 26 27 37 39 38 30 30 29 30 29 29 30 36 39 34 29 29 29
42 41 41 41 39 38 40 38 36 36 35 35 35 35 35 33 30 29 28 27 26 28 29 29 27 30 26 34 38 37 32 28 30 30 30 36 36 38 37 33 30 24 26
39 41 41 38 37 38 39 36 35 34 34 34 34 32 31 29 28 27 26 25 25 26 24 26 25 25 27 28 37 38 34 32 32 31 31 31 36 37 37 36 28 28 32
38 39 38 36 36 38 38 34 32 32 32 32 31 29 29 32 30 26 24 24 24 23 22 23 25 27 26 33 35 37 38 38 32 31 30 31 36 36 35 32 33 34 33
37 38 36 35 34 34 36 32 29 31 30 29 28 28 28 28 28 24 24 25 23 22 23 27 25 26 30 27 34 36 37 38 34 32 34 34 34 33 30 31 32 31 24
35 36 35 33 30 31 31 30 30 30 29 27 26 27 26 25 24 28 28 25 23 22 26 26 26 25 27 28 30 30 30 34 33 34 25 31 31 30 29 27 27 26 26
34 35 33 31 28 30 29 29 30 29 28 26 27 26 26 23 23 26 24 27 24 25 27 26 26 25 25 30 35 35 33 32 33 32 27 25 24 22 23 24 24 25 25
33 31 30 29 28 28 28 28 29 28 27 27 27 27 25 23 25 23 23 31 33 35 35 35 32 31 34 35 35 36 35 35 33 27 23 21 21 20 21 21 21 22 22

GFSMW_sfc_temp_009.txt.gz
Temp
65 67 66 68 66 65 65 67 65 65 65 63 62 60 57 58 59 59 59 58 57 59 58 57 57 56 55 54 55 55 53 52 53 54 56 56 57 58 59 59 59 56 56
62 64 65 63 64 64 64 65 65 64 65 65 66 63 60 57 57 56 56 56 57 58 57 56 54 54 53 53 52 52 53 51 50 49 49 48 55 57 58 56 56 55 56
62 65 63 63 61 62 62 63 63 64 65 63 62 58 57 56 54 54 53 54 57 56 56 55 54 52 53 51 50 50 50 49 49 50 50 47 45 46 53 54 54 54 52
61 64 62 61 60 61 61 62 63 64 62 63 61 59 60 57 57 54 52 54 55 54 54 53 53 52 51 50 50 50 49 49 46 49 49 49 48 43 43 50 52 51 50
61 62 62 62 62 59 59 60 62 63 62 62 63 59 58 58 53 51 52 52 53 53 52 52 51 51 50 49 49 48 48 48 47 46 46 46 46 45 42 40 45 47 49
59 60 62 60 58 57 57 59 61 62 61 61 62 60 55 53 50 50 50 51 51 51 51 50 50 49 49 49 48 47 47 46 46 46 45 44 43 43 41 39 41 41 45
57 56 55 56 57 55 56 58 60 59 62 62 60 59 57 56 53 52 51 50 50 49 49 49 49 49 48 47 47 47 46 46 45 44 45 44 43 44 42 40 39 38 41
57 54 56 57 57 56 56 59 59 58 60 58 57 58 56 54 54 52 52 52 51 50 49 48 49 48 48 47 47 46 46 45 45 43 43 43 44 43 42 40 37 35 39
55 54 54 57 56 55 57 59 59 58 55 53 53 53 53 53 51 51 51 50 49 49 48 48 47 47 47 46 45 46 45 45 44 44 43 42 43 43 42 41 40 36 31
53 53 54 55 56 56 57 59 59 55 52 51 54 53 52 52 50 50 49 49 48 48 47 47 46 46 45 45 45 44 44 44 44 44 42 42 42 42 42 41 40 39 35
52 53 53 53 54 54 55 56 53 51 50 52 51 50 49 49 49 49 48 47 47 47 46 46 45 45 44 44 44 43 43 42 42 42 40 40 41 40 40 40 39 38 37
50 51 50 49 51 52 53 53 51 49 50 49 49 48 48 47 47 46 46 47 46 46 45 44 44 43 43 43 42 42 42 41 40 39 38 38 40 38 39 38 37 37 38
46 46 48 49 49 49 50 51 49 46 48 48 47 47 46 46 45 45 45 45 44 44 43 43 42 42 41 42 42 42 41 40 39 38 37 37 37 36 37 37 36 37 37
46 46 47 47 48 48 48 48 47 48 47 47 47 45 45 45 44 44 43 43 43 42 42 42 41 40 40 41 41 41 41 40 39 38 37 37 36 36 36 37 37 37 37
45 46 45 45 45 46 46 47 46 46 47 45 45 43 43 43 43 42 42 41 42 41 41 40 39 39 40 42 42 42 41 39 37 37 37 38 38 38 39 39 38 37 36
46 46 45 45 45 45 45 45 44 45 46 44 42 41 42 42 41 41 40 40 39 39 39 38 37 37 39 40 43 43 41 39 37 36 37 37 36 37 38 39 39 39 33
47 45 46 46 45 45 45 44 44 44 43 42 41 41 41 40 39 40 39 38 38 38 37 37 36 36 36 40 41 42 40 38 37 37 37 36 38 37 36 37 38 36 38
47 46 45 44 44 44 43 43 43 42 41 41 41 41 40 39 38 38 38 37 37 36 36 35 35 34 36 39 40 40 39 38 37 37 36 35 35 36 36 37 33 34 35
48 46 46 45 44 43 43 42 41 41 41 40 40 40 39 38 37 36 36 35 36 35 34 35 34 33 34 37 38 39 38 37 36 37 37 36 36 37 39 35 32 34 34
45 43 44 44 42 42 43 41 40 40 39 39 38 39 38 37 36 35 35 34 34 34 35 34 33 33 33 35 37 38 37 35 35 37 37 37 37 38 38 35 34 29 31
42 43 44 41 40 42 42 39 39 37 37 37 37 36 36 34 34 33 33 32 32 32 31 32 33 33 33 34 37 38 37 36 35 35 35 36 37 37 37 36 33 31 34
39 40 39 38 40 41 40 37 35 35 36 36 34 34 34 36 33 32 31 31 30 30 30 30 32 33 33 34 35 37 38 38 35 33 35 35 36 36 35 33 33 34 33
37 39 38 36 37 39 39 35 33 35 34 33 32 32 33 32 32 31 30 32 30 29 29 30 30 31 33 33 34 36 37 37 35 36 36 35 34 33 31 31 32 31 28
37 38 37 35 33 35 36 34 34 34 33 31 31 31 31 30 30 32 32 30 29 29 30 30 29 30 30 32 33 35 36 35 35 35 33 32 31 30 30 29 29 29 28
37 37 35 33 31 33 32 33 33 33 31 31 31 31 29 29 29 30 30 31 31 31 31 31 31 29 29 32 35 35 34 34 35 33 30 28 27 26 26 27 27 27 27
34 33 33 31 30 31 31 31 32 32 31 30 30 30 30 29 30 29 29 32 34 34 34 34 33 33 34 34 35 36 35 35 33 29 25 24 24 23 24 23 24 25 25

GFSMW_sfc_temp_012.txt.gz
Temp
76 77 80 81 81 82 80 80 79 79 78 72 70 64 66 65 65 64 64 63 64 66 69 68 67 67 65 63 64 63 61 60 61 63 66 66 65 65 66 67 67 64 63
74 76 77 80 79 80 79 78 78 77 76 73 72 70 67 67 66 59 59 60 61 64 67 66 65 64 63 62 61 60 60 60 59 57 58 58 62 65 64 65 63 62 63
71 74 77 78 77 77 77 76 75 75 75 72 73 70 66 62 57 55 54 57 61 64 66 64 64 62 62 59 59 59 58 57 58 57 56 55 54 54 63 61 62 61 60
71 72 74 77 77 76 76 74 73 74 73 73 69 66 65 62 60 57 54 57 61 64 64 63 63 61 61 59 58 59 57 57 54 58 57 56 54 50 50 59 59 59 58
71 71 72 74 77 76 72 71 72 72 71 69 69 69 67 65 59 54 55 57 62 63 62 62 61 60 59 58 57 56 56 56 56 54 53 54 54 53 48 46 52 56 57
70 71 73 74 75 74 70 69 70 70 68 66 70 69 66 59 53 54 54 58 61 60 60 60 60 59 58 57 56 55 54 55 54 54 52 51 49 49 48 46 48 48 52
69 70 70 70 71 68 67 68 69 67 67 66 67 65 62 58 55 57 57 60 60 59 58 59 58 58 56 55 55 54 54 54 53 52 52 52 50 50 49 46 45 45 49
68 69 70 70 69 67 67 68 69 66 66 67 64 61 58 59 60 61 63 63 61 60 59 58 58 57 56 55 55 55 54 54 53 50 50 50 50 50 49 46 43 41 45
64 66 70 68 69 68 67 68 69 68 66 66 64 61 59 60 60 60 63 62 61 58 58 57 56 56 55 54 54 55 54 52 52 51 50 49 49 49 49 48 46 42 36
65 65 67 67 68 68 68 69 70 68 66 64 63 55 59 61 59 61 60 59 58 57 56 56 55 54 54 54 53 53 52 51 52 50 49 48 49 48 48 46 46 45 41
62 63 65 67 67 67 67 68 68 65 62 60 54 55 55 57 58 60 59 58 57 56 55 55 54 53 53 53 53 52 51 49 49 48 46 45 46 45 46 45 45 43 42
60 60 62 64 64 64 65 65 64 61 59 54 54 54 55 58 59 58 57 57 55 55 54 53 53 52 51 51 51 50 49 48 46 46 44 43 45 43 44 44 42 42 43
59 58 58 59 61 63 63 61 60 55 55 54 55 57 58 58 57 55 55 55 54 53 52 52 51 50 49 49 49 49 48 48 46 45 44 43 43 42 43 42 41 42 42
57 56 56 59 61 62 60 55 52 52 52 54 58 56 56 56 55 54 53 52 52 51 51 50 49 48 48 47 47 47 47 47 46 45 44 43 42 41 41 41 41 42 40
58 54 55 57 58 55 53 49 48 50 53 55 55 54 54 53 52 51 51 50 50 49 49 48 47 47 47 47 45 47 47 46 45 45 44 43 42 40 40 40 40 39 37
57 54 54 55 52 49 49 47 48 49 52 54 51 50 50 50 49 49 49 48 47 47 47 46 46 45 46 40 42 43 45 45 43 42 43 43 41 41 41 41 40 39 34
53 52 53 52 50 49 48 46 48 51 54 50 50 49 49 47 48 48 48 46 46 46 45 45 45 44 44 40 41 41 43 43 42 41 41 41 42 41 40 39 40 39 39
53 53 50 50 51 51 50 51 53 51 50 49 48 48 47 46 47 47 45 45 46 45 45 44 43 42 42 38 40 40 43 43 42 41 41 41 40 40 38 38 35 36 38
55 54 52 52 52 51 52 51 50 50 49 47 47 47 47 45 45 44 44 44 44 44 44 43 42 41 42 38 38 39 41 41 41 42 42 41 39 39 39 36 33 36 38
50 49 50 51 51 51 52 49 48 48 46 46 46 47 47 45 44 43 43 42 44 42 43 41 42 38 40 39 37 39 40 39 40 41 41 40 39 39 38 36 36 33 34
50 51 51 50 48 51 50 47 47 45 45 46 46 45 45 44 44 43 43 42 42 41 41 40 41 40 39 39 38 38 39 39 38 38 38 39 39 38 38 37 35 33 35
45 47 46 46 48 49 48 45 42 44 44 44 43 42 43 42 42 41 41 41 41 40 39 39 40 41 40 38 37 37 38 38 37 35 38 39 38 36 36 35 34 35 34
44 46 45 45 47 48 45 40 41 44 43 42 41 40 41 40 41 41 40 40 40 38 38 37 37 38 39 39 37 37 38 39 36 38 38 37 36 35 34 34 33 33 33
42 43 43 42 42 45 43 42 43 43 42 40 40 40 39 39 40 39 39 39 38 37 36 36 35 36 36 37 38 38 38 38 37 37 36 36 34 34 33 33 34 33 33
42 42 40 39 39 41 41 42 42 43 40 39 39 39 39 39 38 38 38 38 38 37 35 35 35 34 33 35 36 36 36 36 36 35 34 33 32 31 31 31 32 32 32
40 39 39 39 39 39 39 40 42 42 40 39 39 38 38 38 37 37 38 34 34 34 34 34 34 35 35 35 35 35 36 35 34 31 30 29 29 28 28 28 28 29 28

GFSMW_sfc_temp_015.txt.gz
Temp
79 82 82 84 86 87 86 86 85 83 84 82 75 70 69 70 73 71 69 69 68 69 69 70 69 69 66 65 66 64 62 60 61 62 63 65 65 65 66 67 65 65 64
76 78 81 81 82 83 83 84 84 83 83 81 75 71 71 70 69 67 64 65 65 66 67 68 67 66 64 63 62 61 61 59 59 56 58 56 60 63 65 65 64 63 62
73 77 78 80 80 81 82 83 83 82 82 77 74 69 67 63 62 62 61 60 62 64 65 67 66 64 63 60 60 60 58 56 58 58 55 52 53 53 62 61 61 61 60
73 74 76 79 80 80 81 82 82 81 80 78 73 68 64 61 63 61 59 59 62 61 64 66 64 63 62 60 59 60 58 58 54 57 58 56 54 49 48 59 59 60 58
74 75 75 76 79 80 78 78 80 79 78 75 75 70 68 68 65 60 58 58 59 61 62 64 63 62 61 60 58 58 57 57 55 53 53 54 54 54 48 45 51 55 57
74 74 76 77 77 77 77 75 76 76 77 75 73 70 70 65 59 57 54 56 57 59 63 62 61 61 59 58 57 56 56 55 54 54 53 51 49 49 48 46 47 47 51
71 72 73 73 74 74 75 73 73 74 75 73 71 72 70 62 59 58 56 56 57 57 60 61 60 59 58 57 57 56 55 55 53 53 52 52 51 51 49 46 44 44 48
70 69 70 73 74 73 74 72 72 73 72 71 71 72 65 63 60 59 58 59 59 61 60 60 60 59 58 57 56 55 54 54 53 51 51 50 50 50 49 46 43 39 42
68 68 69 71 74 73 73 71 72 73 70 69 69 66 63 61 60 60 60 61 62 61 60 59 58 58 57 57 56 55 54 53 52 51 51 50 50 50 49 48 46 41 35
67 68 68 69 73 73 73 72 73 71 69 68 64 62 59 59 61 61 61 60 60 60 58 58 57 56 56 56 55 54 54 52 52 51 49 49 49 48 47 46 45 44 40
65 66 66 69 72 73 72 72 73 70 68 65 61 59 57 59 59 59 59 58 60 58 57 56 56 55 55 55 54 53 52 51 50 50 48 46 47 45 45 45 44 42 41
64 65 64 67 69 70 70 70 71 69 67 64 60 56 57 57 58 58 59 59 58 58 56 56 55 54 53 53 52 51 52 50 48 48 46 44 47 44 44 43 42 41 42
64 64 64 64 66 67 68 69 68 65 62 58 55 55 55 56 56 57 57 58 56 55 55 54 53 52 51 51 51 51 50 49 48 47 46 44 44 42 42 42 41 41 42
62 62 60 62 64 65 66 65 63 62 57 55 54 53 54 55 55 55 56 55 54 53 53 52 51 50 49 49 49 49 48 48 48 47 46 45 43 41 41 39 39 40 38
59 61 58 60 62 59 61 58 56 57 56 54 52 53 54 55 55 54 53 53 53 52 51 50 49 48 48 49 44 46 46 46 46 46 46 45 44 43 42 40 38 38 36
55 59 58 59 57 56 54 53 53 53 54 52 51 52 53 53 51 51 50 50 49 49 48 48 47 46 47 41 42 43 42 44 44 43 43 44 42 43 43 43 42 40 35
54 56 56 56 53 51 49 48 50 50 48 47 48 51 50 49 49 49 49 48 48 48 47 46 46 45 45 41 41 42 41 42 42 41 40 41 43 41 41 41 41 39 40
54 54 55 51 49 48 47 48 46 47 46 46 49 49 49 47 48 48 47 47 47 46 46 45 45 44 44 39 40 40 40 42 42 41 42 41 40 40 40 38 35 36 36
55 54 51 48 46 45 44 42 41 43 44 44 47 47 48 47 47 46 46 46 45 45 44 44 43 43 43 40 39 39 39 40 40 42 42 41 40 41 41 37 32 34 36
49 48 48 48 47 47 49 47 45 47 45 45 48 49 49 47 45 45 44 44 44 43 43 42 43 42 40 42 39 39 38 37 39 40 40 42 40 41 41 36 34 31 32
45 45 46 44 47 51 51 50 49 47 48 48 47 47 46 45 45 44 44 44 42 42 42 41 43 42 42 40 40 39 37 37 36 36 37 38 40 40 39 38 34 32 35
49 50 50 50 52 53 51 47 45 46 46 45 44 43 43 44 44 43 42 42 41 41 41 41 41 42 42 41 40 38 38 39 37 35 36 37 39 39 38 36 36 36 36
46 49 48 48 49 48 46 42 43 44 44 43 42 42 42 42 42 42 41 40 40 39 39 38 37 38 39 39 40 39 39 39 37 37 38 38 37 37 35 35 36 36 32
46 47 46 44 42 43 43 42 42 44 44 41 40 41 40 41 41 40 40 40 38 38 37 36 35 36 36 37 37 36 36 37 37 36 35 35 36 36 35 34 34 33 32
45 45 42 39 39 41 41 43 45 45 41 41 40 40 40 41 40 39 39 38 39 36 34 34 34 32 32 34 36 35 35 35 35 35 32 32 32 30 30 31 31 31 31
42 40 39 39 40 41 42 43 44 43 41 39 39 40 39 39 38 38 37 36 35 35 35 35 33 33 35 35 35 35 36 36 35 31 29 29 28 27 28 27 27 27 27

GFSMW_sfc_temp_018.txt.gz
Temp
71 71 73 73 72 75 74 75 73 73 74 72 70 70 68 67 67 66 67 64 64 62 62 63 59 57 55 54 55 53 51 49 49 49 50 51 53 53 53 53 54 54 54
66 69 71 70 72 71 72 72 73 74 74 74 74 70 67 67 65 64 62 60 61 61 65 62 56 55 53 53 52 51 50 49 48 45 45 44 48 51 54 51 54 51 52
64 66 67 69 68 72 69 71 72 72 75 72 68 66 62 63 60 59 54 56 58 60 64 62 56 53 51 49 50 49 49 46 47 48 45 41 40 42 48 50 50 51 47
64 66 68 67 67 71 73 70 71 72 73 70 66 63 61 57 58 57 54 54 57 58 62 61 58 52 51 50 49 51 48 47 45 46 52 46 44 39 37 45 46 47 49
63 63 64 67 69 67 68 72 70 71 72 69 66 62 58 61 58 54 54 54 59 60 61 60 57 51 50 49 49 48 47 47 45 44 43 43 43 42 38 35 39 44 46
61 61 62 65 64 65 64 65 70 68 69 69 67 63 60 60 53 53 52 56 58 58 55 59 56 50 49 48 47 47 47 46 45 45 44 42 40 39 38 35 36 37 41
58 59 59 60 62 63 62 64 68 67 67 68 67 65 63 57 52 51 53 55 56 56 56 56 53 48 48 49 48 47 46 46 44 43 43 43 42 42 41 38 35 34 38
59 58 58 60 60 62 63 63 65 64 66 67 64 64 59 55 53 53 53 55 56 56 57 55 50 49 49 48 48 46 45 45 43 43 42 42 42 42 41 38 34 33 33
58 56 56 59 60 60 62 62 65 65 66 65 65 61 57 55 54 52 56 57 57 57 56 54 49 48 48 48 47 45 45 44 43 42 41 41 41 41 40 39 37 32 30
57 57 58 59 60 61 62 63 65 66 66 66 65 60 57 55 55 57 58 58 57 56 54 51 48 48 48 48 47 45 46 44 43 43 41 40 40 39 38 37 36 35 31
54 56 57 57 59 61 61 61 62 62 65 59 59 58 55 57 59 59 58 56 56 55 53 48 47 47 47 47 46 45 46 44 43 42 41 40 39 37 36 36 35 34 33
55 56 56 56 58 58 60 60 66 63 59 58 57 56 58 58 58 56 56 56 55 54 53 48 48 47 47 46 46 44 44 43 41 41 39 38 43 36 36 34 33 33 33
55 55 54 56 58 58 63 63 61 59 58 57 55 56 56 56 55 54 55 55 53 51 47 47 47 46 46 46 45 44 43 42 41 40 38 38 37 34 33 33 32 32 37
54 54 53 55 57 57 57 57 55 56 54 52 54 54 54 54 53 53 53 52 51 50 46 45 45 45 46 46 44 43 41 40 40 40 39 38 37 35 33 34 32 35 31
51 53 54 54 54 52 52 52 52 52 50 51 52 52 53 52 52 51 50 50 49 45 45 44 44 45 45 45 40 40 39 37 37 38 39 39 40 44 42 39 32 32 31
50 53 55 52 52 51 51 51 50 50 51 52 50 50 50 50 48 49 47 47 44 42 45 44 42 42 46 43 43 41 37 36 35 34 36 37 40 39 43 43 43 41 33
50 50 54 48 49 49 50 49 50 51 49 47 46 46 45 43 44 46 44 42 42 43 42 41 41 42 39 42 42 42 36 34 33 33 34 35 41 38 35 38 41 39 40
51 52 49 47 46 48 47 46 45 44 43 42 41 41 40 40 44 44 43 43 42 41 40 40 42 40 41 41 40 41 34 33 33 33 34 33 33 34 37 34 29 30 31
48 47 46 45 45 44 44 44 42 41 41 39 39 39 41 41 42 42 40 41 40 40 41 40 39 37 35 41 40 38 32 31 31 34 34 35 33 40 42 35 26 30 31
46 44 45 43 42 41 42 41 39 38 38 38 40 42 42 43 40 40 38 40 41 39 39 37 36 39 34 42 41 38 33 28 29 31 33 39 38 40 41 35 32 28 29
42 43 43 40 41 42 41 38 38 36 37 39 43 43 42 41 41 41 41 37 35 35 34 34 35 35 35 34 41 40 33 30 30 30 30 31 39 40 40 40 31 30 34
41 42 40 40 41 40 40 41 41 42 42 42 41 41 42 43 40 35 34 34 34 33 32 32 31 32 33 40 39 40 39 38 31 30 30 30 38 38 38 36 37 37 37
45 46 43 41 42 42 41 38 38 40 41 41 39 37 36 36 36 34 33 32 33 31 30 30 29 29 32 31 39 39 38 37 34 32 35 37 37 36 34 36 37 36 27
42 41 40 39 38 39 39 40 42 42 40 36 35 34 33 34 34 33 32 30 29 28 29 28 27 27 28 28 29 31 29 34 33 34 28 34 34 35 34 31 30 27 28
41 41 38 36 37 40 39 42 42 40 36 34 33 33 33 32 30 30 29 30 29 29 26 26 27 24 24 29 34 33 31 30 34 34 27 26 25 25 26 26 26 27 27
37 37 37 38 39 40 40 39 39 37 36 32 31 30 29 30 29 28 28 37 36 36 35 35 32 29 33 35 35 35 35 36 36 29 24 22 22 23 24 24 24 25 25

GFSMW_sfc_temp_021.txt.gz
Temp
64 65 67 67 67 68 68 69 70 74 72 69 67 68 68 66 66 69 67 63 62 62 61 58 56 54 53 51 52 50 49 47 46 47 48 48 50 51 52 51 50 52 51
61 64 65 64 66 67 67 67 68 72 73 70 69 69 66 63 66 64 64 63 63 61 60 59 56 54 51 50 50 50 47 46 45 44 43 43 47 48 50 48 51 48 49
58 60 61 64 63 63 65 67 67 69 71 70 67 60 58 56 55 60 60 59 62 61 59 57 56 56 50 48 48 48 48 45 45 45 44 41 40 40 45 46 46 46 45
62 63 62 60 62 61 63 65 67 67 70 69 66 64 63 60 55 55 52 58 60 59 58 56 55 55 50 48 47 49 46 45 43 44 48 43 42 39 38 42 43 44 46
57 58 60 62 64 62 62 64 65 66 67 67 66 64 63 55 53 51 53 59 60 59 57 56 54 54 52 47 47 46 46 45 43 42 42 42 41 40 37 35 38 41 43
56 57 59 59 58 59 58 60 63 64 65 65 65 64 59 53 51 51 52 58 58 58 58 57 54 53 51 48 45 45 45 44 44 43 42 41 39 38 36 34 33 34 38
54 56 55 57 57 57 58 58 60 63 63 64 62 60 58 56 53 52 53 56 55 55 56 56 53 49 51 46 45 45 44 44 42 42 41 41 41 41 39 36 33 32 34
55 56 58 56 55 56 58 58 59 60 62 63 61 60 58 53 52 54 56 56 57 56 56 54 53 52 51 46 45 43 43 43 41 41 41 40 40 40 39 37 33 29 31
54 56 56 56 56 56 56 57 58 60 61 63 61 59 56 52 52 52 55 58 57 56 56 54 52 51 50 46 45 43 43 42 41 41 40 39 39 39 37 37 35 31 26
50 52 54 55 55 55 55 56 59 61 61 59 60 56 53 53 52 53 56 55 55 57 54 52 51 50 49 45 44 42 43 42 41 41 40 39 38 37 36 35 35 33 29
53 53 54 54 55 55 54 55 56 60 57 57 56 53 54 54 55 55 55 55 56 54 52 51 50 49 46 44 43 43 43 42 41 40 39 39 38 36 35 34 33 32 30
53 52 53 53 53 53 54 54 57 55 53 55 54 54 55 56 56 56 56 56 54 53 52 51 50 48 45 44 43 43 42 41 41 40 38 38 42 35 34 33 32 30 30
53 51 51 52 52 52 52 54 54 52 53 54 53 55 55 55 56 55 54 54 53 52 51 50 48 47 43 43 42 42 42 42 40 39 37 37 35 33 32 31 30 30 35
51 51 49 51 51 50 50 50 50 52 52 53 53 53 53 54 53 53 52 52 51 50 49 48 46 44 43 43 42 42 40 39 38 38 37 36 35 33 32 32 31 33 29
48 49 48 48 46 45 47 48 47 50 52 52 52 51 51 51 50 50 49 50 49 48 47 45 44 42 42 44 41 40 38 37 36 37 37 37 38 43 41 38 32 30 28
47 48 49 47 45 46 45 46 47 49 48 50 48 49 48 48 47 46 46 44 46 45 44 43 41 41 45 44 44 40 37 37 34 32 33 34 39 39 43 43 43 41 31
50 50 46 44 45 45 45 43 43 46 48 46 46 45 45 43 43 42 42 42 41 42 42 41 41 39 40 43 43 42 36 33 31 32 32 34 39 37 33 37 41 40 41
50 46 44 44 44 44 42 43 42 43 42 41 41 41 40 39 39 39 37 37 38 38 38 39 39 38 41 42 41 40 31 31 31 31 31 30 30 32 35 32 30 31 30
44 44 44 43 43 42 43 41 40 40 39 39 38 39 39 37 36 35 35 36 36 37 38 38 39 36 35 41 41 36 31 31 30 32 32 32 31 38 41 34 26 28 29
43 41 42 42 41 41 42 40 39 38 37 38 37 38 38 37 37 38 39 38 38 38 40 36 34 39 32 42 41 37 32 28 29 30 31 36 36 40 40 34 29 26 27
41 42 41 39 39 40 40 37 37 36 37 37 37 38 39 39 39 38 39 39 37 35 32 32 31 31 33 33 41 41 32 30 29 29 30 31 38 39 39 39 31 30 34
40 41 39 38 38 40 38 36 35 37 37 36 37 38 40 42 40 38 34 32 31 30 29 29 29 29 30 39 39 41 40 38 30 29 29 29 37 38 37 35 37 37 35
40 40 38 36 37 38 39 36 38 40 41 40 39 38 38 36 34 31 30 29 29 28 28 28 26 26 29 28 37 37 37 36 32 30 34 37 36 35 32 34 35 34 26
38 39 39 37 37 39 40 39 40 41 39 37 34 32 32 31 30 30 30 28 27 25 27 26 24 23 25 26 28 30 27 33 32 33 28 33 33 32 32 29 29 27 27
40 40 38 37 37 40 40 40 40 39 34 31 30 30 30 29 28 28 28 28 27 28 26 25 26 23 23 28 34 33 31 29 33 33 27 24 24 23 25 25 25 26 26
38 37 37 38 38 39 38 38 37 35 33 30 29 28 27 27 27 26 27 37 36 37 36 36 32 30 34 36 36 35 36 37 36 27 23 21 21 21 23 23 23 23 23

GFSMW_sfc_temp_024.txt.gz
Temp
63 62 63 63 63 64 64 64 70 74 70 67 66 65 67 67 64 71 70 68 66 65 62 58 56 53 53 51 50 48 48 45 44 46 46 47 47 48 48 48 48 49 48
57 60 62 62 63 64 63 62 65 73 70 70 70 67 67 64 66 62 65 66 65 63 62 61 55 53 51 50 49 49 46 45 43 44 42 43 46 47 47 46 48 45 46
60 60 59 61 60 60 62 63 63 69 71 70 67 60 58 57 56 58 62 62 64 63 62 60 55 52 50 49 48 47 47 44 43 43 44 40 41 39 43 44 44 44 43
56 60 58 58 59 60 60 62 63 63 70 68 66 64 64 61 57 60 54 57 62 62 61 59 57 53 50 51 47 48 46 45 43 43 46 42 42 39 40 42 42 42 44
53 55 56 59 60 58 57 58 61 62 66 66 67 64 66 65 54 51 53 54 55 59 59 58 56 53 50 51 51 45 45 44 43 42 41 40 39 38 37 36 38 40 41
54 54 56 57 56 55 55 55 57 59 61 65 65 65 64 53 51 50 51 52 53 54 56 57 56 55 52 51 49 47 45 43 42 42 41 41 39 37 36 34 33 34 38
53 54 55 56 56 56 56 57 57 58 58 62 64 64 59 56 54 52 53 52 53 52 54 56 54 52 50 47 46 47 45 42 41 41 40 40 40 40 38 35 33 32 34
51 52 54 54 55 57 57 57 57 57 57 60 62 63 60 57 56 55 54 54 54 52 53 54 53 52 51 49 48 45 45 42 40 40 40 39 39 39 38 36 33 29 30
50 51 52 53 54 54 56 55 56 56 56 60 60 57 55 53 52 53 53 53 54 54 54 54 52 51 50 49 48 46 44 41 39 39 39 39 38 37 37 36 34 31 26
51 52 51 52 53 54 54 53 54 55 56 59 59 56 53 53 52 52 53 54 55 55 54 52 51 50 49 48 47 45 44 41 39 39 38 38 37 37 36 34 34 32 29
50 52 51 51 52 54 54 54 53 54 54 56 57 51 50 50 51 52 53 53 55 54 52 52 50 49 48 47 46 45 44 41 39 39 39 39 38 36 34 33 32 31 29
53 52 55 50 50 52 53 52 52 53 53 52 51 50 50 50 50 51 52 54 53 53 52 51 50 48 47 46 45 44 44 40 39 39 38 38 41 35 33 32 31 30 29
52 52 53 51 50 50 50 51 51 52 50 50 49 49 49 50 50 51 52 54 52 51 50 50 49 48 46 45 44 44 40 39 39 39 39 39 36 34 32 30 29 29 34
48 51 51 51 50 47 45 45 45 46 47 48 49 48 50 50 52 51 53 51 51 49 48 46 45 45 44 44 43 39 37 37 38 40 38 37 35 33 31 31 30 31 28
48 46 48 49 45 43 42 43 44 46 46 47 47 48 49 50 50 49 49 49 48 47 45 42 42 41 41 42 40 38 37 38 38 38 37 37 37 41 40 36 31 30 29
49 50 48 44 42 41 42 43 42 43 46 48 47 48 47 47 45 45 43 42 41 40 40 40 41 40 44 45 44 40 38 37 35 35 33 33 37 37 42 43 43 40 30
47 49 46 41 40 42 43 40 41 43 43 42 44 44 43 41 41 41 41 39 37 38 38 38 40 40 41 44 43 41 36 34 32 31 31 33 37 34 32 36 40 39 40
42 43 42 41 40 40 39 39 39 39 40 39 39 39 40 40 40 38 36 35 36 36 35 35 36 37 40 42 42 39 32 30 29 30 29 29 30 31 35 32 29 30 31
40 40 42 42 40 39 39 38 37 37 37 38 39 40 40 38 37 35 34 35 34 33 33 35 36 37 38 42 41 35 30 30 29 30 30 31 30 37 40 33 27 29 29
41 40 41 41 40 41 41 40 39 38 36 37 38 39 39 37 36 35 35 34 33 35 38 37 37 38 32 42 41 35 31 28 29 29 30 35 35 39 40 34 29 25 26
41 41 40 39 39 40 40 37 35 33 36 38 37 37 37 36 35 35 36 36 37 36 34 31 30 31 31 31 42 41 31 30 29 29 29 30 37 38 39 38 29 29 33
40 40 37 36 38 39 39 36 34 35 36 36 35 36 38 40 39 37 36 34 31 28 27 27 26 28 28 38 38 39 38 37 30 29 29 29 36 37 37 34 36 36 34
39 39 37 35 38 37 38 34 35 38 39 39 38 38 38 37 34 30 28 27 27 26 26 28 26 26 28 27 35 36 37 36 32 30 32 36 36 34 31 33 34 33 25
38 38 36 36 37 39 40 38 37 40 39 36 34 31 31 29 29 30 29 27 26 25 27 27 25 23 25 26 27 30 28 33 32 33 27 32 32 31 30 28 28 26 26
39 39 37 36 37 38 38 39 38 36 32 30 29 29 29 27 26 28 27 28 26 28 26 25 26 23 23 28 34 33 31 29 32 31 26 24 23 22 23 24 25 25 24
38 37 37 37 37 38 37 34 34 33 31 29 29 27 26 26 26 26 26 37 37 37 36 35 31 30 34 36 36 36 36 35 35 26 22 20 19 20 21 21 21 22 22

GFSMW_sfc_temp_027.txt.gz
Temp
62 60 61 61 61 61 60 62 65 70 69 66 65 64 64 65 64 67 69 67 67 65 62 60 59 58 57 51 51 48 47 44 44 46 46 45 46 46 46 46 46 47 46
56 58 60 59 60 62 61 59 62 69 69 68 68 66 66 66 65 65 65 67 65 65 63 62 60 58 54 50 49 48 45 44 42 43 42 42 45 45 45 44 47 44 45
58 59 56 59 59 58 60 62 60 64 68 69 65 59 59 57 57 58 59 63 65 65 65 63 61 58 55 51 49 48 47 44 42 42 44 39 40 39 42 42 42 42 42
54 56 57 56 56 58 59 60 61 61 65 68 65 63 64 62 63 59 60 58 60 62 64 62 59 58 55 51 50 49 46 45 43 42 45 41 41 40 39 41 40 40 42
51 52 53 55 57 57 56 57 58 59 61 65 66 64 65 68 63 54 56 56 55 57 59 59 58 56 55 53 50 46 45 44 43 42 40 39 38 38 38 37 37 39 40
50 51 52 54 54 53 54 54 55 57 58 61 65 63 63 57 54 52 55 53 53 52 53 55 55 55 53 52 51 48 48 46 42 41 41 40 39 38 36 34 33 34 37
49 50 52 53 53 54 55 56 57 58 56 55 62 63 62 57 57 56 56 53 51 51 51 52 51 51 51 51 50 49 48 46 43 43 40 40 39 39 37 36 33 32 33
47 49 50 50 51 53 53 54 55 56 55 55 59 63 60 58 57 55 56 55 55 55 52 52 51 50 50 49 50 47 44 46 44 43 43 38 39 39 38 36 33 30 29
49 49 50 51 51 50 52 52 54 55 55 54 57 60 59 55 55 55 55 55 54 52 51 51 49 50 51 49 48 47 44 45 42 42 42 38 37 37 36 36 34 32 28
48 50 49 51 52 53 52 51 52 53 54 53 55 58 56 54 53 51 51 52 51 52 50 50 49 50 49 49 48 46 45 43 42 42 41 39 36 35 35 34 33 32 30
52 53 49 49 50 50 50 50 50 51 51 52 54 53 50 51 50 50 51 51 51 51 50 50 50 50 48 48 46 45 44 43 42 41 39 40 37 35 34 33 33 31 29
53 54 49 48 48 48 50 48 50 49 51 52 54 51 48 48 48 49 50 50 50 51 50 51 51 49 48 47 45 44 43 42 41 40 39 39 40 34 35 34 31 30 29
52 47 46 46 46 47 47 48 49 47 49 49 47 47 46 47 47 47 48 50 49 50 50 51 48 46 45 44 43 41 41 42 41 40 39 38 36 34 33 31 30 29 33
48 50 45 46 49 49 47 46 45 45 46 46 46 45 45 46 47 50 50 50 50 49 48 47 44 43 42 40 39 39 38 38 39 39 38 38 37 34 33 31 30 30 28
46 48 50 48 49 43 42 42 41 43 44 44 44 43 47 48 50 49 48 48 46 43 42 41 40 40 40 41 39 39 38 38 38 38 38 37 37 40 38 34 30 29 28
44 47 49 46 41 40 40 41 39 41 43 42 42 46 46 46 44 43 42 42 42 41 40 39 38 38 40 40 40 39 38 37 36 35 34 33 36 36 41 41 42 39 27
42 42 40 38 41 41 41 39 40 41 40 41 43 43 42 41 41 41 41 39 38 38 36 36 36 37 40 43 42 40 36 35 34 34 33 33 36 33 31 36 39 38 40
39 40 41 40 39 40 39 40 40 40 38 38 39 40 40 38 38 38 37 36 36 35 34 33 33 33 35 38 36 36 34 33 31 32 29 28 29 30 33 32 29 30 30
41 40 41 40 39 39 39 38 36 38 38 37 38 39 39 38 37 35 34 35 34 34 33 33 33 33 34 39 39 36 32 31 30 31 29 30 29 35 39 32 26 28 29
41 40 40 41 40 40 40 37 35 35 35 35 36 37 38 36 35 35 35 35 34 32 34 32 32 35 34 42 42 36 31 28 29 29 30 35 34 38 39 31 28 25 26
40 40 40 39 39 40 38 35 34 32 35 37 37 36 37 36 36 35 34 33 33 33 33 32 31 31 33 31 42 41 31 31 30 29 29 30 36 38 39 38 27 28 32
39 39 37 36 38 39 37 34 33 35 37 35 34 35 36 37 36 35 35 34 32 30 28 27 27 27 26 38 38 38 38 36 30 29 29 28 36 37 36 33 34 36 34
39 39 37 37 37 38 38 34 35 38 38 38 37 37 37 35 32 31 28 28 27 26 26 28 25 26 28 27 34 35 37 36 32 30 33 36 35 34 30 32 34 33 24
34 37 38 37 37 39 39 39 39 39 38 34 30 29 29 28 27 29 28 26 25 25 27 26 24 23 25 26 28 30 27 33 33 32 26 31 31 31 30 27 27 25 25
37 38 36 34 35 38 38 37 36 33 30 28 28 27 27 25 25 27 26 28 25 27 26 25 26 24 24 29 34 33 31 29 32 28 25 23 22 21 22 23 23 23 23
37 37 37 37 36 37 35 31 32 31 29 28 28 27 26 25 26 25 25 37 37 37 36 34 30 30 34 36 36 35 35 35 34 25 21 19 18 19 20 20 20 21 21

GFSMW_sfc_temp_030.txt.gz
Temp
60 59 59 60 60 59 59 60 63 67 67 67 66 65 65 64 63 65 65 63 64 61 59 56 57 55 55 55 55 48 47 44 44 45 44 44 44 44 44 44 44 46 45
56 56 58 58 58 60 59 58 61 66 66 67 67 66 66 65 65 65 65 64 64 61 61 61 59 59 56 55 54 48 45 43 42 43 42 42 44 43 44 43 45 43 44
54 56 54 55 56 56 58 59 58 62 65 67 66 60 59 59 59 60 62 62 63 62 62 60 60 60 59 56 54 49 48 43 41 42 44 39 40 39 41 41 41 41 40
50 51 51 52 53 55 56 58 59 59 61 64 65 64 64 62 62 63 64 60 61 61 62 60 59 61 59 56 54 52 47 45 42 41 44 40 41 40 39 40 39 39 41
47 49 50 52 53 53 52 54 57 58 59 62 65 63 63 65 61 62 62 60 59 60 60 59 58 57 56 57 55 50 50 46 43 41 39 39 38 38 38 37 37 38 39
46 49 51 53 53 51 52 51 52 55 56 56 63 63 63 63 57 55 58 57 56 56 57 57 56 55 54 52 52 51 50 49 47 42 41 41 40 38 37 35 34 35 37
46 47 49 50 52 51 51 52 53 53 54 53 58 63 63 62 58 57 58 56 53 52 53 54 53 51 51 50 49 49 48 47 46 46 44 42 41 39 38 36 33 33 33
47 48 49 49 49 51 50 51 51 52 53 53 52 58 62 60 59 57 58 57 56 56 56 53 53 52 50 49 50 49 47 47 45 45 44 42 42 41 39 37 34 30 30
48 48 49 49 49 50 51 50 51 51 51 52 51 53 57 56 56 56 57 57 56 56 51 52 52 50 50 49 50 47 46 45 43 43 43 42 41 39 40 39 36 34 29
47 48 51 49 48 49 49 48 49 50 51 50 50 52 55 58 54 52 53 53 52 51 51 50 50 49 48 48 49 47 46 45 41 42 42 41 39 39 39 37 35 34 31
47 49 50 48 48 48 47 47 48 48 49 49 49 50 52 56 52 50 49 48 49 49 49 49 49 48 48 49 48 46 45 44 43 42 41 40 40 38 35 35 33 32 31
51 49 46 45 44 46 47 47 47 47 47 48 49 50 55 49 49 51 49 48 47 48 49 48 48 48 48 48 46 45 43 41 40 39 38 38 42 38 37 35 32 31 29
49 46 46 49 46 46 45 45 45 45 46 47 47 48 50 49 48 49 50 50 50 49 49 50 49 47 46 45 44 43 42 41 39 39 38 39 39 36 35 35 32 30 33
43 43 45 47 45 44 42 42 43 45 45 46 46 46 48 48 48 49 50 49 49 49 48 47 46 45 44 42 41 39 38 37 37 37 36 37 37 36 36 35 32 31 29
41 42 42 41 41 40 40 40 40 43 45 44 44 44 46 48 48 48 48 47 46 44 44 43 42 41 41 41 38 38 37 36 35 36 36 36 38 39 38 36 32 30 28
40 42 41 39 41 41 41 41 41 41 42 41 41 44 43 44 44 43 42 42 42 41 41 41 40 40 40 42 41 38 35 35 33 31 31 33 36 37 40 41 42 37 27
39 38 40 40 39 39 40 39 39 41 40 40 39 41 40 40 40 41 40 39 38 38 38 39 38 38 39 41 39 37 33 31 30 31 33 35 36 33 31 35 39 38 40
40 39 38 39 39 40 39 39 40 39 39 39 39 40 39 39 39 38 37 36 36 36 35 34 35 35 38 39 38 35 31 30 30 32 31 30 31 32 32 31 29 30 30
40 40 40 40 40 39 38 37 37 37 36 37 38 39 39 37 36 35 34 34 33 33 33 34 33 33 33 37 36 33 33 33 32 32 31 31 30 35 38 32 26 28 29
40 39 40 40 39 38 37 36 36 36 35 35 35 36 36 35 33 33 32 33 33 32 33 32 33 36 33 37 36 35 33 30 30 29 31 35 34 38 39 32 29 25 25
39 40 39 38 38 38 37 35 35 32 35 37 36 36 36 35 34 33 34 33 32 31 30 30 31 31 33 35 42 40 31 30 29 29 29 30 36 38 38 38 27 28 31
37 39 37 36 38 39 38 35 34 35 35 35 34 33 34 35 33 31 30 30 31 31 29 28 27 27 27 37 39 39 37 35 30 29 29 28 35 36 36 33 34 35 32
38 39 37 37 38 38 38 34 36 38 38 37 36 35 34 32 31 29 27 27 26 26 26 28 24 25 28 26 36 36 36 35 31 30 33 35 34 33 29 31 33 31 22
34 37 38 37 36 38 39 38 38 38 36 32 28 27 27 26 26 28 28 26 25 25 27 26 24 22 25 25 27 30 27 32 32 32 25 31 30 29 28 26 26 24 23
34 35 33 35 36 37 36 34 32 31 28 27 27 26 26 24 25 27 26 28 24 26 25 24 25 23 23 29 33 32 31 28 32 27 24 22 21 19 21 22 22 22 22
37 37 35 34 35 36 34 30 30 29 28 27 27 26 25 25 26 25 25 38 37 37 36 34 30 30 34 36 35 35 35 34 34 24 20 17 17 17 19 19 19 19 20

GFSMW_sfc_temp_033.txt.gz
Temp
63 64 65 66 65 65 65 66 67 70 71 69 67 66 66 66 66 68 70 69 70 68 67 66 66 64 63 62 62 60 56 56 58 57 56 57 57 57 58 59 60 58 58
59 60 61 62 63 63 64 64 65 68 70 71 72 70 69 68 69 67 68 69 69 68 67 66 64 63 62 61 60 55 51 56 56 58 56 54 55 56 56 57 57 57 57
55 57 57 58 58 59 61 63 64 65 68 71 70 67 66 64 65 64 66 68 69 67 68 66 65 62 63 60 58 56 54 54 53 55 59 51 54 53 54 53 55 55 55
54 55 55 58 58 58 57 59 62 64 65 69 69 68 67 65 67 67 67 67 67 66 67 66 64 62 62 62 61 60 58 56 52 50 51 52 55 54 51 52 52 53 53
51 53 55 56 58 57 56 57 58 61 63 65 68 67 67 69 69 67 66 66 65 66 65 65 64 61 61 61 59 57 57 56 53 53 48 49 50 52 54 50 49 49 52
51 53 55 56 58 57 56 57 59 59 60 61 63 66 66 67 66 64 64 64 63 63 64 63 63 62 60 57 56 56 56 54 54 50 50 47 51 50 50 49 47 51 49
51 53 54 55 56 55 56 57 58 59 60 60 59 61 65 66 65 65 64 63 61 60 61 62 61 61 60 59 56 55 54 54 52 51 48 50 48 48 46 48 45 47 48
52 53 53 54 54 54 55 56 57 57 58 59 59 59 61 64 65 64 64 64 63 62 64 61 61 60 59 57 56 54 54 53 51 50 48 47 46 45 46 46 44 43 45
52 52 53 54 54 54 55 53 54 56 57 57 58 58 59 60 62 62 63 64 64 62 62 60 59 58 57 56 54 53 52 51 49 47 46 47 44 44 43 43 45 45 42
51 52 53 53 53 53 53 54 54 54 54 55 55 57 57 58 60 59 60 61 61 60 57 57 57 56 55 54 53 50 49 48 47 45 43 42 42 42 41 42 40 41 41
51 51 51 51 52 52 53 53 53 52 53 54 54 54 55 56 58 56 56 57 57 56 55 55 54 53 52 52 51 50 47 44 45 44 43 42 41 40 39 39 37 38 39
50 48 48 49 51 49 49 49 50 50 51 52 53 53 54 56 53 53 53 53 52 52 52 51 51 51 51 50 49 47 46 44 42 41 39 38 40 37 37 37 36 36 36
46 46 46 46 45 45 45 45 45 46 48 49 51 52 52 52 51 51 51 52 51 51 51 51 49 49 49 48 48 45 44 42 41 39 38 38 37 36 35 34 34 33 34
43 44 44 42 43 43 44 43 43 44 45 48 49 49 50 51 51 51 50 50 50 50 51 51 49 47 46 45 44 42 41 39 38 37 37 36 36 36 35 33 32 33 32
43 41 41 42 42 41 42 43 43 44 45 45 45 45 48 49 48 46 46 47 47 46 46 45 43 42 42 42 40 39 38 36 35 35 35 34 34 35 34 35 33 34 33
40 40 40 41 40 40 40 41 41 41 42 42 42 43 44 44 43 43 42 42 42 42 42 41 41 40 41 43 42 38 36 35 33 32 32 32 33 34 37 38 39 37 33
40 40 39 40 40 39 40 39 40 41 41 40 41 42 42 40 40 41 40 39 39 39 39 39 40 39 40 42 41 38 34 32 32 31 31 32 34 33 32 33 36 38 40
39 39 39 40 40 40 39 38 39 40 39 39 39 40 39 38 38 38 37 37 37 36 36 36 36 37 39 41 39 37 32 31 31 31 31 31 31 32 35 37 35 36 36
39 40 41 40 39 38 38 38 37 37 37 36 37 38 38 36 36 34 34 35 34 34 33 33 33 33 34 38 37 33 32 31 30 31 34 34 35 36 38 37 33 34 35
40 40 40 41 38 37 38 36 36 36 35 35 36 36 36 35 33 33 33 34 34 32 34 32 32 35 34 37 35 33 36 33 34 35 35 35 37 37 38 37 33 31 32
39 41 40 38 38 39 38 36 35 33 36 36 36 35 35 34 33 33 33 32 32 32 31 30 31 32 34 36 40 38 35 35 34 33 34 35 36 37 38 37 33 32 36
38 38 38 38 39 40 37 35 34 36 36 36 35 34 34 35 34 33 31 31 31 32 31 31 31 32 34 39 40 39 37 36 34 33 35 34 35 36 35 34 34 35 34
39 40 36 36 38 39 38 35 36 38 38 36 34 34 34 33 34 33 32 32 32 31 31 31 30 30 32 33 37 37 37 36 35 35 35 34 33 32 30 31 32 31 29
36 39 38 35 35 38 39 39 39 38 35 32 32 32 32 31 31 33 33 31 30 30 31 30 29 28 30 31 32 33 33 34 34 33 32 32 30 29 29 28 28 28 28
36 36 36 35 36 37 35 35 34 34 32 31 31 31 30 30 30 31 32 32 30 32 30 29 30 29 29 32 35 35 34 33 34 30 29 27 26 25 25 26 26 27 27
37 36 36 35 36 36 34 32 33 33 32 31 31 31 30 30 31 31 31 38 38 37 36 34 33 33 35 36 35 35 34 33 33 28 25 24 23 23 23 23 24 24 24

GFSMW_sfc_temp_036.txt.gz
Temp
75 73 74 75 75 77 77 78 79 80 81 80 70 68 68 69 69 71 78 79 79 78 77 77 77 77 74 73 72 71 67 66 69 66 65 65 66 67 68 69 69 67 67
69 69 70 70 72 73 74 75 77 77 79 80 80 78 74 72 72 70 70 77 77 77 76 75 75 75 73 72 70 68 65 65 64 65 65 60 61 64 66 67 67 67 66
66 67 69 70 70 69 69 71 74 75 76 78 79 78 76 74 73 70 69 70 76 76 76 74 74 74 73 71 69 67 65 61 61 67 66 59 59 60 62 62 63 64 63
65 66 66 68 68 68 67 68 69 71 74 75 75 75 73 71 74 75 74 70 71 75 75 74 73 72 70 70 68 66 66 66 59 60 63 61 64 59 54 59 60 62 62
62 63 64 65 68 67 65 67 69 70 71 73 73 74 74 76 77 76 74 72 69 70 72 72 72 70 69 70 68 66 66 67 64 60 56 57 55 58 60 57 54 58 60
62 64 65 66 67 68 67 67 69 70 70 70 72 72 72 74 74 74 72 73 71 67 69 70 70 70 68 68 67 66 63 64 65 59 54 54 55 54 55 57 58 56 57
63 63 63 64 64 64 65 66 68 68 70 70 70 70 71 73 73 73 73 72 70 66 65 67 68 69 69 67 67 63 60 57 56 57 57 57 57 57 56 60 53 54 53
63 62 62 63 63 63 64 65 65 65 67 68 68 70 70 70 71 71 71 73 74 72 70 67 67 68 69 68 66 63 60 60 58 58 56 54 54 54 48 52 44 44 47
61 61 61 62 62 62 63 62 63 64 65 65 66 67 69 68 68 70 70 69 72 72 72 69 67 66 66 66 64 62 60 59 59 57 54 51 48 50 48 48 51 46 41
60 60 60 59 60 61 62 63 63 62 63 63 65 65 65 66 66 68 66 64 69 69 67 67 66 64 62 60 59 58 59 57 53 53 49 46 46 45 45 42 42 43 42
58 57 57 58 59 59 59 59 59 58 59 61 63 63 64 65 63 61 59 59 61 62 62 63 63 62 59 57 55 54 53 52 48 45 43 40 41 41 40 40 39 37 37
56 55 55 55 55 54 55 55 56 55 56 58 60 61 63 63 60 57 58 59 58 59 58 58 57 58 57 56 53 52 51 49 47 46 45 45 42 38 37 37 36 35 35
54 54 54 52 49 47 49 52 53 53 55 56 58 59 60 60 60 57 58 58 56 55 54 54 53 54 54 53 52 50 48 45 44 41 42 39 37 35 35 34 33 33 34
51 51 51 51 48 47 48 50 51 52 52 53 54 54 55 56 57 57 56 55 55 54 53 53 52 51 51 50 47 45 42 41 40 39 39 39 37 35 34 34 33 33 33
49 48 48 48 45 46 47 47 48 49 49 49 49 50 52 53 53 52 51 51 50 50 49 46 45 45 45 44 42 41 39 38 37 37 36 35 36 38 35 35 33 33 32
47 47 46 45 44 44 43 43 45 46 49 48 45 47 49 49 46 48 47 47 46 46 43 42 42 42 42 43 42 40 38 37 36 33 33 33 34 35 37 37 37 37 35
45 45 45 43 42 41 41 39 43 46 45 44 43 44 45 44 42 42 42 40 40 40 40 40 41 40 41 43 41 39 35 33 32 32 32 33 34 33 34 35 36 37 39
45 45 43 42 41 41 40 40 41 42 41 41 41 42 42 40 39 38 37 36 36 36 36 36 38 38 40 42 40 37 33 32 32 32 34 34 33 34 34 36 36 37 39
46 44 43 42 41 40 39 39 38 37 37 37 38 40 39 37 36 35 35 35 34 34 33 34 34 33 34 38 36 33 32 32 32 35 36 37 37 37 38 38 36 38 39
46 44 43 42 40 39 41 38 36 37 35 36 36 37 37 35 34 34 33 34 34 33 34 32 32 35 33 35 36 38 36 35 37 38 38 36 38 38 39 39 38 35 36
46 44 44 42 41 41 40 36 36 34 36 37 37 37 37 36 35 34 34 34 34 33 32 32 33 35 37 38 39 39 40 39 38 37 38 39 36 37 38 37 37 35 38
44 44 44 42 42 42 41 37 36 37 38 38 37 37 38 38 38 36 34 35 37 37 37 37 37 39 41 41 40 39 38 37 37 36 38 38 36 36 35 35 35 35 35
45 46 45 42 41 41 42 38 38 39 40 40 39 41 42 42 43 43 41 41 41 40 39 37 37 37 37 38 38 38 37 37 38 38 36 35 34 33 33 33 33 32 34
45 45 44 44 42 43 44 43 43 44 44 42 41 42 41 41 42 41 41 41 40 39 38 37 36 36 36 37 38 38 38 36 37 35 36 33 31 30 31 31 33 33 33
43 45 45 43 44 44 44 44 44 44 42 41 41 40 40 41 40 40 41 40 39 39 38 36 37 36 36 36 37 37 37 38 36 34 34 33 32 31 31 32 32 32 32
42 40 43 42 42 44 42 42 42 43 42 40 40 40 39 39 39 39 39 38 38 37 36 35 36 37 36 36 36 35 34 33 34 32 31 30 30 29 29 29 29 30 29

GFSMW_sfc_temp_039.txt.gz
Temp
80 79 78 79 79 80 81 82 82 84 84 83 82 75 71 71 71 72 79 83 82 82 79 78 79 79 78 75 75 73 70 69 71 66 65 66 67 68 68 69 68 67 66
75 75 74 74 75 76 78 79 80 81 82 82 83 82 77 73 72 71 72 75 80 80 79 77 77 77 76 75 73 71 68 67 68 63 63 58 61 63 66 67 67 66 65
70 70 72 72 72 71 71 73 75 77 79 80 81 80 81 78 74 70 70 72 75 79 78 77 76 76 75 73 72 70 68 63 65 67 64 59 57 58 62 62 64 64 63
69 69 69 69 70 70 70 71 72 73 75 77 76 76 76 74 76 77 77 76 76 75 77 74 74 73 74 72 72 71 67 65 59 61 66 65 63 56 51 57 59 62 62
66 67 67 68 71 70 68 70 72 73 74 73 74 73 73 76 77 77 77 78 77 73 73 74 73 69 71 71 70 69 65 65 62 59 58 60 58 59 56 50 52 58 59
66 67 68 69 70 69 69 69 70 72 73 72 72 71 71 74 75 75 75 77 77 74 71 70 70 70 68 68 68 67 65 63 64 60 59 57 54 53 52 53 52 51 54
66 66 66 66 67 66 67 68 69 69 71 72 72 72 71 72 72 74 75 75 75 74 68 67 67 67 68 68 67 66 64 62 61 62 59 58 58 55 56 54 51 52 52
66 64 65 65 65 65 65 66 66 66 68 69 69 70 71 71 71 72 73 74 75 76 76 69 66 66 66 66 66 64 64 63 60 60 57 55 55 50 51 52 48 45 46
64 63 64 64 64 64 64 65 65 65 66 66 67 68 69 69 68 70 71 73 74 73 74 74 69 65 65 65 63 62 61 59 58 57 56 55 54 52 48 49 48 47 38
62 62 62 62 62 63 63 64 64 63 63 64 65 66 67 68 68 68 68 68 68 69 70 67 65 63 63 62 61 59 58 57 56 55 54 52 47 45 43 42 43 43 41
60 60 60 61 61 61 60 60 61 59 60 61 63 64 65 66 66 64 63 61 61 61 61 61 60 61 60 59 56 55 55 54 53 50 48 44 43 40 39 38 38 36 37
59 59 58 59 57 55 55 57 58 57 58 59 61 62 63 64 64 62 60 59 59 59 58 58 57 57 57 56 54 52 50 50 47 46 43 41 42 38 38 38 36 36 36
57 57 57 56 55 51 52 53 55 55 56 56 57 59 59 60 60 59 60 60 59 58 57 56 54 53 53 52 52 50 48 47 45 44 43 40 39 37 36 36 34 34 35
55 54 54 55 52 50 49 49 50 52 52 53 54 54 55 55 56 56 56 56 56 55 54 53 51 51 49 48 46 44 43 41 41 40 40 39 38 36 35 34 33 33 33
53 52 51 52 50 48 46 45 46 49 51 51 50 51 53 52 52 52 51 51 51 50 51 49 47 46 45 45 42 41 40 38 37 37 37 37 38 39 37 35 33 33 33
51 50 50 48 45 44 43 43 44 46 48 48 47 49 49 48 47 47 47 46 45 46 46 45 45 44 43 44 43 41 38 38 36 34 34 35 37 38 39 39 38 36 34
49 49 47 44 43 42 42 41 43 45 45 45 44 45 45 43 42 42 40 40 40 40 40 41 42 41 42 43 42 40 36 34 33 33 32 33 35 34 33 36 36 38 39
49 48 46 43 43 43 41 41 41 42 42 43 43 44 43 41 40 39 38 37 36 36 36 35 35 37 39 41 40 37 32 32 32 32 32 32 32 33 34 35 35 36 37
50 47 45 44 42 41 41 40 38 38 37 37 38 40 40 38 37 36 35 35 34 34 33 34 33 33 34 38 37 34 32 31 32 33 34 36 37 37 38 37 34 35 36
49 46 46 43 42 42 42 38 37 37 36 37 37 37 37 36 34 34 33 35 35 33 34 32 33 35 33 37 37 36 36 35 37 38 38 37 38 38 39 37 37 34 34
48 47 47 43 42 43 41 37 37 34 37 38 38 38 39 38 36 35 35 34 34 33 33 33 34 35 37 39 40 40 39 38 37 36 36 37 37 37 38 37 35 34 35
47 48 46 44 43 43 42 38 36 39 40 40 40 40 40 40 39 37 35 36 39 39 39 39 38 40 40 41 40 39 39 38 36 35 36 36 36 36 36 35 36 36 35
49 49 47 45 45 45 45 41 40 43 43 42 43 44 44 45 45 44 43 42 43 41 39 38 37 37 38 38 38 38 38 38 36 36 35 35 35 35 34 36 34 34 31
49 49 48 46 44 46 46 46 44 46 46 44 43 44 43 43 43 42 42 41 41 39 38 37 36 36 36 36 37 37 37 38 37 36 35 34 33 34 32 32 33 31 31
49 49 48 48 46 47 47 47 47 47 44 43 42 42 42 43 41 40 41 39 38 38 38 36 36 35 35 35 36 35 35 35 35 33 33 32 31 30 31 31 31 31 31
47 46 47 46 46 47 47 46 47 46 44 42 41 41 41 41 40 40 38 38 38 37 37 36 35 36 36 37 36 36 35 35 34 31 30 30 29 28 29 29 29 29 29

GFSMW_sfc_temp_042.txt.gz
Temp
69 67 69 69 68 68 68 69 70 71 70 69 69 67 66 66 67 70 71 70 76 73 70 71 70 70 69 69 69 64 61 58 59 56 54 55 57 57 57 58 57 58 58
64 64 66 64 65 64 63 65 67 69 70 68 69 69 68 68 69 68 71 71 69 71 70 69 68 69 68 67 67 65 58 57 57 53 51 48 51 54 56 56 58 56 56
61 62 62 61 61 60 60 63 64 65 66 67 67 67 66 66 64 64 66 69 71 69 69 72 67 66 66 66 66 64 62 58 55 58 53 48 47 48 52 55 55 56 53
60 62 62 60 59 60 60 62 64 65 66 65 63 63 61 61 65 67 68 67 69 69 70 69 70 69 64 64 64 63 62 57 57 53 60 55 53 48 46 52 54 55 56
58 60 60 61 61 61 60 61 62 64 64 63 62 60 60 62 63 65 66 66 67 68 68 69 68 68 67 65 61 61 61 61 57 56 50 51 50 50 47 43 48 52 54
58 59 61 60 60 59 59 59 60 62 63 62 62 60 58 59 59 61 63 65 66 64 65 67 68 67 65 66 66 62 61 59 58 55 52 51 50 47 46 45 44 47 49
57 57 56 57 57 56 57 59 59 59 60 60 60 60 59 59 58 59 60 66 67 63 63 63 64 66 66 64 64 61 61 59 58 56 55 52 53 51 51 50 45 44 46
56 57 56 55 55 57 57 57 57 57 58 58 58 59 59 58 58 59 59 59 62 65 67 62 61 61 62 64 63 62 62 60 58 58 54 52 50 51 49 51 47 42 41
55 55 55 55 54 55 55 55 55 56 56 56 56 57 57 57 57 58 58 58 59 63 62 60 61 60 62 62 61 61 60 60 58 58 55 52 51 50 50 49 49 48 38
54 54 54 54 54 54 53 54 54 53 54 54 54 56 56 57 57 56 54 54 55 56 56 56 56 58 60 60 59 58 58 56 54 53 52 51 47 46 46 45 45 45 43
53 52 52 53 53 51 51 51 51 51 51 52 52 52 54 56 56 53 53 54 57 58 57 55 54 57 57 57 55 54 54 53 51 50 49 44 44 42 41 40 40 39 40
53 53 52 52 49 47 47 48 49 49 49 50 50 51 52 53 56 52 52 54 57 56 54 54 54 54 54 53 52 51 50 50 47 45 43 42 42 40 40 38 37 37 38
52 51 50 49 46 45 45 46 46 46 47 48 48 48 49 48 50 48 49 50 50 49 48 48 49 49 49 49 47 46 45 45 45 43 42 41 40 37 37 37 36 36 36
51 49 47 47 45 45 46 45 44 45 46 46 46 45 46 45 46 47 47 47 47 46 45 44 43 43 43 43 42 43 41 40 40 40 40 39 38 37 37 36 34 34 34
49 48 46 43 43 44 44 44 45 46 47 44 44 44 45 44 44 44 43 44 45 44 43 42 41 42 43 43 40 40 39 38 37 37 38 37 39 40 38 36 34 34 33
48 47 46 43 43 42 42 43 43 44 46 45 44 46 44 45 43 43 43 40 41 42 43 43 43 42 43 44 43 38 36 36 35 33 33 34 37 40 41 39 38 37 34
47 45 41 40 42 41 41 40 41 44 44 43 43 44 43 41 41 40 39 38 37 37 37 39 40 40 41 43 41 39 34 33 33 32 32 33 35 34 33 38 38 38 39
46 43 40 39 41 41 40 40 40 40 40 40 41 41 41 39 38 37 36 36 36 35 35 34 35 37 39 41 40 38 33 32 32 32 32 32 32 32 33 33 33 34 34
43 41 41 40 41 41 40 39 38 37 37 37 37 38 38 36 36 35 34 35 34 33 33 33 33 33 35 39 38 33 29 30 31 32 33 33 33 36 38 34 30 31 31
43 41 40 42 41 41 39 38 37 37 36 37 37 37 36 36 34 34 33 34 34 32 33 32 33 36 29 40 40 36 32 29 31 33 34 39 36 39 39 33 30 28 28
43 42 41 41 41 41 39 37 36 34 37 39 39 38 38 36 35 34 35 33 33 31 24 29 31 33 31 34 41 41 32 31 31 31 31 31 38 38 38 37 28 30 31
43 43 41 41 42 42 40 37 36 38 39 40 39 39 39 39 37 33 32 28 28 29 29 30 29 30 31 39 39 39 38 37 30 30 29 30 36 36 36 34 36 36 34
43 44 44 42 42 42 42 38 38 40 40 38 36 36 37 36 36 34 33 31 32 31 30 30 27 27 30 29 38 38 38 37 31 30 34 35 35 35 31 34 35 34 25
44 44 42 39 38 39 40 38 38 39 38 36 35 35 35 34 34 33 32 30 30 29 30 29 28 26 28 28 28 30 28 34 32 32 27 33 34 35 33 31 30 27 26
45 45 43 41 39 40 40 39 39 39 37 35 34 34 34 33 31 30 30 29 29 31 28 27 28 26 25 30 34 33 30 28 32 31 27 26 26 24 26 26 26 26 26
44 45 44 44 44 43 43 40 40 39 36 33 32 31 31 31 30 29 28 38 37 37 37 37 32 30 36 37 36 36 36 35 35 27 24 22 21 21 24 24 24 24 28

GFSMW_sfc_temp_045.txt.gz
Temp
66 64 63 63 65 64 64 63 65 66 67 66 65 65 66 65 64 66 68 66 67 68 68 69 66 67 66 66 66 63 60 57 56 55 52 52 54 55 55 56 55 56 57
59 61 61 61 60 59 59 60 61 62 63 63 64 64 65 65 68 67 67 69 67 66 66 69 66 64 66 65 64 62 56 57 56 52 49 48 51 53 55 54 56 55 56
59 56 57 58 58 58 58 60 60 61 62 62 62 61 61 63 63 63 63 65 66 67 66 65 64 63 62 64 65 63 60 58 53 54 52 45 46 47 50 54 53 54 53
57 58 58 58 57 57 58 59 60 60 63 62 60 57 57 57 59 62 64 65 66 67 67 66 65 64 65 64 61 63 62 57 54 51 58 52 51 47 46 48 50 52 54
55 56 58 61 59 59 58 58 59 60 60 60 60 56 55 56 57 58 60 63 65 66 66 66 65 62 63 64 63 61 58 58 57 56 50 48 49 48 45 44 45 49 52
54 55 58 59 57 57 57 57 58 59 59 58 57 56 55 54 54 55 55 58 60 62 64 66 65 64 62 63 62 62 60 60 58 54 51 50 50 51 45 45 45 47 49
53 53 53 54 55 55 56 58 56 56 56 56 57 56 54 54 53 54 54 55 57 59 61 62 62 61 62 62 61 61 61 60 58 56 55 55 54 52 51 50 47 46 47
51 52 53 52 52 53 53 53 53 53 54 53 53 54 54 54 54 54 54 54 54 56 57 58 61 60 60 61 62 59 59 57 57 57 55 55 55 52 52 51 48 42 42
52 52 52 51 51 51 51 51 51 51 52 52 51 52 52 53 53 52 52 52 52 57 54 55 56 59 60 58 59 60 59 58 56 56 56 54 53 52 50 50 50 50 45
51 51 50 50 49 49 48 49 50 49 49 49 49 51 50 52 52 51 51 51 52 53 52 52 52 54 55 56 57 57 56 56 55 54 54 51 49 49 48 47 47 47 46
49 49 49 48 47 46 46 46 47 47 46 47 48 47 49 50 53 50 49 50 52 51 50 50 50 50 51 52 52 52 53 53 51 50 51 47 46 43 42 42 42 43 43
50 50 49 46 44 44 44 43 44 44 45 46 46 46 47 48 52 50 46 47 47 47 46 47 48 49 50 50 50 49 49 48 46 46 44 42 43 41 40 40 39 39 39
50 48 47 44 43 42 42 42 42 43 44 45 45 45 44 44 43 44 45 45 44 43 43 43 42 43 45 46 46 46 45 44 44 43 42 41 40 38 38 38 37 37 38
49 47 44 42 41 41 41 43 45 44 43 44 43 42 41 41 41 42 42 43 43 42 41 41 41 41 41 40 40 40 40 40 40 40 40 39 39 38 37 36 35 34 35
47 46 43 40 39 39 42 44 44 45 46 43 43 44 43 41 41 40 40 40 41 43 44 42 43 43 43 41 36 36 36 36 37 37 38 38 40 41 39 36 34 34 34
46 45 42 41 39 40 41 42 42 44 45 44 43 45 43 42 41 41 41 41 41 40 40 40 41 39 42 43 41 37 36 35 35 34 34 35 36 40 41 40 39 37 34
45 43 40 39 40 39 41 39 41 42 42 42 42 42 41 40 39 39 38 37 37 37 37 38 39 39 41 42 41 38 34 33 32 33 33 33 34 34 33 37 38 38 39
44 41 38 38 38 41 40 40 40 40 40 39 40 40 39 38 38 37 36 36 36 35 35 35 36 37 40 41 40 38 29 30 31 31 29 31 31 33 33 32 32 33 33
42 40 38 37 40 40 40 39 38 38 38 37 37 38 37 36 36 35 35 35 33 33 33 33 34 34 35 40 39 31 25 26 26 28 30 31 31 37 39 33 30 31 31
41 38 37 38 40 38 40 38 37 37 36 36 36 37 37 36 34 34 33 34 34 32 33 32 27 35 24 42 41 33 29 27 28 29 31 39 35 39 39 29 27 26 26
40 40 38 37 38 37 39 36 36 34 38 39 38 37 37 36 35 34 34 33 26 23 27 30 31 28 30 33 41 40 30 29 29 29 29 30 38 38 37 37 27 29 30
41 40 38 40 40 40 39 37 36 38 39 39 39 38 36 36 35 33 31 26 26 27 27 26 26 28 29 38 39 39 39 36 29 29 28 29 36 36 36 34 36 36 33
41 41 39 40 41 41 40 37 38 40 40 36 34 34 34 34 33 31 30 29 29 28 28 28 26 26 29 28 38 39 39 37 31 29 33 36 36 35 32 34 35 34 25
42 42 40 39 40 42 42 40 39 37 36 33 32 32 32 31 31 31 31 29 28 27 28 28 26 25 26 26 27 29 27 33 32 32 26 32 34 35 33 30 29 27 25
44 44 42 41 40 39 38 37 37 36 34 33 32 31 32 30 28 29 29 29 27 29 27 26 27 25 25 29 34 33 30 28 32 30 26 25 25 23 25 25 25 25 25
44 43 44 43 42 42 40 38 39 36 33 32 31 30 29 29 28 27 27 38 37 38 38 37 32 30 35 37 36 36 36 36 36 27 24 21 20 20 23 23 23 23 24

GFSMW_sfc_temp_048.txt.gz
Temp
59 60 60 60 60 60 60 61 63 62 64 64 64 64 65 65 64 65 67 66 67 67 65 64 63 63 64 65 64 63 60 57 55 58 57 55 54 53 54 54 56 56 57
57 58 57 57 58 58 59 59 60 61 62 62 61 63 64 64 65 66 65 66 65 65 65 64 64 62 66 62 62 61 58 58 54 53 52 54 53 53 55 52 55 55 56
57 55 54 56 57 56 57 59 59 59 60 61 61 60 60 61 62 62 62 65 65 66 64 64 63 62 63 64 63 62 59 60 53 52 52 45 48 46 49 52 53 53 51
54 55 55 56 56 55 55 57 58 58 60 59 58 57 56 56 57 60 62 63 64 64 65 65 64 64 62 62 62 63 62 57 55 51 54 51 49 48 47 48 48 49 51
53 54 56 58 57 56 54 54 56 57 56 56 56 54 53 54 54 55 56 57 60 62 64 65 64 62 62 62 61 59 59 59 61 52 51 49 47 46 46 46 46 48 49
51 53 55 56 55 55 54 54 55 54 54 54 54 52 51 51 52 52 53 53 55 57 59 62 63 63 61 60 60 60 58 59 58 57 55 54 51 53 47 43 44 45 50
50 51 51 52 52 52 53 55 53 52 52 52 52 52 51 51 51 52 52 53 53 53 54 56 58 60 60 60 60 59 59 58 57 57 56 56 56 53 52 51 49 45 47
48 50 50 49 50 51 50 50 50 50 50 50 50 50 51 51 52 52 51 51 51 52 53 54 55 57 58 59 59 58 58 58 57 57 56 56 55 54 54 53 49 44 43
49 50 49 48 48 47 47 48 48 48 48 48 48 48 49 50 50 50 50 50 50 55 52 52 53 54 55 56 57 58 58 55 55 54 56 54 54 53 53 52 51 50 44
50 48 48 46 46 46 45 46 47 46 46 46 46 48 48 50 50 49 48 49 49 49 49 49 49 50 51 52 53 55 55 54 54 54 54 53 50 50 49 48 48 48 48
48 47 46 45 45 44 44 44 44 45 45 45 46 45 46 48 48 46 46 46 46 45 45 46 46 47 47 48 48 48 48 49 50 49 49 47 47 45 45 44 44 44 44
49 47 45 43 42 41 41 41 42 43 44 44 44 44 44 44 45 43 43 44 43 43 43 43 43 44 44 44 44 45 45 47 45 45 44 42 44 41 41 41 40 40 41
48 46 44 43 41 40 40 41 41 41 42 43 43 42 41 41 41 41 42 43 42 41 41 41 40 40 41 40 40 42 43 42 42 42 42 41 41 39 39 39 38 38 38
47 45 42 41 40 40 40 40 42 43 42 42 41 39 39 39 39 40 40 41 41 40 39 39 39 39 38 38 37 37 36 37 39 39 39 39 39 38 37 36 35 35 35
46 45 41 38 37 38 39 40 43 45 45 41 42 42 42 40 40 39 40 39 39 39 39 39 39 40 42 41 35 35 35 35 36 36 38 39 41 42 40 37 34 34 34
45 44 42 39 38 37 38 41 42 43 45 43 43 43 43 42 41 41 40 40 39 40 40 40 41 41 42 43 41 37 36 35 35 34 34 35 36 38 42 41 40 38 34
44 42 40 38 37 37 39 40 41 42 42 42 42 41 41 40 39 39 38 37 37 37 37 37 39 40 41 42 40 37 34 33 32 31 30 32 34 33 33 36 37 37 39
44 41 38 37 37 38 39 39 40 40 40 40 40 40 39 38 37 37 36 35 35 35 35 35 36 37 40 41 40 37 27 25 23 23 22 23 27 33 33 29 29 30 31
42 39 38 37 37 38 40 39 38 38 38 37 38 38 38 37 36 35 34 34 33 33 33 34 34 34 30 41 39 29 20 22 23 27 28 29 29 39 40 30 27 28 29
41 38 37 38 38 39 40 38 37 37 36 37 37 37 37 36 34 34 33 34 34 33 30 24 21 34 21 42 40 33 29 26 27 28 30 38 35 39 39 28 26 25 26
39 39 38 37 36 37 39 37 36 35 37 38 38 37 37 35 35 34 34 30 29 30 30 31 31 26 29 32 41 39 30 29 29 28 29 30 38 37 37 37 27 28 30
39 38 36 37 37 37 39 37 35 38 39 39 38 37 37 37 36 33 31 26 24 24 24 25 25 27 27 38 39 40 38 35 30 29 29 28 37 37 37 33 36 37 34
39 39 38 38 38 37 37 37 38 39 39 39 38 33 32 32 31 27 27 27 27 26 26 28 26 26 29 27 36 38 38 37 30 29 33 36 36 36 32 34 36 32 25
40 40 39 38 39 39 38 37 39 40 36 33 32 31 30 30 29 30 30 28 27 26 28 28 27 24 26 26 28 29 27 33 32 32 26 32 33 34 32 29 28 26 25
43 42 41 40 40 41 38 37 37 36 33 31 30 30 30 30 28 29 28 29 27 28 27 27 27 25 25 29 34 33 30 28 32 31 26 25 24 22 24 24 25 24 24
43 42 42 42 42 42 41 38 38 36 33 31 30 29 28 27 28 27 27 37 36 39 38 36 31 30 35 37 37 37 36 36 36 28 23 20 19 19 22 22 22 22 23

GFSMW_sfc_temp_051.txt.gz
Temp
57 55 56 58 58 58 58 59 62 61 63 63 63 63 64 64 64 65 67 67 67 66 64 65 63 62 63 64 63 61 60 58 54 54 54 54 57 54 54 53 55 55 56
54 54 55 55 57 57 57 58 58 59 59 60 60 62 63 64 64 65 65 65 66 65 64 63 62 62 63 61 61 60 58 57 53 53 50 53 54 52 55 52 55 55 55
55 53 52 54 54 55 56 57 57 58 58 59 59 58 58 59 61 62 62 64 65 65 64 64 63 62 61 61 61 60 59 60 52 53 56 50 49 47 50 50 51 53 50
53 53 53 52 53 53 54 55 56 56 57 57 56 56 55 55 55 56 58 59 62 62 63 63 63 62 61 60 61 62 61 58 57 50 53 53 53 51 51 50 49 48 50
52 52 53 54 54 53 52 53 54 55 54 54 54 53 53 53 54 54 55 56 57 58 60 61 62 61 61 61 60 59 58 59 60 55 50 52 50 49 48 51 51 47 48
50 51 53 53 52 51 51 51 52 52 52 52 52 51 51 50 51 52 52 53 54 54 55 56 58 61 60 60 60 59 58 59 58 59 56 54 51 50 48 47 52 50 51
48 49 49 50 50 50 50 51 51 49 49 49 50 50 49 49 50 50 50 51 51 52 52 53 54 56 60 61 60 58 58 57 57 57 57 56 56 55 52 51 51 47 48
46 48 49 48 48 49 48 48 48 48 48 47 48 48 48 49 49 50 50 50 50 51 51 51 52 53 55 56 57 56 56 57 58 57 55 53 55 54 53 52 48 46 44
47 47 47 47 46 46 46 46 46 46 46 46 46 46 47 48 49 48 48 48 48 52 50 50 50 50 52 53 56 58 57 57 56 56 56 54 52 51 52 52 52 50 45
47 46 46 45 44 44 44 44 45 44 44 45 44 46 45 47 46 46 46 46 45 46 46 47 47 47 47 49 50 51 51 53 52 52 52 52 50 50 49 49 49 48 48
47 45 44 44 43 42 42 42 43 43 43 44 43 43 44 45 45 44 43 44 44 43 43 44 44 43 43 44 45 45 46 47 48 47 47 45 45 44 43 44 43 43 44
48 46 44 42 42 41 40 40 41 41 42 43 43 42 43 43 43 42 42 42 41 42 41 41 41 41 41 40 40 41 42 42 41 44 44 42 44 41 41 41 40 40 41
48 46 43 42 40 40 39 40 40 40 41 42 41 40 40 40 39 39 40 41 40 39 39 39 39 38 38 38 38 38 38 41 41 40 39 39 40 39 39 38 38 37 38
47 45 43 42 40 40 40 40 40 40 41 41 39 38 38 38 38 38 39 39 39 38 38 38 38 38 37 36 36 35 35 36 38 38 38 37 38 38 37 35 35 35 35
44 44 41 39 38 38 39 40 40 42 45 41 39 39 40 40 40 41 42 40 38 38 38 39 42 42 42 40 36 37 37 37 36 36 37 38 41 43 41 37 35 35 34
46 44 42 39 38 38 38 40 41 43 44 43 42 43 42 42 41 41 41 40 40 40 40 41 41 40 42 42 40 38 35 35 35 33 33 35 37 37 43 43 43 39 33
46 44 42 40 38 37 38 38 40 43 42 42 42 41 41 40 39 39 38 38 37 38 37 38 39 39 40 41 39 37 34 32 29 26 26 32 33 33 29 36 38 38 40
44 42 40 38 38 38 38 38 39 41 40 40 40 40 40 38 38 37 36 36 36 35 35 35 35 34 39 41 39 35 24 24 26 24 19 20 22 28 29 28 28 29 29
42 40 39 38 37 37 37 37 39 39 38 38 38 39 38 37 36 35 34 34 34 34 33 33 32 27 27 40 39 29 20 22 22 26 27 29 29 39 38 29 27 27 28
41 39 37 36 36 36 37 37 37 37 37 37 37 38 38 36 34 34 33 34 34 32 28 24 20 34 21 41 39 32 29 26 27 28 29 36 35 39 39 28 26 25 26
39 38 38 37 37 37 38 37 37 35 37 38 38 37 37 35 35 34 34 33 32 31 28 26 24 25 29 30 41 39 30 29 29 28 29 30 37 38 38 37 27 28 29
38 38 37 37 37 37 37 36 36 37 38 38 37 36 36 37 36 33 30 26 24 24 24 24 25 27 26 36 38 40 39 36 30 29 29 28 36 37 37 34 36 37 32
38 39 38 36 36 37 38 37 36 36 37 37 36 33 36 36 34 29 26 26 25 25 25 27 25 26 29 27 36 38 38 37 31 29 32 35 36 36 32 34 36 32 24
39 39 38 37 36 37 37 38 37 38 38 37 33 31 30 31 28 29 29 27 26 25 27 27 27 25 26 26 27 30 27 33 32 33 26 32 32 33 31 29 28 26 24
41 41 40 39 39 39 37 37 37 36 33 32 31 30 30 31 27 28 27 29 26 28 27 27 27 25 25 29 32 32 30 27 32 31 26 25 24 22 23 24 24 23 24
42 41 41 40 41 41 39 39 38 36 33 31 30 29 29 28 28 28 27 36 36 38 39 37 31 30 35 37 38 37 37 37 37 28 24 21 19 18 21 21 21 21 22

GFSMW_sfc_temp_054.txt.gz
Temp
60 58 57 56 56 58 59 60 62 62 63 63 62 62 62 62 63 64 65 65 65 64 63 63 61 61 62 63 61 60 59 57 54 56 54 53 55 55 56 54 54 54 55
54 56 54 53 57 56 56 57 58 59 59 60 60 62 62 62 63 63 64 65 65 65 64 62 62 61 61 60 60 59 57 57 53 55 50 54 55 52 54 52 53 53 53
53 53 52 53 53 54 55 56 56 57 57 58 58 57 58 58 59 60 61 62 64 64 64 64 63 61 60 60 60 59 59 59 53 53 57 51 51 51 52 51 50 51 49
51 52 52 51 52 52 53 55 55 56 56 56 56 56 55 55 54 55 56 57 59 60 61 62 62 62 61 60 60 60 60 57 59 52 54 54 54 52 51 54 53 50 49
53 52 52 52 51 51 51 52 53 53 53 53 53 52 52 51 52 53 54 54 54 55 57 57 58 60 61 62 60 58 57 58 59 56 52 53 51 50 49 51 53 52 51
51 52 51 51 49 49 49 50 51 50 51 51 51 51 50 50 51 51 51 52 53 53 53 54 54 59 61 61 62 60 58 58 59 59 55 54 52 50 48 47 49 50 50
47 47 48 48 48 48 48 49 49 48 49 49 49 49 49 49 49 50 50 50 51 51 51 52 52 53 55 59 60 60 59 58 58 57 57 56 56 55 53 51 50 49 49
45 49 48 47 47 48 47 47 47 46 47 47 47 47 48 48 49 49 49 49 49 49 50 50 50 51 52 54 58 58 58 58 57 57 56 56 53 54 51 51 47 47 46
45 45 46 46 45 45 45 45 45 44 45 45 45 45 46 47 48 47 47 47 46 51 47 47 47 48 49 50 56 56 55 56 55 55 55 54 53 52 52 52 51 49 44
45 45 44 44 43 44 43 43 44 43 43 43 43 44 44 45 45 45 44 44 44 44 44 44 44 44 45 46 48 51 52 52 50 51 49 48 48 48 47 47 48 48 47
45 44 43 42 42 41 41 41 42 42 42 42 42 42 42 43 43 42 41 41 42 42 42 42 42 41 41 42 43 43 45 47 46 45 44 44 45 44 43 44 44 43 44
45 44 42 41 40 40 40 40 40 41 41 41 41 40 41 41 40 40 40 40 39 40 40 40 39 39 39 38 39 39 40 40 39 40 42 41 44 41 41 41 40 40 40
44 43 41 41 40 39 39 39 40 39 40 40 39 39 38 38 37 38 38 39 38 38 38 38 37 37 37 36 36 36 36 37 37 36 36 36 36 35 37 38 37 37 38
44 41 41 41 40 40 39 39 39 40 39 40 39 38 37 37 37 38 38 38 38 37 37 38 40 38 35 36 37 37 38 38 39 39 39 38 36 34 33 35 35 34 35
42 42 40 39 38 38 39 40 40 41 41 40 39 38 38 39 39 42 41 39 38 37 41 41 42 42 41 39 38 38 38 37 36 36 38 39 41 44 41 37 35 35 34
46 43 41 39 38 37 37 39 40 42 43 43 42 43 42 42 41 41 41 40 40 40 41 41 41 40 41 42 41 38 36 35 33 32 32 35 36 37 43 42 42 40 33
46 45 42 40 38 37 37 37 39 41 42 42 42 41 41 40 39 39 39 38 37 38 38 38 39 39 40 41 39 37 33 27 25 25 25 30 32 30 27 35 37 37 40
45 43 41 39 38 38 37 38 39 39 40 40 40 40 40 38 38 38 37 36 36 36 36 35 32 34 39 41 38 35 21 25 25 20 17 19 21 27 29 27 28 28 29
44 42 40 38 37 37 38 38 37 38 39 38 39 39 39 37 37 35 35 35 34 34 33 31 27 26 26 40 38 28 19 22 22 26 27 29 29 40 38 29 27 26 28
42 39 38 36 36 36 37 37 36 38 37 38 38 38 38 37 35 34 33 34 34 32 30 24 22 33 21 40 39 32 29 26 27 27 29 37 35 39 39 28 26 25 26
38 38 37 36 36 37 37 36 36 35 38 39 38 38 37 36 35 34 34 33 30 25 21 21 22 24 28 29 41 38 30 30 29 29 29 30 37 38 38 36 27 28 29
37 37 36 36 37 37 37 36 36 37 38 38 37 37 36 37 36 33 31 30 29 28 27 24 25 27 25 35 37 40 38 35 30 29 29 28 37 38 37 33 37 37 30
37 37 36 36 37 38 38 35 36 36 38 37 36 35 36 36 34 30 28 26 24 24 25 27 25 26 29 27 35 38 38 37 31 29 32 35 36 35 31 34 35 31 24
37 38 37 36 35 36 36 37 36 36 36 36 34 34 34 34 32 29 29 27 25 25 27 27 26 25 26 26 27 30 27 33 33 33 25 32 32 33 31 28 27 25 24
40 40 39 39 39 38 38 38 36 36 34 34 33 31 32 34 29 29 28 29 27 28 28 27 27 25 25 29 32 31 30 27 32 31 26 25 24 22 24 24 24 23 23
41 40 40 40 40 40 39 38 37 37 35 32 31 31 30 29 28 27 28 36 36 38 38 38 31 31 35 37 38 38 38 37 37 27 23 21 19 20 22 22 21 21 21

GFSMW_sfc_temp_057.txt.gz
Temp
66 66 66 65 66 65 66 68 69 69 70 68 68 68 68 69 68 70 71 71 72 72 70 71 70 70 70 71 70 69 66 66 64 64 67 67 67 68 69 70 66 67 67
61 62 63 63 63 64 63 64 66 67 68 68 68 69 69 69 71 70 71 71 71 71 70 69 69 69 69 68 68 66 65 64 62 64 61 60 66 65 65 66 65 65 66
60 61 62 61 60 60 61 61 62 63 64 64 64 64 64 65 66 67 67 67 67 68 68 69 68 67 66 66 67 66 64 63 61 62 63 56 58 60 63 63 62 63 63
58 59 59 58 58 59 59 60 60 61 61 62 63 63 63 62 61 62 62 63 63 65 66 66 65 65 64 63 64 65 64 63 61 57 58 60 58 55 53 59 63 59 61
59 59 59 59 57 56 56 57 58 58 58 59 60 60 59 59 59 60 60 61 61 61 61 62 62 62 62 63 63 63 62 62 62 60 58 58 55 54 52 52 59 58 59
61 60 59 57 56 54 54 55 56 55 56 57 57 58 58 57 58 58 59 59 60 59 59 59 59 60 62 63 63 63 62 61 60 62 61 57 55 56 50 50 51 52 57
54 56 54 54 53 52 53 54 55 53 54 55 55 56 56 56 56 56 56 57 58 57 56 56 56 57 58 59 61 61 61 61 59 60 59 59 59 58 56 56 55 51 54
52 52 54 54 53 52 52 53 53 51 52 53 53 54 54 55 55 55 55 55 55 55 54 54 55 55 56 57 60 60 60 59 58 58 59 58 57 56 55 58 53 49 49
51 51 51 52 51 51 51 52 52 51 51 52 52 52 53 53 53 52 53 53 52 54 52 52 52 52 53 54 58 58 57 55 54 55 55 55 53 54 53 54 54 51 48
48 48 49 49 50 50 50 50 51 50 50 50 51 50 50 50 50 51 50 49 49 49 49 49 49 49 49 51 53 54 54 53 52 53 53 52 51 49 48 50 50 50 49
47 48 48 48 48 47 48 48 48 48 48 49 49 49 49 49 48 48 47 47 47 47 47 46 46 46 46 48 49 49 49 48 48 48 49 47 47 46 46 48 48 48 48
47 47 47 45 45 45 45 46 46 47 47 47 47 47 47 47 46 46 45 46 45 45 45 45 44 44 44 45 46 45 45 46 45 45 45 44 46 45 45 46 45 44 43
46 46 45 45 45 44 44 44 44 45 46 46 45 44 44 44 44 44 44 44 44 44 44 44 43 42 41 42 42 42 42 42 42 42 43 42 43 42 42 42 42 41 41
47 46 44 45 44 43 43 44 44 45 44 44 43 43 42 42 42 42 43 43 43 42 43 44 43 40 39 40 40 40 40 41 41 41 42 42 42 41 41 40 39 39 39
45 46 45 44 44 42 43 43 44 44 44 43 42 42 42 42 43 43 42 42 42 43 44 43 42 43 41 41 40 40 40 39 39 39 40 41 43 43 43 41 39 39 38
47 47 46 44 43 42 42 42 43 44 44 43 43 44 43 43 43 43 42 42 41 42 42 42 42 41 42 43 42 40 38 37 36 36 36 38 37 39 43 42 43 41 38
49 47 46 45 44 42 42 41 42 43 43 44 44 43 43 41 41 41 40 39 39 40 39 40 40 40 41 41 40 38 35 32 31 32 33 34 35 34 34 38 37 39 40
48 47 46 44 43 42 41 41 41 42 42 42 42 42 41 40 39 38 38 37 38 37 37 36 37 39 41 41 39 35 30 29 29 30 29 33 33 35 34 34 34 35 37
51 50 47 45 42 41 41 40 40 40 40 40 41 41 40 38 38 37 36 36 36 35 34 34 34 33 35 40 38 32 30 31 32 34 35 37 37 40 37 35 32 34 34
46 44 43 41 41 40 40 39 38 39 39 40 40 40 40 38 36 36 34 36 36 33 33 30 29 35 31 40 39 35 35 34 34 35 35 37 38 39 38 35 34 32 33
41 40 40 40 40 39 39 38 38 36 40 41 40 39 39 37 36 35 35 34 33 31 29 30 29 31 34 36 40 38 35 35 34 34 34 35 38 38 38 35 35 34 35
38 38 38 38 38 39 39 37 37 39 40 39 38 38 37 37 36 34 33 33 32 31 31 31 32 33 33 36 38 41 38 37 35 34 35 35 37 37 38 35 37 36 32
38 39 38 37 37 39 40 37 39 39 39 39 37 36 37 37 36 34 32 30 29 29 30 32 32 33 33 33 37 39 39 38 35 35 35 36 35 35 33 35 35 31 31
38 39 38 37 37 38 39 40 38 39 38 37 36 36 35 35 34 33 31 30 29 29 31 32 32 31 32 32 33 34 35 35 36 35 33 34 34 33 33 31 31 30 30
40 40 39 39 39 38 39 39 38 38 36 37 36 35 35 35 33 32 31 32 32 33 32 32 33 31 30 33 34 34 33 34 35 34 31 30 30 29 29 29 29 29 29
41 40 40 41 40 39 39 38 39 38 37 35 35 34 34 34 33 31 31 36 37 37 38 38 34 34 37 38 38 38 39 38 38 32 29 28 28 27 27 27 27 28 27

GFSMW_sfc_temp_060.txt.gz
Temp
76 73 76 78 78 79 77 77 76 76 76 75 75 75 76 78 79 81 79 79 81 80 79 79 79 79 78 78 79 78 76 75 77 72 73 75 77 76 77 79 79 77 76
74 72 72 73 75 77 76 75 76 78 78 79 79 79 78 79 80 79 78 79 79 79 78 77 77 77 76 76 76 75 72 72 74 68 67 64 73 77 76 77 75 76 76
74 73 70 70 70 70 71 72 73 73 75 77 76 74 74 74 74 74 75 75 74 74 73 72 72 72 71 70 71 71 69 65 69 70 66 61 64 69 73 72 73 73 74
68 69 69 69 68 68 68 69 69 70 71 72 73 73 73 73 74 73 71 71 71 71 72 72 70 68 67 65 66 66 66 65 62 62 64 65 63 58 58 69 71 71 70
69 69 70 70 68 65 64 66 68 68 68 69 72 72 71 72 71 70 69 70 70 68 68 69 68 68 69 68 66 66 64 64 63 63 60 60 61 61 56 55 61 66 61
71 72 74 71 68 65 63 64 66 66 66 68 69 69 69 69 68 68 68 69 69 68 66 65 66 66 66 67 67 66 64 64 64 64 62 60 58 60 57 54 57 57 67
72 71 72 68 67 62 62 63 65 64 66 67 67 66 66 66 66 66 67 66 67 66 64 63 64 64 64 64 65 64 63 64 62 64 63 60 60 59 56 55 55 56 62
68 65 66 68 66 62 62 63 64 63 64 65 64 65 64 66 66 64 65 65 65 64 62 61 62 62 62 63 64 64 63 62 61 60 60 60 60 58 57 56 55 53 56
65 65 61 64 66 63 62 63 63 63 63 63 63 63 64 63 63 61 62 62 61 61 60 59 59 59 59 60 62 63 62 59 57 56 55 53 52 54 55 57 56 54 50
61 62 62 60 61 63 63 64 64 62 61 61 63 62 61 60 60 60 59 59 59 58 58 57 57 57 57 58 59 57 57 57 56 57 54 53 52 53 53 54 56 52 52
60 58 58 59 59 58 59 61 61 59 59 60 60 59 59 58 58 59 58 58 57 56 55 54 55 54 55 56 57 53 53 53 52 52 52 52 54 53 53 54 51 51 52
57 57 57 58 57 56 57 56 58 58 58 58 58 57 57 56 57 57 56 56 55 54 53 53 53 53 53 54 55 53 54 54 53 52 52 51 52 52 52 52 52 51 51
57 57 57 57 58 57 56 56 55 55 56 56 56 55 55 55 55 54 54 53 53 53 52 52 51 50 50 51 51 51 50 50 50 50 50 48 50 49 49 49 48 48 47
58 58 58 58 59 57 57 55 54 55 53 52 53 53 53 53 53 52 52 51 51 51 51 50 48 46 46 45 45 45 46 45 45 46 46 47 47 46 45 44 44 43 44
58 58 58 59 58 56 55 55 55 54 53 52 50 49 51 50 49 48 49 49 49 49 48 46 45 45 44 44 43 43 43 43 42 43 43 43 44 44 44 44 43 43 43
59 59 59 59 58 57 55 54 53 53 53 52 50 51 49 49 48 47 45 45 45 45 45 44 45 44 44 43 43 43 43 43 42 41 41 42 41 43 43 43 43 43 42
61 61 60 59 58 58 56 53 52 53 51 51 51 50 49 46 45 44 42 42 41 42 42 42 43 42 42 43 41 40 40 37 35 35 36 38 40 38 39 40 39 40 41
60 61 62 60 60 59 54 52 51 50 50 50 49 48 46 44 42 41 40 39 40 40 39 40 41 41 42 41 39 37 34 33 33 34 34 36 36 38 39 39 39 40 41
63 62 63 62 60 55 51 49 48 48 47 47 47 46 45 42 40 38 38 38 37 37 37 38 39 37 39 40 39 36 36 35 36 38 40 42 42 40 38 39 36 39 39
59 57 58 59 56 53 52 49 47 46 45 46 46 46 44 41 38 38 36 37 37 34 37 34 34 38 38 40 39 39 41 38 40 40 40 38 41 39 38 39 39 37 38
51 51 53 53 53 50 49 47 46 42 46 46 45 44 42 40 38 36 36 36 35 34 34 33 34 35 39 42 40 39 40 40 39 40 39 40 38 39 39 37 39 37 39
47 48 49 48 48 48 48 45 44 46 45 45 43 42 40 39 38 36 34 34 35 35 37 38 38 40 41 39 41 40 39 39 39 38 39 39 37 37 38 38 37 37 35
46 48 48 46 47 47 48 45 46 45 45 42 41 40 39 38 37 36 35 35 36 37 37 37 38 39 39 40 39 41 41 39 38 39 38 37 36 36 35 35 36 33 36
46 46 46 46 45 46 46 47 46 45 43 42 40 39 37 36 37 37 36 36 35 36 38 37 38 39 39 38 39 39 40 39 38 37 37 37 36 34 36 34 34 35 36
47 47 46 46 46 46 45 46 45 44 42 42 39 37 37 37 36 36 35 37 39 40 38 39 39 38 37 38 40 39 38 39 38 37 36 35 35 35 35 34 34 35 34
45 44 45 45 43 41 42 41 43 41 40 38 38 38 37 38 37 35 35 38 39 39 39 40 39 39 40 39 39 39 38 38 38 36 34 34 34 34 34 33 33 34 32

GFSMW_sfc_temp_063.txt.gz
Temp
81 79 78 80 80 81 81 80 78 78 78 76 76 76 76 79 81 83 83 82 83 82 81 80 79 78 77 77 78 76 73 72 75 71 72 73 76 77 77 77 77 77 77
79 76 75 77 79 80 79 79 79 78 78 77 76 77 77 79 81 81 81 81 81 80 79 78 77 76 74 76 75 74 71 71 72 66 67 62 69 74 75 75 75 75 75
76 78 75 74 74 76 78 79 79 79 79 78 78 76 76 75 75 77 77 78 78 77 75 73 71 70 69 69 69 68 66 64 65 66 62 60 62 67 70 70 72 72 72
75 74 75 74 72 73 74 75 76 76 77 77 76 72 71 72 76 77 76 73 73 73 73 73 71 69 67 65 65 66 65 64 62 63 63 64 61 57 57 68 69 70 70
74 73 72 73 75 72 69 70 72 73 73 72 73 73 72 75 73 72 71 72 71 70 70 70 69 68 68 69 68 67 66 65 63 63 62 62 62 62 57 56 59 66 66
73 74 74 75 74 69 67 67 69 69 70 71 72 72 71 70 68 68 68 70 70 69 68 67 67 67 67 67 67 67 66 64 63 62 62 63 60 57 55 54 57 59 60
74 74 74 74 72 67 65 64 66 65 68 69 70 72 71 71 69 68 68 68 68 67 67 64 65 65 65 65 65 64 64 63 61 62 61 62 61 62 57 55 53 55 58
72 71 72 70 71 67 65 65 66 66 68 69 69 69 68 68 68 67 67 67 67 67 65 63 63 63 63 63 63 63 63 63 62 62 62 61 60 59 57 56 54 51 53
69 70 70 66 71 69 66 65 66 65 65 66 67 67 67 66 66 65 65 65 64 63 62 61 61 61 61 61 61 61 62 60 59 55 55 53 52 52 53 55 55 54 49
67 67 68 67 68 69 67 68 68 66 65 65 66 65 64 64 63 64 63 62 62 60 60 59 59 59 59 59 60 58 58 57 56 56 54 52 52 52 53 52 52 52 52
65 64 65 66 65 66 65 65 66 64 63 64 64 63 62 61 62 62 61 60 60 59 58 57 57 57 57 58 58 55 55 54 53 53 52 52 55 53 53 53 53 53 52
64 63 63 63 62 62 62 61 62 62 62 63 62 62 61 60 60 60 59 59 58 57 56 55 55 55 55 55 56 55 55 55 54 54 53 52 54 52 53 52 52 51 50
65 63 62 61 60 60 60 60 60 60 60 60 60 59 59 58 58 58 57 56 56 55 55 54 53 52 51 52 53 53 53 52 52 51 50 50 51 48 49 48 47 46 46
65 64 62 62 62 61 61 60 59 60 58 56 57 57 57 57 57 56 55 54 54 54 53 52 51 49 49 48 47 48 48 47 47 47 47 47 47 46 45 44 44 44 44
63 63 62 63 63 61 61 60 59 58 58 55 54 53 54 53 53 52 52 52 52 52 50 48 47 47 46 46 44 45 45 44 44 44 43 43 44 44 45 43 43 43 41
63 64 63 63 63 62 60 59 59 58 57 56 54 54 53 52 50 50 49 47 47 47 46 46 46 45 46 43 44 44 43 44 43 41 41 42 42 43 44 43 42 41 40
62 63 65 64 64 64 62 58 57 58 56 55 55 54 52 50 49 48 47 44 43 43 43 43 44 43 44 44 43 44 41 37 36 35 36 38 40 38 37 40 41 41 41
59 62 65 66 66 65 63 60 57 56 54 53 53 52 50 48 47 45 42 41 41 40 40 40 42 42 42 42 41 39 35 33 33 34 33 35 35 37 38 38 37 38 39
59 61 66 65 66 64 62 57 53 53 52 51 51 50 49 46 44 42 40 39 38 38 37 39 40 37 39 41 40 37 35 34 34 36 40 41 41 39 39 37 34 37 37
57 59 61 62 64 64 60 54 51 50 49 50 50 50 48 45 42 39 36 38 37 35 36 34 35 39 37 41 40 39 38 36 38 38 39 39 40 40 39 37 36 34 35
55 53 56 58 59 60 56 52 51 47 49 50 49 48 46 44 41 37 37 36 35 34 34 34 34 36 39 41 41 40 39 38 37 37 37 38 39 39 39 38 36 34 36
53 52 53 53 54 53 52 50 49 50 49 49 47 45 44 42 39 37 35 35 34 34 35 37 38 39 41 41 42 41 40 41 37 36 37 37 37 38 39 38 39 38 35
53 52 51 50 50 51 51 50 50 49 48 46 45 44 43 41 39 37 35 34 35 36 38 37 37 37 38 39 41 42 42 40 37 37 38 38 37 37 36 37 37 37 32
52 52 50 49 49 50 51 52 51 49 47 45 44 42 39 38 37 37 36 35 35 36 37 36 36 38 37 37 38 38 39 41 38 38 35 36 37 37 36 34 34 32 33
51 49 50 50 50 50 49 50 49 47 45 43 41 39 39 38 36 36 36 36 39 40 37 38 38 37 36 37 40 39 37 37 37 37 34 33 33 32 32 32 33 32 32
49 47 45 46 47 48 46 44 45 43 41 40 40 38 36 37 35 35 35 40 41 42 42 42 40 38 41 42 42 41 41 40 40 34 32 32 32 32 32 32 31 32 31

GFSMW_sfc_temp_066.txt.gz
Temp
74 74 71 73 73 73 73 73 71 71 71 69 68 68 68 70 71 73 76 76 75 75 72 71 74 74 72 72 72 71 69 68 69 66 62 64 66 67 67 68 67 67 67
73 68 69 70 71 71 70 72 72 71 71 70 69 69 69 70 72 73 75 75 74 74 72 71 71 72 70 71 70 69 67 67 67 63 61 59 61 64 66 65 66 64 65
70 66 65 67 67 69 70 69 72 72 71 71 70 69 69 68 68 70 70 72 74 72 71 69 68 67 67 66 66 65 64 63 64 65 61 57 55 57 61 63 63 63 62
65 67 66 64 64 65 68 68 69 70 70 71 69 66 64 63 66 66 67 67 68 67 67 67 67 67 65 64 63 63 63 63 61 62 62 61 61 57 55 59 60 61 62
63 63 65 66 65 64 63 65 67 67 67 66 67 65 64 65 64 63 63 64 64 65 64 64 62 61 61 61 61 60 60 59 58 59 59 58 59 59 56 54 54 58 60
62 64 66 66 65 61 60 60 63 64 64 64 64 64 64 62 61 60 60 60 61 61 62 62 61 60 60 60 60 60 59 58 57 58 59 59 57 55 55 53 53 53 57
62 63 64 63 63 58 59 59 60 60 63 64 63 64 64 63 62 60 59 59 59 58 58 59 58 58 58 59 59 58 58 58 56 59 58 60 59 58 57 55 53 51 55
60 59 60 61 60 60 58 59 60 59 61 62 63 63 62 60 60 61 60 58 57 56 56 56 56 56 57 56 57 56 56 57 56 55 55 56 57 56 55 55 53 51 50
57 58 56 57 58 58 59 59 59 60 61 62 61 61 61 60 59 59 57 55 55 57 54 54 54 54 54 54 55 54 54 55 54 54 54 53 52 53 54 55 54 53 48
56 57 57 56 57 57 58 60 60 58 58 58 60 59 60 59 58 57 55 55 53 54 52 52 52 52 52 53 52 52 53 54 53 53 52 51 51 51 52 52 52 52 51
54 54 55 56 56 56 56 57 59 58 57 58 56 55 55 56 56 56 54 53 53 52 51 51 50 50 50 50 50 53 53 52 51 51 50 50 52 51 50 49 49 47 49
55 55 54 54 53 53 54 54 54 54 55 56 56 55 54 53 53 53 53 53 52 51 50 50 49 49 49 48 48 48 49 52 51 51 50 49 52 48 47 46 44 44 42
56 55 53 52 51 51 51 52 51 52 53 53 52 52 52 52 52 52 51 51 50 49 49 48 47 47 46 45 45 46 46 45 44 45 44 43 43 41 41 42 43 40 43
56 55 53 52 52 52 51 51 51 51 50 50 50 49 49 51 50 51 50 50 50 48 48 47 45 45 44 43 43 44 42 42 43 42 41 41 41 43 43 42 42 42 40
55 55 54 52 52 51 51 52 51 50 50 48 47 47 47 47 48 47 47 48 47 46 46 44 45 46 45 45 43 44 44 43 42 41 42 41 43 45 45 41 40 40 37
54 55 56 55 54 52 51 52 50 50 50 48 47 48 47 46 44 44 44 43 43 43 43 44 45 44 46 44 45 44 42 42 41 39 37 38 40 42 44 43 43 40 37
52 53 53 54 54 53 53 50 50 50 49 48 48 48 47 45 44 46 46 40 39 42 42 42 43 42 42 44 44 44 39 36 35 34 33 35 38 36 33 40 42 41 42
51 51 52 54 54 55 52 50 50 48 47 47 47 47 45 43 43 44 42 39 40 40 39 40 41 40 41 43 42 40 34 33 32 32 31 30 30 33 35 33 33 33 33
50 49 50 51 52 53 51 50 47 47 46 45 45 45 44 42 41 41 38 38 38 38 37 38 38 36 37 41 41 34 30 31 31 31 34 36 34 40 40 34 31 32 32
49 48 47 49 50 51 50 48 45 45 44 45 45 44 43 41 41 41 36 38 37 35 36 34 34 39 34 41 41 36 32 31 31 33 35 40 38 41 39 32 31 30 30
48 48 46 46 47 48 47 45 43 42 44 45 44 43 42 42 40 36 36 36 35 34 33 33 33 32 35 36 41 41 35 34 33 32 32 33 40 40 40 39 30 31 32
49 47 44 45 45 46 45 44 42 44 45 44 42 41 40 42 39 36 35 35 34 33 33 34 32 33 35 41 42 42 41 40 34 33 33 33 39 39 39 37 38 38 36
48 47 44 44 44 44 44 43 43 43 43 41 39 40 41 40 38 36 35 34 34 34 34 34 32 31 33 34 42 42 42 41 35 33 36 39 38 38 36 38 38 38 30
48 46 44 43 42 43 44 44 44 44 42 39 38 40 39 38 37 36 35 34 33 33 34 33 31 31 32 32 33 35 35 41 38 38 31 35 36 36 34 34 33 30 29
46 46 44 46 44 43 43 44 43 42 40 39 37 38 38 38 35 35 35 35 37 38 35 34 33 32 31 33 36 35 33 32 35 34 31 30 29 29 29 29 29 29 29
45 46 44 44 45 46 44 42 43 42 41 39 37 37 36 36 35 34 34 40 40 41 42 42 37 35 40 42 42 42 41 41 40 33 30 29 28 29 30 30 30 29 30

GFSMW_sfc_temp_069.txt.gz
Temp
68 69 70 70 70 70 68 69 68 70 70 67 66 68 66 67 68 70 73 73 73 73 70 69 69 72 72 72 71 70 68 67 67 65 61 62 64 64 64 66 64 65 66
66 66 65 68 68 70 68 67 70 67 69 68 67 67 67 67 69 70 73 74 73 73 71 69 69 70 70 70 70 68 67 67 67 64 62 58 60 64 64 62 63 64 63
64 63 64 65 66 65 66 69 69 69 68 69 67 66 66 66 66 67 68 71 71 70 70 69 69 68 67 66 66 65 65 63 62 64 61 56 54 56 62 62 61 63 62
61 63 66 62 63 64 64 66 67 68 70 68 66 64 64 63 64 64 66 65 65 67 66 65 65 65 65 63 62 62 61 60 60 59 61 60 59 56 54 57 58 59 59
60 61 62 63 64 64 63 64 65 66 68 68 67 65 62 63 61 61 61 61 62 63 63 62 61 61 60 60 59 59 58 58 57 56 55 56 56 57 54 51 53 56 56
59 60 61 63 63 61 60 59 61 62 62 62 63 63 62 60 59 59 59 59 59 60 60 61 59 59 58 58 57 57 57 57 56 56 55 54 53 53 53 53 53 53 56
55 57 59 59 59 58 58 58 59 59 60 60 60 61 61 59 59 58 58 57 57 56 57 57 56 55 56 56 56 55 55 55 55 55 54 56 58 58 55 53 52 53 54
54 55 55 56 56 57 57 57 57 57 59 60 60 60 62 60 59 59 58 57 58 55 56 56 56 54 55 54 54 53 53 54 54 54 53 55 55 56 56 55 52 49 51
52 53 54 54 55 54 55 56 56 57 59 61 60 60 59 59 57 58 58 56 55 56 54 54 54 52 52 52 52 51 52 52 52 54 52 53 52 52 53 55 55 54 48
53 53 53 52 53 53 55 55 56 57 58 58 58 58 58 59 58 55 55 55 54 54 52 52 51 50 50 50 50 50 51 50 50 51 51 51 51 51 51 51 52 52 52
52 52 52 52 52 52 51 52 54 55 55 58 56 55 55 55 55 53 54 52 53 52 52 50 49 49 48 48 47 48 49 49 48 48 49 50 51 50 49 49 49 48 48
52 52 51 51 50 50 50 50 51 52 52 53 53 52 52 53 52 52 52 53 50 51 50 49 48 48 47 46 46 47 47 48 49 49 49 49 51 47 47 47 45 44 41
52 51 49 50 49 49 49 49 49 50 50 51 50 50 50 50 50 50 51 51 49 47 48 48 47 46 45 44 43 44 44 43 43 45 45 45 45 42 41 41 43 42 41
52 51 48 48 49 49 49 49 48 48 48 48 48 47 47 47 46 47 48 48 48 46 46 45 45 44 43 43 42 42 40 40 40 40 40 40 40 40 41 42 42 42 40
50 50 49 48 47 47 49 49 48 48 48 47 46 46 46 45 45 45 45 45 45 44 43 42 43 43 43 44 42 44 43 43 41 42 42 41 42 45 44 41 40 40 38
49 50 50 49 49 47 48 49 48 47 47 46 46 46 45 44 43 42 42 41 41 41 41 41 44 44 45 45 45 44 42 42 40 39 38 39 40 43 44 44 43 41 38
48 48 48 47 48 49 50 49 49 48 47 46 46 45 44 43 42 42 40 39 38 38 38 40 43 42 42 45 45 45 40 37 36 34 33 35 37 35 34 41 42 42 43
47 47 46 47 47 47 48 50 49 48 47 45 45 45 44 42 41 40 40 41 37 37 36 38 41 40 41 44 43 41 35 34 33 32 29 28 29 32 33 32 32 32 33
47 47 46 45 45 46 47 47 47 46 46 45 45 44 43 41 40 39 38 39 36 36 38 39 39 37 38 42 42 35 31 29 28 30 33 34 34 40 41 33 31 31 32
48 48 46 45 44 45 46 45 46 45 45 45 44 43 42 41 38 38 38 37 37 36 36 34 35 39 35 42 41 35 31 29 30 31 33 40 36 41 40 32 31 29 29
45 47 45 43 43 43 44 43 42 42 43 44 43 42 41 39 38 38 37 35 35 35 34 34 34 35 36 36 42 40 33 32 32 32 32 33 41 41 40 37 30 31 31
44 46 45 43 43 43 43 42 42 43 43 43 41 40 39 40 38 37 36 35 35 34 34 34 33 34 33 39 42 42 41 39 33 32 32 33 41 40 40 37 38 39 36
42 44 44 43 42 42 42 41 42 41 41 40 39 39 38 38 39 37 35 34 35 34 33 33 33 32 32 32 42 43 43 42 34 33 35 38 40 39 37 39 39 39 30
41 42 43 42 41 41 41 41 41 41 40 38 37 37 37 38 37 36 36 35 34 33 33 33 33 31 30 31 32 35 38 41 38 38 34 37 36 36 34 34 34 30 29
42 42 42 43 46 45 44 42 41 40 38 37 36 36 37 39 36 36 35 35 37 37 35 35 35 32 29 32 36 35 33 33 35 34 31 30 30 29 29 29 30 29 29
45 44 41 43 45 45 45 44 43 42 41 39 38 38 37 38 36 34 34 40 40 41 41 41 37 35 39 41 41 41 40 40 40 34 30 29 29 29 30 30 30 29 31

GFSMW_sfc_temp_072.txt.gz
Temp
64 66 65 67 67 65 67 67 67 69 71 68 67 67 65 69 69 70 71 70 71 70 68 67 67 67 69 70 70 69 68 67 67 65 64 61 62 62 63 62 62 63 65
61 64 64 64 64 68 67 66 69 67 70 68 67 67 65 65 67 70 69 70 73 72 69 67 67 67 69 70 70 68 66 64 65 63 61 56 58 60 60 60 61 60 63
60 60 61 63 64 64 65 68 70 69 70 69 66 65 65 65 65 65 66 71 72 71 70 69 68 68 67 67 66 66 65 63 63 63 59 56 52 54 59 60 60 60 60
58 61 61 63 61 63 63 66 67 67 69 66 66 66 64 64 65 64 64 65 67 66 66 67 67 66 65 63 63 62 61 59 58 59 59 58 57 55 54 56 57 58 58
58 59 60 65 65 62 61 62 64 67 68 68 66 65 62 63 62 62 63 61 61 62 62 62 61 61 62 61 60 57 57 57 57 56 55 54 54 55 53 54 53 54 55
56 58 59 61 61 59 58 59 61 62 62 63 64 64 63 62 59 59 58 58 58 59 60 60 59 59 58 57 57 56 55 55 55 55 54 53 52 51 50 50 50 52 53
52 54 55 57 59 59 59 58 59 60 59 60 61 62 62 61 60 58 58 57 57 57 58 58 57 55 56 56 56 55 54 53 53 54 53 54 53 54 53 53 50 50 52
50 51 53 55 55 56 55 56 57 57 57 57 57 58 59 57 58 59 58 58 58 58 58 56 55 54 55 55 54 53 52 52 52 52 52 53 53 54 53 53 53 50 51
50 51 52 52 53 54 55 55 55 56 56 57 57 56 59 57 56 56 56 56 54 56 56 55 55 53 53 52 51 50 50 51 51 51 52 53 51 51 52 54 54 54 49
52 51 50 51 52 51 52 52 53 55 55 56 56 57 55 56 58 59 58 56 54 54 52 51 50 51 51 51 50 48 49 49 49 49 49 48 48 49 50 51 52 52 52
50 51 50 50 50 49 49 50 51 52 53 53 52 52 54 55 54 53 53 53 52 51 50 50 49 49 49 48 47 47 48 48 47 47 47 47 48 49 49 49 49 48 48
50 50 50 49 49 49 49 49 49 50 51 51 51 51 52 53 50 51 52 51 51 50 51 48 48 47 47 46 46 46 47 47 46 47 46 46 49 48 47 47 46 44 44
50 48 48 48 47 47 48 48 48 48 49 49 49 48 48 48 47 47 48 48 48 48 48 48 47 45 44 44 44 44 44 43 43 44 47 46 46 44 43 44 43 43 43
48 47 46 47 47 47 46 47 47 47 47 47 47 46 46 46 46 46 46 46 46 45 44 44 43 44 42 42 41 41 40 40 40 40 40 41 43 42 42 42 42 42 41
47 47 46 44 45 46 46 47 47 47 47 46 45 45 45 45 44 44 44 44 44 43 43 41 41 41 42 43 40 41 41 42 41 42 42 41 42 45 44 42 41 41 38
46 47 47 46 46 45 45 46 47 46 46 45 45 45 44 43 43 42 41 41 40 40 40 40 40 40 44 47 46 45 42 42 41 39 39 40 41 43 45 44 43 42 39
46 46 46 45 44 45 46 45 47 46 45 45 45 44 43 42 41 41 40 39 38 38 38 38 39 39 42 46 46 46 41 39 37 36 35 36 37 36 34 42 41 42 43
44 45 45 46 46 44 44 45 46 45 45 44 44 44 43 41 40 39 38 37 36 36 36 36 37 38 41 45 45 43 36 34 34 34 33 27 28 32 34 32 32 31 32
42 43 43 45 44 44 44 43 44 44 44 44 44 44 42 40 39 38 37 37 36 35 35 36 37 38 38 44 44 38 34 33 33 33 32 32 32 38 41 32 31 32 33
43 43 43 44 43 44 42 42 42 42 43 45 44 43 42 41 39 38 36 36 38 35 36 34 35 39 36 42 42 36 32 31 30 31 33 40 35 41 41 32 32 30 30
41 42 42 41 43 43 41 41 41 41 44 43 42 41 41 40 39 37 35 35 37 36 35 34 34 36 37 38 42 39 31 31 30 30 32 34 41 42 41 37 31 32 32
40 41 40 40 42 42 40 40 40 42 42 42 42 40 39 40 39 36 34 36 36 35 35 34 34 35 36 40 42 42 39 37 32 31 33 33 40 41 41 38 38 39 36
41 40 39 39 41 41 40 39 40 41 41 40 39 38 37 38 37 36 35 35 35 35 34 33 33 33 34 32 41 43 43 42 33 32 35 37 40 41 39 40 39 40 30
42 44 39 38 38 42 41 40 41 40 39 38 37 36 36 36 35 36 36 35 35 34 34 33 33 33 33 32 31 35 38 42 38 37 34 37 37 37 34 35 34 31 29
42 43 43 38 39 42 46 44 43 41 38 37 36 35 36 38 35 37 36 35 37 38 35 35 35 33 32 32 35 35 33 33 36 34 31 30 30 29 29 29 29 29 29
40 37 41 41 39 41 44 45 44 42 41 39 38 38 38 39 37 35 35 40 40 41 41 41 38 36 40 40 40 40 41 41 40 34 29 29 28 28 29 29 29 29 31

GFSMW_sfc_temp_075.txt.gz
Temp
61 62 64 64 64 64 65 67 67 68 69 67 66 65 67 67 67 66 70 71 71 69 67 66 65 65 64 65 66 68 67 66 66 64 64 61 61 61 62 61 60 61 62
58 62 64 63 64 64 64 64 66 67 68 69 71 69 65 64 67 69 71 72 71 70 69 66 65 65 64 67 68 67 65 65 65 62 58 55 58 59 59 58 59 59 59
57 59 60 62 63 62 63 65 67 69 69 66 65 64 64 64 64 66 68 69 70 69 69 68 66 65 66 66 67 66 65 63 61 63 62 56 52 54 59 59 59 58 57
55 57 60 59 61 63 62 64 65 66 66 65 65 66 66 64 63 64 64 64 66 67 69 67 66 66 65 65 64 63 63 60 58 57 58 57 58 56 53 55 56 56 57
54 56 58 61 62 63 62 63 64 64 65 64 64 63 62 63 62 62 62 62 61 62 62 62 62 61 61 61 61 60 59 57 56 55 54 53 52 54 54 51 52 54 54
53 55 57 57 57 56 58 59 60 62 63 64 64 64 63 61 60 60 60 59 59 59 60 60 59 59 59 58 58 57 55 54 53 54 53 52 51 50 49 49 49 50 51
52 53 53 55 54 55 57 57 58 60 60 61 61 62 64 63 62 60 60 58 57 57 58 58 58 58 57 57 56 54 53 53 52 52 52 52 52 52 51 50 49 49 50
49 50 50 53 54 53 55 55 56 56 58 58 59 59 60 60 61 60 59 58 58 57 58 57 56 55 55 55 54 53 51 51 50 50 50 51 52 52 52 53 50 50 50
48 50 50 50 51 52 52 53 53 55 56 56 56 56 57 57 56 56 56 55 56 56 56 56 55 54 53 52 51 50 50 49 50 50 50 50 50 51 51 53 53 52 48
48 49 49 50 50 50 49 50 51 52 53 54 53 54 54 55 55 54 54 55 55 56 55 54 53 52 52 50 49 48 49 49 49 49 48 47 47 47 49 50 52 52 52
47 47 48 48 47 47 48 48 49 50 51 52 52 51 51 52 52 54 54 52 52 51 52 52 51 50 49 47 46 46 46 47 46 46 46 46 47 46 47 48 49 49 48
46 46 46 46 46 46 46 46 47 48 49 49 50 50 50 51 51 51 52 51 51 50 50 50 48 47 46 45 44 44 45 45 45 46 46 46 48 45 45 47 46 45 45
46 45 45 45 45 45 45 46 47 47 47 48 48 47 47 47 47 48 49 50 49 48 46 46 46 45 44 44 43 43 43 43 42 43 44 44 44 44 44 44 44 43 44
45 44 43 43 43 44 45 45 46 46 46 46 46 46 45 46 45 45 45 45 45 44 43 43 43 42 42 41 40 40 40 39 39 39 40 43 43 43 43 43 42 42 41
44 44 43 42 42 43 44 45 45 46 46 45 45 45 45 44 44 44 43 43 43 43 42 41 40 40 41 42 40 40 39 40 42 42 42 42 43 45 44 42 41 41 39
43 43 43 43 43 42 43 44 44 45 45 44 45 45 44 43 43 42 41 41 41 40 40 39 39 39 42 46 47 45 42 42 42 40 40 41 42 43 45 44 44 42 39
41 41 41 42 42 43 44 42 44 44 44 44 44 44 43 42 41 41 40 39 38 38 37 37 38 38 38 46 47 47 42 40 38 37 36 37 39 37 34 41 41 42 43
40 40 40 42 43 43 43 44 43 43 43 43 43 43 42 41 40 39 38 37 36 36 36 36 37 37 39 45 46 46 37 35 34 34 34 34 33 32 33 31 31 31 32
40 41 41 41 42 42 43 42 42 42 42 42 43 43 42 40 39 38 37 36 35 34 34 35 35 35 35 44 45 39 34 34 34 34 35 35 31 37 41 33 31 31 33
39 40 40 40 39 41 40 39 41 40 40 42 43 42 42 41 39 38 36 35 35 35 33 34 34 38 36 43 44 40 35 33 33 33 34 39 34 40 42 32 31 30 30
39 39 39 38 39 40 39 39 39 39 41 42 42 41 41 40 39 37 35 35 35 34 35 35 35 35 38 38 43 42 31 31 32 31 30 31 41 41 42 38 31 32 33
38 39 37 39 40 40 38 38 38 41 40 40 40 40 39 39 38 36 35 33 34 35 36 35 35 36 37 41 42 43 39 36 30 30 30 31 40 41 41 39 38 39 36
39 40 41 39 39 38 37 37 40 39 39 39 38 38 37 37 36 35 34 33 34 36 35 34 34 34 34 35 41 43 43 41 32 30 34 37 39 41 40 41 40 40 31
40 42 41 39 41 39 39 43 44 40 38 37 37 36 35 35 34 34 35 35 35 35 34 33 33 34 33 34 34 35 36 42 38 37 31 36 37 39 36 35 35 32 30
38 40 37 36 39 39 38 41 45 44 40 37 36 35 35 36 34 35 36 36 38 38 35 35 35 33 32 34 37 36 33 31 34 32 29 29 30 29 29 29 29 29 30
39 35 36 36 38 38 38 39 42 44 41 39 38 38 37 38 37 36 36 41 41 41 42 41 38 36 40 41 40 40 40 40 41 32 28 27 28 27 29 30 29 28 30

GFSMW_sfc_temp_078.txt.gz
Temp
59 61 63 63 64 64 64 68 69 68 68 66 66 66 66 67 67 67 69 69 69 70 69 66 64 63 63 64 63 62 64 65 66 64 63 60 61 61 61 59 59 60 61
57 59 59 59 62 63 63 64 68 69 67 66 67 69 68 66 66 65 66 68 69 70 68 68 66 64 64 63 64 65 65 65 65 63 58 54 58 57 58 57 58 57 57
55 58 58 60 59 61 62 64 65 68 69 70 68 63 63 63 63 64 64 65 69 69 69 67 64 63 64 64 64 65 65 63 62 62 59 54 51 52 57 57 56 56 56
55 57 58 59 61 61 61 64 64 65 65 65 65 64 64 63 63 63 63 63 64 64 64 64 64 64 65 64 63 63 63 62 61 58 58 58 58 54 51 55 55 55 55
55 56 58 60 62 61 59 61 63 63 64 64 65 64 63 63 62 62 61 61 61 61 62 62 62 62 62 61 61 60 59 58 58 56 54 52 51 54 53 49 50 52 52
54 56 56 57 57 57 57 58 60 61 62 62 62 62 63 62 61 60 60 60 60 60 60 60 61 61 60 59 60 59 58 57 55 54 53 52 51 49 48 49 49 48 50
53 54 54 55 56 55 55 57 58 58 59 59 61 62 62 62 61 60 60 60 58 57 58 58 58 57 57 57 57 56 55 54 53 53 52 52 52 52 50 50 48 47 49
48 50 50 51 51 53 54 55 55 57 56 56 57 59 60 60 60 60 59 60 60 59 58 57 56 56 56 56 55 54 52 52 51 51 50 51 51 51 51 53 51 49 50
47 48 48 48 49 49 50 50 53 54 55 55 55 54 55 57 57 57 58 58 57 58 57 57 56 55 54 53 53 51 50 50 49 49 49 49 50 51 50 51 52 50 46
46 46 46 46 46 47 47 49 49 50 51 53 53 54 54 54 55 55 54 54 54 54 53 53 53 52 52 51 50 48 48 48 48 48 48 48 48 48 48 50 50 51 49
43 43 44 45 45 46 46 47 47 48 49 50 50 51 52 52 52 52 52 52 52 53 52 53 51 50 50 49 49 47 47 47 46 46 45 46 46 46 46 48 48 47 48
42 42 43 43 43 43 44 45 46 47 47 47 48 49 49 49 49 49 50 51 50 50 50 50 49 48 48 46 45 44 44 44 44 45 44 44 46 44 44 44 44 45 45
42 42 42 41 41 42 42 43 44 44 46 47 47 47 47 47 47 47 48 48 47 46 47 47 46 45 44 43 42 42 42 41 41 41 41 42 43 42 42 44 44 44 44
42 41 40 40 40 42 42 43 43 44 44 45 45 45 45 46 45 45 45 45 45 44 43 43 43 42 41 41 40 40 39 38 39 39 39 41 44 44 43 43 43 43 41
41 41 40 39 39 40 42 43 43 43 44 44 44 44 44 44 44 44 43 43 43 42 42 41 40 40 40 41 39 40 39 38 40 42 42 42 43 45 45 43 42 41 40
41 41 40 40 40 39 40 42 42 42 43 43 43 44 44 43 43 42 41 41 40 40 39 39 39 39 42 46 47 43 39 40 42 41 40 41 42 43 45 44 44 43 39
39 39 39 39 40 40 41 40 42 42 41 42 43 43 43 42 41 41 40 39 38 38 38 37 38 38 38 46 47 47 40 38 39 38 37 37 39 38 37 41 40 42 42
38 38 38 40 40 41 41 42 41 41 41 42 42 43 42 41 40 39 38 37 36 36 36 36 36 36 38 45 46 47 37 34 34 35 35 35 34 35 35 32 31 30 32
37 38 38 39 39 38 40 40 40 40 41 41 41 42 42 40 39 38 37 36 35 34 35 35 35 35 35 44 46 39 34 34 34 35 36 36 35 37 41 32 30 30 31
37 37 38 39 38 40 40 38 39 40 40 42 42 41 41 41 40 39 36 35 35 35 33 34 34 37 33 42 45 40 35 34 34 34 35 38 36 40 42 30 29 28 29
37 38 37 36 38 39 38 36 38 38 41 41 41 40 40 40 41 37 35 34 34 33 33 34 35 36 36 36 44 44 35 35 33 33 33 34 41 41 43 37 29 31 31
36 37 35 36 38 39 36 37 36 40 40 40 39 39 39 39 38 36 34 34 34 35 35 36 36 36 37 41 43 44 39 37 31 31 31 30 39 42 42 39 38 39 35
35 37 35 36 37 38 36 35 38 42 43 38 37 37 37 36 36 35 36 34 35 36 36 35 35 34 35 36 43 43 43 41 31 30 33 36 39 41 40 41 40 40 29
37 35 36 34 34 36 37 36 38 40 42 41 40 36 35 35 34 36 36 36 36 36 35 34 34 35 34 34 35 37 40 42 38 37 32 36 36 38 35 36 36 31 30
35 35 33 33 33 35 37 40 41 39 38 40 40 38 37 36 34 33 36 36 38 39 36 35 35 34 33 34 37 36 35 34 35 32 30 29 29 29 29 29 30 29 29
34 33 33 34 33 33 34 37 40 41 38 37 39 40 38 38 36 36 36 41 41 42 42 41 39 36 40 41 41 41 40 40 40 32 30 28 28 29 29 28 29 28 30

GFSMW_sfc_temp_081.txt.gz
Temp
57 56 59 63 66 68 68 68 69 70 69 67 65 67 66 68 68 69 70 70 73 73 72 72 70 69 69 70 70 69 69 69 69 67 72 72 73 73 73 72 72 71 71
59 56 57 58 62 65 67 68 68 70 70 66 65 65 66 68 70 69 68 68 70 69 70 69 68 68 70 69 69 69 68 67 67 68 63 65 70 71 71 71 70 70 70
57 59 60 58 59 63 63 67 70 69 69 69 66 65 65 65 64 65 67 66 66 66 67 67 68 66 66 66 68 68 67 65 64 66 65 61 62 63 69 68 68 68 69
57 58 59 61 60 60 64 65 66 67 67 66 67 65 64 62 64 65 65 66 66 65 65 66 66 66 64 64 64 66 66 66 67 65 65 66 65 62 60 65 66 66 66
57 58 59 60 62 61 60 63 64 63 65 67 67 65 63 62 64 63 63 63 63 64 64 65 64 63 62 62 62 65 62 63 63 64 62 62 61 60 57 57 60 64 64
57 58 59 60 59 59 59 62 63 64 63 63 63 64 64 63 62 63 62 62 62 62 63 64 64 63 62 61 60 60 60 60 60 60 59 59 60 58 56 54 57 56 60
54 57 56 56 56 56 57 59 60 60 62 64 62 63 62 63 63 63 63 61 62 61 62 62 63 62 61 61 60 59 59 58 57 57 56 59 59 59 58 56 55 53 58
48 50 52 53 54 54 54 56 58 59 59 61 60 61 62 62 63 63 62 63 63 63 63 62 60 58 59 59 59 57 57 57 57 57 57 57 57 57 57 57 55 52 53
48 50 50 51 51 52 52 54 56 56 57 58 59 59 60 61 61 61 62 62 62 60 60 60 58 58 58 56 55 55 55 55 55 55 56 55 56 56 56 55 56 55 49
47 48 48 49 50 50 51 53 54 54 55 55 56 56 58 58 59 59 59 59 60 59 58 57 57 56 55 56 54 54 54 55 53 54 54 54 55 54 54 54 55 54 52
45 46 47 48 48 49 49 50 51 52 53 53 54 56 56 56 57 57 57 57 57 57 57 56 55 54 54 54 54 53 51 52 52 52 52 51 53 53 53 53 53 51 51
44 45 45 47 47 47 48 48 49 50 50 51 53 54 54 55 56 56 56 56 56 56 57 56 54 53 53 52 52 51 51 51 50 50 50 50 50 51 51 51 51 49 51
45 44 45 44 45 46 47 47 48 48 49 50 50 51 52 53 53 53 53 53 53 53 53 53 52 50 49 48 48 47 46 47 47 47 47 48 49 49 49 49 49 50 48
43 44 43 43 44 44 45 45 47 47 48 48 49 49 50 51 51 50 50 50 49 49 49 49 48 47 46 46 46 46 46 45 45 45 46 47 48 48 47 46 46 45 44
42 42 42 42 43 43 44 45 46 46 46 46 47 48 49 49 49 49 49 48 48 48 48 47 46 46 46 45 45 45 45 45 45 46 46 46 45 45 46 45 44 44 43
40 41 41 41 41 41 42 43 44 45 45 45 46 47 48 48 47 47 46 46 46 46 46 46 46 45 46 46 46 46 46 45 46 45 44 44 44 45 45 45 45 44 42
39 39 40 40 41 42 42 42 43 44 44 44 45 46 46 46 46 46 45 45 44 44 44 44 44 44 46 47 48 46 45 43 42 41 40 40 41 40 40 42 42 43 42
38 39 40 40 41 42 42 42 42 43 43 44 44 45 45 45 45 44 44 43 43 43 42 42 42 43 43 47 47 47 43 39 37 37 37 37 36 37 37 36 38 38 39
39 39 40 40 40 40 41 40 41 41 42 42 43 44 44 43 43 43 42 42 41 40 40 40 40 40 41 45 46 43 37 37 37 39 39 39 37 39 41 37 36 37 37
39 38 39 39 39 41 40 39 40 40 40 42 42 43 43 42 42 43 40 40 40 38 39 37 37 40 39 43 45 42 39 36 37 38 38 40 38 40 42 38 37 35 36
38 39 38 38 38 39 39 38 38 38 41 42 42 42 42 42 42 41 40 39 39 38 36 36 36 37 39 41 45 44 39 39 36 37 36 36 41 41 43 39 37 37 38
36 37 36 36 38 38 37 37 36 39 40 41 41 41 41 41 41 40 38 38 38 37 36 37 38 39 40 42 43 45 42 41 37 37 38 37 40 42 42 40 38 39 37
35 36 35 35 36 36 36 35 37 40 40 39 40 42 40 39 39 39 39 38 38 37 37 36 37 37 37 39 43 44 45 42 36 37 38 37 40 41 42 41 40 40 35
35 36 35 34 33 35 35 36 38 40 40 39 40 41 40 40 39 38 38 38 37 37 36 35 36 36 36 37 37 40 42 43 39 38 38 39 39 40 39 39 40 36 36
35 36 34 33 34 34 34 36 37 38 39 38 37 39 40 40 39 36 37 38 40 40 37 37 37 36 35 36 39 39 37 38 38 35 35 36 35 35 35 35 35 35 35
34 33 33 33 34 34 34 35 36 36 37 35 36 36 37 39 39 37 36 41 41 42 42 42 40 38 41 41 41 41 41 41 41 33 33 33 34 33 33 33 33 33 33

GFSMW_sfc_temp_084.txt.gz
Temp
56 59 60 62 67 68 72 74 73 69 69 69 69 70 70 72 72 72 74 76 76 77 77 78 79 78 77 77 78 77 76 75 77 74 71 78 80 80 81 81 81 80 79
55 57 57 59 60 64 67 71 68 68 69 66 68 69 69 71 72 73 74 75 74 76 75 75 77 77 74 77 76 75 74 76 76 71 72 69 75 78 78 80 78 78 78
56 54 56 57 59 61 62 64 67 65 65 66 67 67 66 68 70 71 71 72 72 69 71 72 69 68 68 71 73 75 74 70 70 70 72 67 67 72 77 75 76 75 76
60 58 56 54 59 60 62 63 64 64 65 65 65 65 64 62 65 66 69 69 70 70 67 67 66 65 65 64 64 65 65 69 68 67 71 74 73 67 66 72 73 74 73
56 57 58 57 57 60 63 64 64 66 66 67 66 64 63 63 64 63 64 67 65 67 65 64 64 64 64 63 62 63 62 62 61 62 63 70 69 67 64 63 66 70 72
56 53 58 60 58 59 61 63 64 66 67 66 66 64 63 62 60 61 62 62 64 64 64 64 64 64 63 62 61 61 59 60 60 61 61 62 64 64 61 61 65 64 67
52 53 53 55 55 57 60 62 65 64 66 66 68 67 67 65 63 63 64 64 63 63 63 64 63 63 64 65 63 61 60 61 60 62 62 63 64 66 62 61 62 60 65
51 47 52 55 57 58 60 62 64 62 64 64 63 64 66 66 66 67 67 66 65 65 66 64 64 65 66 65 64 62 62 61 61 61 61 62 62 63 63 62 60 57 59
49 47 52 54 57 59 59 61 63 63 62 63 64 64 65 66 66 66 67 66 67 66 65 64 65 64 63 62 62 60 57 58 57 59 59 59 59 59 60 60 60 57 54
50 48 50 54 57 58 60 61 62 62 61 62 63 62 63 63 65 65 64 66 68 67 67 64 64 62 62 63 62 59 58 58 59 58 59 59 60 60 60 59 59 58 57
47 51 52 55 57 58 58 59 60 61 61 62 62 62 62 62 63 64 64 63 64 64 63 63 61 61 62 62 61 59 57 57 58 57 58 58 59 59 59 58 56 54 56
49 52 53 55 56 56 57 57 57 58 58 61 62 62 61 61 62 62 61 63 64 63 62 61 60 60 60 60 58 56 56 57 56 56 56 56 56 57 58 57 55 55 56
51 53 54 53 54 55 55 56 57 56 58 58 60 61 62 61 61 60 60 60 59 60 61 60 59 58 57 58 58 56 55 55 56 55 54 55 55 55 55 55 54 53 51
51 51 53 53 54 53 54 54 55 56 55 56 58 58 59 59 60 60 59 59 59 58 58 58 57 56 56 56 55 55 54 54 54 52 53 54 54 55 55 53 53 52 50
50 50 50 51 52 52 53 53 53 54 54 54 55 55 57 58 58 58 58 57 57 57 57 56 55 53 53 53 53 52 53 52 52 51 52 52 51 47 51 51 51 49 47
48 49 50 50 50 50 50 51 51 51 52 53 53 54 55 56 55 56 57 56 55 55 55 54 54 53 52 48 49 52 53 53 52 51 51 50 45 47 47 47 46 48 46
47 47 48 49 49 50 49 48 49 51 51 51 52 52 53 52 53 54 54 53 53 53 52 53 53 51 53 48 48 48 51 50 49 48 47 47 47 45 47 45 45 44 43
46 47 48 48 49 50 49 49 49 50 49 50 51 51 50 50 51 52 52 52 52 51 50 50 51 51 51 48 48 47 49 45 40 40 41 44 42 42 42 41 40 43 45
46 47 48 47 48 48 48 48 48 48 48 48 48 49 49 48 49 49 50 52 50 49 49 50 49 48 48 47 47 47 43 41 39 40 45 46 45 42 42 40 39 43 43
46 46 46 47 47 47 47 46 46 46 46 46 46 48 48 48 47 48 48 49 49 47 47 44 45 47 47 46 47 46 44 39 40 45 46 42 43 42 42 41 43 41 42
44 46 46 45 45 46 45 43 44 43 44 44 46 47 48 48 48 47 47 45 46 45 44 42 40 45 46 48 46 46 44 42 40 41 42 44 42 42 43 42 44 42 44
43 44 43 43 45 44 43 42 42 44 45 45 44 45 46 47 46 46 46 43 45 44 43 42 41 41 46 45 45 46 45 44 41 41 43 44 42 42 42 43 42 40 41
43 44 43 43 45 44 43 41 43 44 44 44 43 43 46 47 47 45 45 42 43 43 41 39 40 41 43 44 44 45 46 44 42 45 44 43 41 42 42 43 40 40 40
42 43 42 42 42 44 44 44 44 44 43 43 43 43 43 42 46 43 42 40 39 39 38 36 37 39 38 38 39 43 45 45 42 40 40 41 41 42 43 43 41 41 41
41 41 41 40 41 43 43 44 43 43 41 42 42 42 42 41 40 42 40 39 41 41 39 38 38 37 36 38 41 40 40 41 40 38 38 38 40 39 40 41 42 42 40
41 40 40 40 40 41 41 43 43 42 40 39 40 41 40 41 38 37 39 43 42 42 42 43 41 40 43 43 42 42 42 43 42 34 34 35 36 36 39 38 39 39 38

GFSMW_sfc_temp_087.txt.gz
Temp
65 64 70 70 69 67 67 70 71 67 65 65 65 67 69 73 74 76 75 75 76 76 77 77 78 77 75 77 77 77 76 75 77 74 74 76 79 80 80 81 80 79 79
61 59 61 61 59 60 62 66 67 66 66 66 67 68 70 70 71 72 74 75 75 75 75 75 76 75 74 76 75 75 74 74 75 71 71 66 70 77 78 78 78 77 77
60 57 58 57 58 58 61 64 66 66 65 65 65 64 67 68 67 70 70 72 74 72 73 73 71 70 69 69 70 69 73 69 71 72 69 66 65 70 75 75 75 75 75
60 58 58 57 57 58 60 62 63 63 64 64 63 63 62 62 66 67 69 70 71 71 69 68 70 68 67 65 64 65 66 68 66 67 69 70 69 66 65 71 72 73 73
57 56 56 58 59 59 59 60 61 62 63 63 63 62 62 63 64 63 65 66 66 66 67 67 66 65 65 64 64 63 62 62 60 60 59 60 61 63 62 62 65 68 70
53 53 56 58 57 55 56 56 59 60 62 63 63 62 62 61 61 62 62 62 63 64 64 64 64 65 64 63 62 61 60 60 60 60 59 58 57 57 57 57 62 63 66
51 49 52 55 54 54 57 58 60 58 60 62 64 63 63 63 62 62 62 63 63 63 63 64 63 64 64 63 62 61 61 61 59 59 59 60 61 63 61 60 60 59 63
48 48 51 53 53 54 59 61 62 61 63 61 63 64 64 64 64 65 64 65 66 66 67 65 64 64 63 62 62 61 61 61 60 61 62 61 61 61 61 60 58 56 58
47 48 49 54 55 56 59 61 62 62 62 62 64 62 64 66 66 65 66 66 67 67 68 67 65 65 63 62 62 60 61 61 61 60 59 58 58 59 59 59 59 56 51
47 47 48 49 55 58 60 61 62 61 61 62 62 62 63 64 65 65 66 67 67 67 64 64 65 63 62 61 61 59 59 59 58 59 58 57 58 57 57 57 57 57 55
46 49 48 49 53 57 59 60 60 59 60 61 63 62 62 63 64 65 66 66 67 67 65 64 62 61 60 61 60 60 59 59 58 58 58 57 58 57 57 57 56 55 55
47 49 54 56 56 57 58 59 59 58 59 60 61 61 63 62 63 63 63 64 64 64 64 64 61 60 59 61 61 60 59 59 57 57 56 57 58 57 58 57 55 54 55
53 54 55 55 55 56 56 57 57 57 58 59 60 61 61 61 62 62 62 62 61 62 62 61 59 59 59 60 61 58 57 57 57 57 55 55 55 54 54 54 54 53 53
53 53 54 54 55 55 55 55 56 57 57 57 58 58 58 59 60 61 60 60 60 59 60 60 60 58 57 57 56 55 55 55 55 54 54 54 53 53 54 52 53 52 49
52 52 52 53 54 54 54 55 55 55 55 56 56 56 57 58 58 59 59 59 58 58 59 58 57 55 54 54 53 53 53 52 52 52 52 52 51 49 51 52 52 50 47
51 52 52 52 52 52 52 52 52 53 54 54 55 55 56 56 56 57 58 58 57 57 56 55 55 53 53 51 52 53 52 52 52 50 50 50 46 47 48 48 47 50 46
50 50 51 51 51 51 51 50 50 52 52 52 53 53 54 53 53 54 55 56 56 56 54 54 54 53 53 49 50 50 52 50 49 47 47 47 48 46 46 46 46 45 45
50 50 50 50 51 52 51 50 51 51 51 51 51 52 51 50 51 52 52 53 54 54 53 52 53 52 52 48 48 48 49 47 43 42 43 44 42 42 44 42 40 41 43
50 50 51 50 51 51 50 49 49 49 49 49 48 49 49 49 49 49 49 51 51 51 51 51 51 50 50 47 47 46 43 40 39 41 42 45 45 45 45 41 38 41 41
50 48 49 50 50 50 50 47 47 47 46 46 45 47 48 48 46 47 47 47 48 49 49 47 47 49 48 47 47 47 45 41 41 42 44 45 46 46 44 41 40 38 38
48 48 49 48 48 48 47 44 45 44 46 46 47 46 47 46 47 46 46 45 45 45 46 45 44 46 47 48 47 47 46 42 40 42 43 44 44 45 44 43 41 40 41
47 48 46 46 47 48 45 43 43 47 46 46 46 46 46 47 47 46 46 45 43 43 43 43 43 44 47 47 46 47 47 46 41 39 41 42 44 43 44 43 43 43 43
47 48 46 46 47 48 47 43 45 47 46 45 45 46 46 46 46 44 45 43 43 41 42 42 42 41 43 46 46 47 47 46 42 42 43 44 43 43 42 43 43 42 36
46 46 45 44 44 47 47 47 47 47 45 43 44 45 44 44 45 45 44 42 40 39 39 38 37 40 40 41 41 43 45 45 43 42 40 42 41 42 40 40 40 37 37
44 44 43 42 43 45 45 46 46 46 43 43 43 43 44 43 43 43 42 40 42 41 39 39 39 38 37 38 41 41 40 41 42 39 36 37 37 36 37 38 37 38 37
43 42 42 42 42 43 43 44 45 45 43 41 41 42 41 41 41 41 41 42 41 42 42 42 41 41 43 44 42 42 43 43 43 35 34 34 36 36 36 37 37 37 38

GFSMW_sfc_temp_090.txt.gz
Temp
58 60 62 63 62 62 62 64 64 67 64 63 63 64 65 66 68 70 71 71 70 73 71 71 70 69 69 69 70 69 68 67 67 64 65 66 71 72 70 70 69 69 69
55 57 59 57 57 59 61 62 64 65 63 64 65 65 65 67 66 67 69 70 69 70 70 69 69 70 69 68 70 68 66 67 67 63 63 59 62 66 69 68 69 66 66
56 57 58 56 56 58 59 61 63 64 64 64 64 63 63 64 65 66 65 66 70 69 69 69 67 67 65 65 65 65 64 64 64 65 62 57 56 59 67 64 65 65 63
53 54 57 55 56 57 59 61 61 62 63 63 62 62 62 60 62 63 64 66 68 67 67 67 67 65 64 63 62 63 62 62 61 62 64 61 60 59 57 61 62 63 64
52 53 56 58 58 57 57 59 61 61 62 62 62 61 60 61 61 61 61 62 64 65 65 65 65 64 63 63 62 62 62 62 60 60 59 58 58 58 57 55 57 60 61
51 50 55 56 55 55 54 56 56 59 60 61 62 61 60 60 60 60 60 61 62 62 63 64 64 64 64 63 62 62 62 61 61 60 59 57 56 55 55 54 55 56 59
48 49 48 50 52 52 53 55 56 56 58 59 60 61 60 60 59 58 60 60 61 61 62 62 63 63 63 63 62 61 60 60 60 59 59 58 57 58 57 56 54 55 57
46 47 47 49 50 51 53 57 56 54 56 56 57 60 61 61 61 60 60 61 61 62 63 62 62 63 62 63 62 61 60 60 59 58 59 58 59 59 58 57 55 52 53
44 45 46 47 50 51 53 55 56 55 57 57 57 58 61 61 61 62 63 63 62 63 63 62 62 61 62 62 62 61 60 59 59 59 59 58 57 57 57 57 56 53 48
45 46 46 47 50 52 55 57 56 56 57 58 58 58 58 59 59 59 61 62 63 63 63 62 63 62 62 63 61 61 60 59 58 57 56 55 55 55 55 54 54 53 51
45 46 46 48 51 54 54 54 54 54 54 55 56 56 57 57 58 58 59 60 60 61 61 61 60 61 63 62 60 59 57 57 56 54 55 54 54 52 52 53 52 51 51
44 45 48 48 50 52 52 52 53 52 52 54 55 55 56 56 56 56 57 58 57 58 59 61 60 60 59 59 59 57 57 56 55 54 53 53 55 52 52 51 50 50 50
46 50 50 50 50 50 50 50 50 50 51 52 53 53 53 53 53 54 55 56 55 55 56 57 58 57 56 57 57 57 56 55 53 53 52 52 51 50 49 50 49 48 50
48 48 48 48 49 49 49 49 49 49 49 50 51 50 50 51 51 53 53 54 54 53 53 54 56 56 55 55 55 54 53 52 51 51 51 51 50 49 49 48 48 48 46
46 46 46 45 46 47 47 47 47 48 48 48 48 48 49 50 50 50 51 52 52 52 52 52 52 53 53 53 52 52 51 51 50 50 50 50 50 50 50 48 47 47 46
46 47 47 46 46 45 45 46 45 46 48 47 47 49 49 48 48 48 48 49 50 50 50 49 49 48 51 52 52 51 50 50 50 48 48 47 46 48 49 49 49 48 46
46 45 45 44 44 44 45 43 44 46 46 46 47 47 47 46 46 47 47 46 46 48 47 47 48 47 47 51 51 51 49 48 47 45 45 45 46 44 43 47 47 47 47
45 44 43 43 44 45 44 44 44 44 44 44 44 45 44 44 44 44 43 44 44 45 46 46 46 46 47 50 50 50 44 43 41 40 41 41 39 40 42 40 37 37 38
42 43 43 43 43 43 43 42 42 42 42 42 42 42 43 42 42 44 45 46 45 45 47 46 45 44 44 48 48 46 39 38 39 40 41 41 40 44 46 40 35 36 37
43 42 42 43 42 42 41 39 39 39 39 40 41 42 42 41 41 44 43 44 45 44 45 45 45 45 44 47 47 45 40 39 39 40 41 44 42 46 46 37 35 33 35
41 42 41 40 41 41 40 38 38 37 40 41 41 41 41 40 39 39 40 43 43 43 42 43 43 44 45 45 48 47 42 41 39 38 38 41 46 47 45 43 37 36 38
41 42 39 39 41 41 39 37 36 39 41 40 40 39 39 40 41 37 37 38 43 42 42 42 43 44 45 47 47 47 47 44 39 38 39 40 45 45 45 44 43 44 42
41 41 39 38 39 39 39 37 38 40 40 38 37 37 38 39 38 36 35 35 40 40 40 39 40 41 42 44 47 47 47 46 41 41 41 42 44 44 43 44 43 44 35
39 39 37 36 36 37 38 38 39 40 39 36 36 36 36 37 36 37 36 34 33 36 38 38 37 39 40 39 40 44 45 46 44 42 41 42 42 42 41 41 41 35 34
38 38 36 35 36 36 37 37 39 38 36 36 35 35 36 35 34 34 34 34 34 35 37 37 38 38 37 39 42 42 41 43 42 39 36 36 36 36 36 36 36 35 34
37 35 35 35 35 35 36 37 38 37 35 35 35 34 34 33 33 32 33 40 41 41 41 41 40 40 42 43 43 43 43 44 44 37 36 34 35 35 35 35 34 35 35

GFSMW_sfc_temp_093.txt.gz
Temp
60 57 58 61 60 59 60 61 61 62 63 62 62 62 63 65 66 67 68 70 70 71 69 68 68 68 68 68 68 67 66 64 66 64 64 64 67 66 70 67 68 70 68
53 56 55 55 58 58 59 61 61 62 63 63 63 63 64 64 67 68 69 70 72 70 70 68 68 67 67 68 68 66 64 65 65 63 61 58 62 64 67 69 69 65 65
52 54 55 54 54 55 57 59 62 62 63 63 63 62 63 64 65 67 68 69 70 70 70 66 67 65 65 64 64 65 64 62 63 63 62 56 56 59 62 64 64 63 62
51 52 53 56 55 54 56 58 60 62 63 63 62 61 60 60 62 62 63 65 70 67 65 65 65 65 64 63 63 63 62 62 60 62 63 61 60 57 56 60 62 61 61
48 50 52 58 58 56 54 58 60 60 61 62 63 61 60 61 61 61 61 62 62 64 67 66 64 63 63 63 63 62 61 61 60 60 59 58 58 57 55 55 56 61 61
47 47 52 54 54 55 53 56 57 58 60 60 61 61 60 60 60 60 60 60 61 61 62 63 63 63 63 62 62 62 62 62 61 60 59 57 56 56 54 53 54 55 58
46 46 49 50 51 52 52 56 55 55 57 59 59 60 60 60 60 59 59 60 60 60 61 61 61 62 63 62 61 61 61 61 61 60 60 59 58 58 57 56 54 53 56
46 46 48 49 50 52 53 54 54 54 55 55 55 57 60 60 59 58 59 60 61 61 62 62 61 62 63 62 61 61 60 60 60 60 59 59 59 58 57 56 54 51 52
44 45 46 47 49 50 51 53 55 54 54 55 55 54 56 60 59 60 59 59 61 61 61 61 61 62 62 61 61 60 60 60 60 59 59 59 58 58 58 57 56 55 49
44 45 46 46 48 49 50 52 54 53 54 55 55 55 55 57 57 58 59 61 62 62 62 61 61 61 61 61 61 60 60 59 59 58 58 58 57 57 56 55 55 55 53
43 44 44 46 47 50 52 53 52 51 52 53 54 54 55 56 57 56 57 57 59 59 59 60 61 61 61 61 61 60 60 59 59 58 57 57 56 55 55 54 53 52 52
43 44 45 46 49 49 49 49 49 48 50 51 52 52 53 53 53 53 54 55 54 55 56 57 58 59 60 60 60 60 59 58 57 56 56 55 55 54 54 52 51 51 51
44 46 48 48 48 48 48 47 48 48 49 49 50 49 50 50 50 51 52 53 53 53 53 54 55 56 57 57 58 59 57 57 57 56 56 55 54 53 51 51 51 50 49
45 44 44 45 46 46 46 46 46 46 46 47 47 47 47 48 48 49 50 51 51 51 51 51 52 53 54 54 55 55 54 54 53 53 54 53 53 52 50 49 49 47 46
44 43 42 42 42 43 44 45 44 45 45 45 45 45 46 47 47 47 48 48 49 49 50 50 50 50 50 51 52 52 52 51 51 51 52 52 51 50 52 49 48 47 45
43 43 43 43 42 41 42 43 43 43 44 43 44 45 45 45 44 45 45 45 45 46 47 47 48 47 49 51 51 51 50 50 50 49 49 49 48 49 51 51 50 50 46
42 42 40 41 41 41 42 41 42 43 42 42 43 43 43 43 43 43 43 43 43 43 43 44 45 45 46 50 51 51 49 48 48 46 46 45 47 47 46 49 49 49 50
41 41 40 41 41 42 42 41 41 41 41 40 40 41 41 41 41 41 41 41 45 45 44 44 46 46 46 49 50 50 44 44 44 43 43 44 42 42 43 41 39 40 41
40 41 40 40 40 40 40 39 39 39 38 39 39 39 39 39 39 39 38 40 42 43 44 45 45 45 46 47 49 47 40 39 39 40 43 44 43 45 46 40 35 35 37
41 40 40 40 38 38 38 38 37 37 37 39 39 39 39 38 37 37 37 38 39 42 44 43 44 45 44 47 47 47 42 39 40 41 40 44 41 45 46 38 36 34 33
40 41 40 38 38 39 39 37 36 34 37 38 39 39 38 37 36 35 35 35 35 38 38 42 42 43 44 45 47 48 43 42 40 40 40 41 45 46 46 43 37 36 36
40 40 37 37 38 38 37 36 34 38 38 38 37 36 35 37 39 34 33 33 33 34 35 40 41 43 45 46 46 47 47 45 41 39 40 40 43 45 45 44 41 43 40
38 38 36 36 36 36 35 34 35 36 36 35 35 35 35 35 35 32 32 31 32 32 33 35 37 39 42 43 45 46 47 47 42 43 42 42 43 45 45 45 43 44 35
37 37 35 34 33 34 34 34 35 36 35 33 33 33 32 33 33 34 33 31 30 30 31 31 32 34 37 39 40 42 43 45 45 42 40 42 43 44 43 42 42 38 36
36 35 34 32 33 33 33 34 35 35 33 33 33 33 34 32 31 31 31 31 31 32 34 36 36 35 34 37 42 42 40 41 43 39 37 37 37 37 37 37 38 36 35
34 33 33 32 32 32 33 33 34 34 32 33 33 33 32 31 30 29 29 36 38 39 40 40 39 39 40 41 41 41 42 43 43 39 36 36 36 35 36 35 35 35 36

GFSMW_sfc_temp_096.txt.gz
Temp
55 54 58 59 59 58 59 60 60 61 61 61 61 61 62 63 64 66 68 68 68 69 68 69 68 67 68 68 68 64 63 63 64 62 62 62 65 66 66 68 67 68 66
49 54 55 56 57 57 59 59 60 61 61 61 60 61 63 63 65 65 68 69 68 68 68 68 68 68 67 66 66 66 62 63 62 60 59 58 61 63 66 64 66 67 66
51 52 53 53 54 55 57 58 59 60 60 61 60 60 61 62 61 63 63 67 68 68 68 67 67 65 66 65 64 64 63 62 61 63 61 55 56 59 61 61 63 63 63
47 49 52 52 53 53 56 60 60 61 60 60 60 59 59 59 61 61 63 64 67 67 66 67 67 66 66 65 65 65 64 62 60 60 61 61 59 55 55 59 59 61 62
47 51 53 53 56 56 55 57 57 59 61 62 62 60 60 60 61 61 62 62 62 65 65 65 63 62 61 62 62 61 61 62 61 60 59 58 58 58 56 53 56 59 60
47 48 52 54 53 55 55 56 58 58 60 60 60 61 59 59 60 60 60 60 61 61 64 64 63 64 62 62 61 61 60 61 60 62 61 60 58 57 55 53 54 56 57
47 48 48 50 51 52 54 56 54 54 57 57 58 59 60 60 60 61 60 59 60 60 60 61 62 62 62 62 62 61 61 61 61 60 60 59 60 58 60 57 54 53 54
46 46 47 48 49 50 52 54 54 53 55 54 54 56 57 60 59 59 60 60 60 60 61 61 61 61 62 62 62 61 61 61 61 61 59 59 58 57 58 58 56 51 52
45 45 46 47 48 49 50 52 52 52 53 53 54 53 55 57 59 59 59 59 60 60 60 60 60 61 61 62 62 61 60 60 60 60 60 59 58 58 58 58 59 57 49
44 44 44 44 46 47 47 48 50 51 51 52 52 52 52 54 55 57 57 58 59 60 60 60 60 60 61 61 61 60 60 59 59 59 59 59 59 58 57 56 55 55 52
43 43 43 44 45 46 46 47 48 49 50 52 52 51 50 52 53 54 54 54 56 57 57 58 59 60 60 60 60 60 60 59 59 58 58 58 57 57 56 55 54 53 52
42 43 43 44 44 44 46 48 49 49 49 50 50 50 51 51 51 51 52 53 53 54 53 54 56 58 59 60 60 60 60 59 58 58 57 57 56 56 56 55 54 54 52
43 43 44 46 46 46 46 46 47 46 47 48 47 46 47 48 47 48 49 50 50 51 51 52 53 53 55 57 58 59 59 59 59 59 57 58 55 55 54 54 53 51 50
44 43 43 42 42 44 44 44 44 45 45 45 45 45 44 45 46 47 47 48 48 48 48 49 50 51 51 52 53 55 55 56 57 57 57 57 56 56 54 53 52 50 48
41 40 40 39 39 40 41 42 42 42 43 43 42 42 43 44 44 44 45 45 45 45 46 47 47 48 48 50 50 52 52 52 52 52 53 53 53 51 53 52 50 49 48
40 40 41 40 39 39 40 41 40 41 42 41 41 42 42 43 42 42 42 42 42 42 43 44 44 44 47 50 50 50 50 51 50 50 50 51 48 50 51 51 51 51 48
39 39 38 38 38 39 40 39 39 40 40 39 40 40 40 40 40 40 40 40 39 40 40 41 42 43 44 49 50 50 47 48 48 47 47 47 47 48 49 50 50 50 51
39 39 38 38 39 38 39 39 39 38 38 38 38 39 38 38 38 38 37 37 38 39 40 40 42 43 46 48 49 49 45 43 43 44 45 45 44 44 45 44 43 45 46
38 39 38 38 37 37 38 37 37 37 36 37 37 38 37 36 36 36 35 36 36 37 38 40 40 41 44 46 47 47 43 40 40 40 42 45 44 46 47 42 39 39 40
39 39 38 38 37 37 36 36 36 35 35 36 37 37 37 36 35 35 35 35 35 36 38 38 38 43 42 45 46 46 43 41 40 41 39 45 45 46 47 41 40 37 37
39 39 37 36 36 36 35 34 34 32 35 36 36 36 36 34 34 33 33 33 32 33 32 35 35 37 42 44 46 46 44 42 41 41 40 41 45 46 47 44 40 40 37
39 39 36 36 36 36 34 33 33 35 36 36 35 34 33 35 36 31 31 31 30 30 30 31 32 35 37 43 44 45 45 45 42 40 41 42 44 45 45 45 43 43 40
36 37 35 34 34 34 33 31 33 34 34 33 33 35 36 35 32 30 30 29 29 29 30 30 30 32 35 36 41 43 44 44 42 43 43 43 43 43 44 45 43 43 35
35 35 33 32 31 32 32 31 32 33 32 30 31 33 32 34 33 31 31 29 28 28 31 30 31 31 32 35 34 38 40 42 42 42 42 42 42 43 43 43 42 39 35
33 33 31 31 31 31 31 32 32 32 30 30 31 32 33 32 32 31 30 30 30 30 30 31 32 34 34 36 39 39 38 39 41 41 36 37 37 37 38 38 39 37 36
32 30 31 30 30 30 30 31 32 31 30 31 32 32 33 33 32 30 29 35 37 38 38 39 38 38 39 40 39 39 40 40 42 39 35 35 36 37 37 36 36 36 36

GFSMW_sfc_temp_099.txt.gz
Temp
51 51 53 54 55 56 58 60 60 60 60 59 61 62 61 61 61 63 65 65 66 68 68 68 67 67 66 66 65 65 62 62 62 61 61 61 63 63 64 66 66 65 65
46 50 52 53 55 56 57 59 61 60 60 60 60 61 61 63 61 63 65 67 66 66 66 66 66 65 65 66 66 65 62 64 62 60 58 57 60 62 64 64 64 64 64
46 48 51 52 55 56 57 58 59 60 60 60 60 59 59 60 60 62 63 65 66 66 65 65 65 64 65 64 64 64 65 63 60 61 59 54 55 58 60 60 61 63 62
46 48 52 53 54 55 58 60 60 60 60 60 60 59 58 58 59 62 63 64 65 65 65 65 65 64 64 63 63 63 64 63 60 58 60 60 59 56 55 57 58 60 60
48 51 52 55 54 54 54 55 57 60 60 61 59 60 60 61 59 59 60 62 63 63 64 63 63 63 62 63 62 62 62 62 60 60 58 57 57 57 55 53 54 57 58
48 49 50 53 53 54 52 55 55 55 57 58 58 60 60 60 60 60 60 60 62 62 63 63 63 62 61 60 60 60 60 61 60 60 58 58 57 56 55 54 54 55 56
47 47 47 48 50 52 52 55 53 51 54 55 56 56 56 58 60 60 60 60 61 60 61 62 62 62 62 61 61 60 60 60 60 60 60 60 59 58 59 58 56 53 54
46 46 46 47 47 48 50 52 52 52 51 52 54 55 55 57 60 59 60 61 60 61 61 62 62 62 62 62 60 60 60 60 60 60 60 60 60 59 59 60 57 51 50
44 43 44 45 45 46 47 48 50 51 51 52 53 52 53 54 54 56 58 58 59 60 60 60 60 60 61 61 60 60 60 60 60 61 60 60 60 60 60 60 60 59 53
43 43 43 44 45 45 46 47 48 48 50 51 51 50 50 51 52 53 52 54 55 57 59 59 59 59 60 60 60 60 60 60 60 60 59 60 60 59 58 58 58 56 57
42 42 43 44 44 45 45 45 46 47 48 49 50 50 50 50 50 50 50 51 53 54 54 55 57 58 59 60 60 60 60 59 59 59 59 59 59 58 58 58 56 54 53
42 43 43 43 43 43 44 44 45 47 48 49 48 48 49 49 49 49 49 50 50 52 52 53 54 55 56 58 59 59 59 59 58 58 58 58 57 57 57 56 54 53 51
42 42 42 42 42 43 43 44 45 45 46 47 46 45 45 46 46 46 47 48 47 48 49 49 50 51 52 52 54 56 58 59 59 59 58 59 57 57 57 56 55 55 52
43 43 41 41 41 43 42 43 42 44 44 44 43 42 42 43 44 45 45 45 45 45 45 46 47 48 48 49 50 51 52 54 55 57 58 58 57 57 56 55 55 54 52
39 39 38 36 37 38 39 40 41 41 42 41 41 41 41 42 42 42 42 43 43 43 43 43 43 44 46 48 48 48 49 50 52 53 53 54 54 52 56 55 55 53 51
39 39 38 38 37 37 37 38 38 39 39 39 39 40 39 39 39 39 39 40 40 41 42 42 42 42 45 48 49 49 46 47 49 50 51 52 49 50 51 52 52 53 51
39 37 36 36 36 36 38 37 37 37 37 37 38 38 38 37 37 37 37 36 36 37 37 39 40 41 42 47 48 48 47 44 45 46 47 48 48 48 49 50 50 50 51
38 38 36 36 36 36 37 37 37 36 36 36 36 37 37 36 36 35 35 34 35 35 35 36 38 38 42 46 46 47 44 44 43 42 43 45 45 45 46 46 45 47 48
37 37 36 36 35 35 36 35 36 35 35 35 35 36 36 35 35 34 33 33 33 33 34 36 36 36 37 44 46 45 42 41 41 43 43 44 45 47 48 44 42 42 42
38 37 36 36 35 35 34 34 33 33 33 34 34 35 35 34 33 32 32 32 32 34 34 34 34 37 35 41 45 45 43 42 43 44 42 44 44 46 47 44 42 40 40
36 36 34 34 34 33 33 32 31 32 33 34 34 33 33 32 32 31 31 30 29 30 30 31 31 32 35 35 43 44 43 41 41 42 42 42 45 46 46 47 42 42 39
35 35 34 34 34 33 32 30 30 32 32 32 32 32 32 33 34 29 28 28 28 27 28 28 30 33 32 38 40 42 42 43 40 40 42 43 44 44 45 46 44 45 41
34 34 32 32 32 31 30 29 31 31 31 30 30 30 32 33 33 31 29 29 28 27 28 30 29 31 32 32 39 40 41 41 40 41 42 43 44 44 44 45 45 44 36
32 32 31 30 29 30 30 29 30 30 29 27 27 28 27 31 32 32 32 30 29 26 30 29 29 29 32 31 31 35 38 39 39 40 39 41 42 43 43 43 44 40 36
31 31 29 29 29 29 29 29 29 29 28 27 28 28 29 29 30 31 30 31 30 29 28 30 30 33 31 35 39 38 36 36 38 38 36 36 36 37 37 38 39 38 36
28 28 28 28 27 27 27 28 29 28 26 28 28 28 30 29 30 30 30 36 37 39 39 39 36 35 38 40 40 39 39 39 39 35 34 35 35 35 36 36 37 36 36

GFSMW_sfc_temp_102.txt.gz
Temp
50 49 50 51 51 53 56 56 58 59 59 60 61 61 60 59 59 60 62 63 63 64 65 65 63 64 63 65 65 64 62 59 61 58 59 60 60 61 64 64 64 65 65
44 48 48 49 49 51 54 57 59 60 60 59 59 60 59 60 60 61 62 63 63 63 64 65 64 65 64 65 64 65 63 63 62 58 58 56 59 61 65 64 65 64 64
43 45 48 49 50 52 54 56 58 59 60 59 59 59 59 60 59 60 61 62 63 64 65 65 65 63 64 65 63 63 63 62 61 63 58 53 53 56 59 61 64 62 62
42 44 49 51 54 57 59 58 58 59 59 61 60 59 58 58 58 59 60 61 63 64 64 64 64 64 63 62 63 63 63 63 59 57 59 58 58 55 54 57 58 60 61
48 47 52 54 54 55 54 56 59 58 60 61 61 60 59 60 60 59 58 59 60 62 63 64 64 63 63 63 63 62 61 62 62 59 57 57 56 57 55 54 55 56 57
47 48 49 51 52 54 53 52 55 55 55 59 58 57 57 59 60 59 59 61 60 61 62 63 63 63 63 63 62 62 62 62 61 59 58 59 60 58 55 53 53 54 55
46 46 46 46 48 49 51 54 51 51 53 53 55 55 55 56 58 60 60 60 60 61 61 62 62 62 63 62 62 61 60 60 60 59 59 59 59 58 58 56 54 54 55
44 44 44 45 45 47 48 50 51 50 52 53 53 53 54 54 55 55 58 59 59 60 62 62 62 62 62 62 61 60 60 60 60 60 60 61 60 59 58 58 56 53 52
43 43 44 44 45 45 45 47 48 50 50 51 51 51 51 51 52 53 53 54 55 56 57 60 60 60 61 62 61 61 59 60 60 60 60 59 60 59 60 59 59 57 54
42 43 43 44 44 45 45 47 47 47 48 49 50 50 49 50 50 50 50 51 52 53 53 54 56 58 59 60 60 60 60 59 60 59 59 59 60 60 60 59 59 59 58
42 42 43 44 44 45 45 45 46 46 46 48 49 48 48 48 48 48 48 49 50 51 51 52 53 54 55 56 58 59 59 59 59 59 59 59 60 59 59 58 58 57 57
42 43 43 43 43 43 44 43 44 45 47 47 47 47 47 47 47 46 47 48 47 49 49 50 50 51 52 53 54 54 56 58 58 58 58 58 59 58 59 58 57 56 56
43 43 43 42 42 42 42 42 42 43 44 45 45 45 44 44 44 45 45 46 46 46 46 46 46 47 48 49 50 51 51 53 54 57 58 58 58 57 57 57 56 55 53
42 42 41 41 41 42 42 43 43 43 43 43 43 41 40 41 42 42 43 44 44 43 43 44 44 44 45 47 47 48 48 49 50 52 53 55 56 57 57 57 56 55 53
37 37 36 35 36 36 38 40 39 39 41 41 40 38 40 40 40 40 39 40 40 40 41 41 41 43 44 46 45 46 46 46 47 49 50 52 51 49 52 55 56 55 54
38 37 36 35 35 35 35 37 36 36 37 36 37 38 38 38 36 37 38 38 38 37 38 39 39 39 43 46 47 47 44 45 45 45 47 48 48 50 51 51 51 53 53
38 37 35 36 35 34 36 35 35 35 35 35 36 36 35 35 35 35 34 34 33 34 34 35 36 37 38 45 46 47 45 43 43 42 43 44 47 47 48 49 50 50 51
38 37 36 35 35 34 35 35 35 34 34 34 34 35 35 34 34 34 33 32 32 32 32 33 34 35 38 43 44 45 42 42 42 40 41 43 44 45 46 46 45 47 49
37 36 35 35 34 34 33 34 34 33 33 33 33 33 33 32 32 32 31 31 31 31 31 33 33 32 33 41 43 42 38 40 42 45 42 41 42 46 47 45 43 44 45
37 36 35 35 34 33 33 32 32 31 31 31 32 32 32 31 29 29 28 29 30 30 31 31 31 34 32 38 42 41 38 36 39 42 44 46 44 46 47 44 43 42 42
36 36 33 33 33 32 31 30 30 28 31 31 31 31 30 29 29 28 29 28 30 30 28 29 29 30 31 32 40 42 37 35 36 38 40 42 45 45 45 46 44 43 43
35 34 32 32 31 31 29 29 27 29 30 30 30 29 29 30 32 27 26 26 25 25 27 27 28 29 30 36 38 41 41 40 38 37 39 41 42 43 44 44 45 46 44
33 32 31 30 30 29 28 26 27 28 28 27 27 27 28 30 30 27 28 28 28 25 26 29 28 29 31 31 37 40 40 41 38 38 39 40 41 42 42 44 44 45 38
31 30 29 27 26 26 27 26 27 28 27 25 25 26 26 28 27 29 30 28 27 26 29 29 28 27 29 30 32 32 37 38 38 38 37 39 40 41 41 41 42 42 37
31 30 28 28 27 27 27 28 29 27 26 25 26 26 27 25 26 28 28 30 29 29 31 31 31 31 29 31 37 38 36 36 37 37 35 34 35 33 36 37 38 39 37
29 29 29 29 28 28 27 27 28 27 25 26 27 27 28 26 27 27 27 34 35 37 37 38 37 36 38 38 38 39 40 39 39 34 31 31 33 33 34 35 35 37 37

GFSMW_sfc_temp_105.txt.gz
Temp
53 53 54 55 56 56 56 59 61 64 62 61 62 62 62 63 64 65 66 68 67 69 69 67 66 67 66 67 67 67 64 61 62 61 61 63 67 69 71 72 72 73 74
48 50 52 53 53 54 56 57 60 61 62 63 63 64 64 65 65 65 66 66 67 68 68 67 66 66 66 67 68 68 67 63 61 59 58 59 66 66 69 71 70 71 73
46 48 49 51 52 53 55 57 61 62 61 63 63 62 63 63 63 63 64 65 67 67 67 68 68 67 66 66 65 65 65 64 62 62 60 56 60 65 68 69 71 71 71
50 50 51 53 53 55 57 59 61 62 62 62 62 61 60 59 62 63 64 65 66 66 67 67 67 67 66 65 64 64 63 63 60 58 61 63 61 62 62 63 63 67 69
49 49 49 51 53 55 57 60 60 61 61 61 62 61 59 61 62 63 63 64 64 66 66 66 66 66 66 66 65 62 62 62 61 61 60 60 62 63 61 61 62 62 64
47 47 48 49 50 52 54 54 56 56 57 58 58 57 57 57 60 61 61 62 63 64 64 65 65 66 65 65 64 64 63 62 62 62 61 61 60 61 61 58 60 60 64
45 44 45 46 47 48 50 52 52 52 55 55 55 55 55 55 55 55 59 60 62 62 62 63 63 63 65 65 64 63 63 62 61 61 61 62 62 66 64 63 62 59 61
44 43 44 44 45 46 48 49 50 50 51 52 52 52 53 52 52 52 53 53 53 54 57 57 60 61 62 63 63 62 62 62 61 61 61 61 61 60 60 63 61 58 56
43 43 44 44 44 45 45 47 48 49 50 50 50 50 50 50 49 49 50 51 52 54 54 55 56 56 58 59 61 61 60 61 60 60 61 61 62 61 61 61 60 60 55
43 43 43 43 44 45 45 46 47 47 48 49 49 49 49 49 48 48 48 49 50 50 51 52 53 53 54 54 56 58 60 59 60 60 60 60 60 60 61 60 61 60 57
42 43 43 43 44 44 44 45 45 46 46 47 46 47 47 48 47 46 46 47 48 48 49 50 50 51 51 52 52 54 54 55 58 59 59 59 60 59 60 60 61 59 58
43 43 43 43 42 42 43 43 43 45 45 45 46 45 46 47 46 46 47 47 47 49 49 50 50 50 50 51 50 51 52 51 52 52 56 58 58 58 59 59 58 58 59
44 44 44 43 42 42 43 43 43 44 46 47 45 44 45 45 44 45 46 47 47 47 47 47 47 48 47 48 49 49 49 50 51 50 51 52 53 56 58 58 57 58 57
43 44 44 43 43 43 44 44 44 45 45 45 44 43 43 43 44 44 44 44 45 44 45 45 45 45 46 47 47 48 48 48 49 50 51 51 52 52 52 54 57 57 55
41 41 41 41 40 41 42 42 42 42 42 42 42 41 42 43 41 42 42 42 42 43 43 43 43 44 45 46 46 47 46 46 46 48 49 50 49 47 50 51 51 53 54
40 41 41 40 39 39 39 39 39 39 40 40 39 40 40 40 40 40 39 40 40 40 40 40 40 41 43 44 46 46 45 45 44 43 45 47 47 49 49 49 50 50 50
40 40 40 40 39 39 39 39 39 39 39 38 39 38 38 38 38 38 38 38 37 38 38 38 39 39 40 43 44 45 44 43 43 43 43 44 46 46 47 48 48 49 50
40 40 39 39 39 39 38 38 38 37 37 37 37 37 37 37 37 37 36 37 37 37 37 37 38 38 40 42 43 44 42 41 41 42 44 45 45 46 46 46 46 47 49
40 40 39 39 38 37 37 37 37 36 36 35 35 36 36 35 35 35 34 35 35 35 35 36 36 36 37 40 41 42 40 39 39 41 43 44 46 47 47 45 43 44 46
39 38 38 37 37 36 36 36 35 34 34 35 35 35 35 34 33 34 33 34 34 34 34 34 35 36 36 38 40 41 41 38 39 40 41 43 44 45 46 43 42 40 42
38 38 37 36 35 35 35 34 33 32 34 34 34 34 34 33 32 32 32 31 31 32 31 33 34 34 36 37 39 40 40 39 38 39 39 41 41 42 43 43 42 42 44
37 36 35 34 34 34 33 32 30 32 32 32 32 32 32 32 33 30 31 31 30 31 30 31 32 36 36 37 39 40 41 41 39 37 38 39 40 40 41 41 43 43 44
35 34 33 33 32 31 30 30 31 30 30 30 30 30 31 32 32 31 30 31 31 30 30 31 31 33 36 36 38 39 39 40 39 39 39 40 40 40 40 40 41 42 41
33 33 32 31 30 29 30 30 30 30 29 28 28 30 29 32 31 31 32 30 30 29 30 31 32 33 33 34 36 36 37 38 38 38 37 38 39 40 39 39 39 40 39
32 32 30 30 29 29 29 30 30 29 28 28 29 29 30 28 29 30 30 31 32 32 32 32 33 32 32 35 38 38 37 38 38 38 36 35 34 34 35 36 37 37 36
30 30 30 30 29 29 29 29 29 28 27 28 29 28 30 29 29 29 30 34 36 37 37 37 36 35 37 39 39 39 39 39 40 36 32 32 33 32 33 33 34 34 35

GFSMW_sfc_temp_108.txt.gz
Temp
61 62 62 63 63 64 64 66 67 69 70 69 64 63 63 66 65 67 71 69 65 69 73 74 73 69 67 70 69 67 67 65 69 62 62 63 67 69 72 77 78 78 79
57 59 60 61 62 63 64 65 67 67 66 68 64 67 67 65 69 72 72 72 71 73 72 72 72 72 66 67 67 68 66 67 70 66 68 63 67 66 70 72 71 74 75
52 57 58 60 62 62 63 64 66 67 65 70 65 65 68 69 68 69 71 71 72 71 72 72 72 70 69 65 68 71 70 69 71 68 66 59 60 69 71 68 71 75 75
54 55 56 54 56 58 62 65 66 67 67 69 66 63 66 65 66 68 70 71 72 72 71 70 70 71 69 69 70 71 70 68 65 65 64 65 65 60 63 73 75 78 78
49 48 52 50 53 53 58 64 67 67 65 64 61 63 62 63 64 64 63 68 70 71 71 71 69 68 69 69 70 68 68 67 63 62 61 61 61 62 59 56 61 66 71
46 47 49 50 49 51 53 56 57 57 59 57 57 58 58 59 59 59 61 63 64 68 68 68 68 69 69 69 69 67 66 66 63 63 62 61 59 58 59 58 64 63 72
45 44 45 45 46 48 49 51 52 52 54 55 54 56 55 55 53 53 55 55 54 55 56 58 60 62 64 67 67 65 64 64 63 64 62 63 63 65 63 61 61 61 69
44 43 44 44 45 46 50 51 50 50 51 52 53 54 55 54 52 52 52 51 52 53 54 55 56 57 58 59 59 61 63 64 62 62 62 62 62 63 63 61 59 57 63
43 43 44 44 45 45 45 49 51 50 51 52 51 51 52 50 49 50 50 50 50 53 52 53 53 54 55 55 57 57 57 60 61 61 62 61 62 62 62 61 60 58 55
44 44 43 43 45 46 46 46 49 48 48 49 50 50 49 50 49 48 48 48 49 50 50 50 51 51 52 53 53 53 54 54 55 57 59 60 61 60 60 60 60 60 58
43 43 43 44 43 45 45 45 45 46 47 47 48 49 47 48 50 51 47 47 49 50 50 50 50 50 50 51 51 51 52 51 52 53 53 54 58 59 61 60 60 59 59
43 43 43 43 42 42 43 42 45 46 45 46 47 44 46 48 48 48 49 50 49 50 51 52 52 53 52 53 51 50 52 50 50 51 51 51 53 53 57 59 59 58 58
47 48 46 44 44 43 43 45 45 46 49 50 50 49 49 49 48 47 49 50 50 50 51 52 51 51 52 52 53 52 52 51 51 51 50 51 51 51 52 51 51 56 58
51 52 52 52 51 50 49 49 49 50 50 49 48 47 46 46 47 48 48 48 49 48 49 49 49 49 50 50 50 50 51 51 50 50 50 51 50 50 50 50 50 52 51
50 51 51 52 51 51 50 49 49 49 49 47 47 45 47 48 48 47 47 47 48 48 48 47 48 48 49 49 46 48 49 49 49 50 50 49 47 46 48 49 50 51 49
50 51 51 50 50 49 49 48 48 48 48 48 46 47 47 46 46 45 44 45 44 45 46 46 45 44 47 45 45 45 46 48 47 47 48 49 47 49 47 48 48 48 47
52 51 50 50 50 49 48 47 47 48 47 46 46 45 45 45 44 45 45 45 44 45 44 45 45 45 46 44 44 44 46 46 45 44 45 46 49 47 49 48 47 47 48
52 52 52 50 50 49 48 47 46 46 45 45 44 44 44 43 44 43 43 43 43 42 42 42 43 43 44 43 43 43 45 45 44 44 45 45 46 47 47 47 46 46 47
54 54 53 51 49 48 47 46 45 44 43 43 43 43 42 41 41 41 40 41 40 40 40 41 41 40 42 42 41 42 43 43 43 45 46 45 45 45 44 43 42 43 44
52 50 49 48 48 46 46 44 43 43 42 41 41 41 41 40 39 39 38 39 39 38 39 39 40 40 40 41 41 42 43 42 43 45 45 44 44 42 42 41 41 39 41
48 48 47 47 46 45 44 43 42 41 40 40 40 40 40 39 39 39 38 38 38 38 38 39 40 42 43 43 41 41 42 42 41 42 42 44 42 41 41 41 39 38 42
45 46 45 43 43 42 42 41 39 40 39 38 38 38 39 38 39 38 38 39 38 38 38 39 39 42 43 41 41 40 40 41 40 40 42 42 41 41 41 41 41 41 41
45 44 43 41 41 40 39 38 39 38 37 37 37 38 38 38 39 38 38 38 38 37 36 36 37 38 41 42 41 41 41 40 40 42 41 41 41 41 41 41 41 40 39
41 41 41 40 38 37 37 37 36 36 35 35 36 37 37 37 38 38 37 36 36 35 34 35 34 36 37 39 41 41 42 41 41 41 41 40 40 40 40 40 41 40 39
40 40 39 38 37 36 35 35 35 34 34 34 35 35 35 36 35 35 35 35 36 36 34 34 35 33 33 37 39 39 39 40 40 39 40 38 38 37 37 38 38 39 38
39 38 37 37 36 35 34 34 34 34 33 33 35 34 34 35 34 34 35 37 36 37 36 36 36 36 37 38 38 38 38 39 39 37 35 34 36 35 35 35 35 36 36

GFSMW_sfc_temp_111.txt.gz
Temp
65 64 65 66 66 68 67 67 67 69 70 70 69 70 64 64 67 75 77 75 75 75 73 70 71 71 71 71 72 70 67 66 68 65 64 67 70 71 71 72 75 76 78
60 60 62 63 62 63 66 66 67 68 70 69 70 69 65 64 65 66 69 74 74 73 72 71 69 72 69 69 69 67 66 66 65 62 62 59 63 65 70 71 72 72 74
52 56 56 55 57 57 60 63 66 68 69 70 68 67 66 64 63 66 69 70 72 72 72 72 70 68 69 67 67 66 64 62 67 66 65 59 59 67 73 70 72 72 71
54 54 52 51 53 53 57 60 65 68 69 69 66 65 61 62 66 67 68 69 70 70 69 71 71 69 68 66 67 68 67 66 64 66 68 69 66 62 62 72 72 73 73
50 49 49 48 50 51 52 55 62 65 67 67 67 64 62 62 62 64 64 66 67 68 67 67 68 68 67 67 67 66 67 66 65 65 65 65 65 63 58 58 65 68 71
48 49 51 50 48 50 51 53 54 55 60 62 59 56 56 54 54 56 59 58 58 57 58 60 61 65 65 64 65 66 66 66 65 65 65 63 59 58 58 56 60 62 68
46 46 46 46 45 46 49 51 51 51 54 54 53 53 53 54 52 53 54 55 55 54 54 56 57 58 58 58 59 61 63 64 62 63 62 63 62 63 62 59 59 59 65
46 45 44 45 44 45 47 50 50 50 51 51 50 50 51 50 50 52 53 52 52 52 53 54 55 55 56 55 56 57 57 57 60 62 63 63 62 62 62 60 57 55 58
45 45 44 44 45 45 45 49 51 50 52 52 51 50 51 50 49 51 51 49 50 52 51 52 52 53 53 53 53 53 53 53 55 55 54 57 61 62 62 61 60 57 53
44 44 44 44 44 46 47 45 46 49 49 50 52 51 51 51 51 50 48 48 49 50 50 51 51 51 52 52 52 52 52 52 52 52 53 54 54 55 57 60 61 60 57
43 44 44 44 44 44 44 45 45 44 48 48 47 48 48 47 48 48 49 49 49 49 49 50 50 51 50 51 51 50 51 50 50 51 50 51 53 52 53 53 56 58 58
45 45 44 44 44 43 43 43 45 44 46 46 47 47 48 49 49 49 49 51 51 53 52 52 52 51 52 51 50 49 51 50 49 49 50 50 51 50 51 50 50 51 51
48 49 48 47 47 47 46 47 48 49 50 52 52 50 50 49 49 49 48 49 49 50 51 51 50 50 51 51 51 51 51 51 51 51 50 50 51 49 47 48 49 49 51
54 55 56 56 55 53 53 52 51 52 51 51 50 49 49 49 48 48 48 48 49 49 49 49 49 49 50 51 48 48 49 49 50 50 50 50 48 46 46 47 47 49 47
54 55 54 56 55 54 53 53 52 51 51 50 49 48 48 49 48 47 47 47 47 47 47 48 48 48 48 49 45 45 46 47 47 48 49 49 47 46 47 46 45 45 44
55 55 56 55 54 54 53 51 51 50 51 50 49 49 48 48 47 47 47 47 46 46 46 46 46 45 47 47 45 45 44 45 45 45 45 46 46 48 48 49 48 47 44
56 56 55 55 55 54 53 51 50 50 49 48 48 47 47 46 46 46 46 45 45 45 44 44 44 43 45 46 45 44 43 43 44 43 43 44 47 45 46 47 47 47 48
57 57 57 56 55 54 51 50 49 49 47 47 47 46 45 44 44 44 43 43 43 42 42 42 42 42 43 44 43 43 42 42 43 43 43 43 44 44 43 42 41 42 44
60 59 59 57 55 52 51 49 47 47 46 45 45 44 44 42 42 41 41 41 40 40 40 41 41 40 41 43 42 41 41 41 42 45 46 45 44 45 43 40 38 39 40
58 57 56 54 53 51 50 47 47 45 44 43 42 43 43 41 40 40 39 40 40 39 40 39 40 42 41 44 43 42 41 40 42 44 45 45 44 43 43 40 38 36 37
54 54 52 50 50 49 47 45 45 43 42 41 41 41 41 40 40 39 39 38 38 39 38 39 41 42 43 43 43 42 41 40 39 40 41 43 44 43 42 42 39 38 41
50 50 49 48 46 45 44 43 42 42 41 40 39 39 40 40 40 39 39 39 39 39 39 39 39 41 43 43 43 43 42 42 39 38 41 42 42 42 42 41 42 42 41
48 49 48 45 45 44 43 41 42 40 39 39 38 39 39 39 40 39 38 37 38 37 36 36 36 37 39 40 41 42 42 42 40 40 41 41 42 42 41 41 41 41 37
47 47 46 44 42 42 41 41 40 39 37 37 37 38 37 38 38 38 38 36 35 35 34 34 34 34 35 36 38 39 38 40 40 40 39 40 40 41 41 40 39 38 36
46 45 44 43 43 41 40 40 39 38 36 37 37 37 37 37 37 37 37 36 37 36 34 33 33 32 32 35 38 37 36 37 38 38 37 35 35 34 35 36 36 36 35
44 42 42 41 40 39 38 38 38 37 35 34 35 36 35 35 35 35 35 39 38 38 37 37 36 36 37 37 37 37 38 38 39 35 32 32 33 33 33 33 33 33 34

GFSMW_sfc_temp_114.txt.gz
Temp
56 57 59 57 56 57 57 58 59 61 59 57 56 56 56 60 62 63 68 68 68 68 64 64 66 65 64 65 66 65 63 63 64 62 62 64 66 65 64 67 71 73 75
51 54 54 53 52 53 53 54 57 58 60 58 58 58 58 59 60 63 65 66 68 69 67 66 64 64 64 64 65 65 62 63 64 60 60 57 61 64 66 67 69 69 68
47 50 51 50 50 50 50 53 55 56 59 60 58 57 58 58 59 61 63 65 67 66 67 65 64 63 63 62 62 63 63 61 62 62 61 56 56 60 62 64 67 68 68
48 51 49 49 49 49 52 54 55 57 60 59 57 55 55 55 57 60 62 64 67 68 65 65 65 63 62 61 61 63 63 61 60 62 64 64 61 57 55 60 62 66 66
46 48 48 49 49 49 49 52 53 55 55 57 56 54 52 53 56 56 58 59 58 60 60 61 63 63 61 60 61 62 61 62 60 60 59 60 60 59 56 56 58 60 65
46 48 48 49 47 48 48 51 51 52 53 53 53 52 53 53 53 53 53 54 54 55 56 58 58 58 58 58 59 60 61 60 61 60 59 59 58 57 57 56 58 58 65
46 46 45 45 45 45 46 50 49 49 50 50 50 50 48 49 49 50 48 49 49 50 51 53 54 54 55 55 56 57 57 55 57 59 60 60 61 62 61 59 58 58 62
46 45 45 44 44 45 45 45 49 49 50 48 48 48 47 47 47 46 46 46 47 47 50 51 52 52 53 54 54 54 53 53 54 54 54 55 58 60 61 59 58 55 57
45 45 45 44 44 45 44 44 45 47 47 49 49 48 48 47 46 46 46 46 47 50 50 50 51 51 52 52 52 51 51 52 51 52 52 52 54 54 55 54 55 56 53
44 45 44 44 45 45 45 44 45 44 47 47 48 48 47 47 47 48 46 46 45 46 47 48 50 50 50 51 50 50 51 50 50 51 50 51 51 52 53 53 52 52 51
44 44 44 45 44 44 44 44 44 45 45 46 46 47 46 47 47 46 47 47 48 48 48 49 49 49 49 50 49 49 49 49 49 49 49 50 51 50 50 49 50 50 50
45 45 45 45 44 44 44 43 44 45 46 46 47 46 47 48 47 47 46 48 47 48 47 46 46 48 48 48 48 47 48 48 47 47 47 47 50 48 47 47 47 48 49
44 43 43 41 41 42 41 43 44 45 47 48 47 47 46 43 42 44 46 46 46 46 46 45 45 45 45 46 46 46 45 45 47 47 47 47 46 44 44 45 44 46 47
46 46 46 45 45 46 45 44 44 44 44 44 43 42 42 42 41 42 42 42 42 42 42 43 45 45 46 46 44 44 43 44 45 45 45 45 45 44 43 44 43 45 43
47 48 47 46 46 45 45 45 44 44 44 43 42 40 41 41 40 40 41 43 43 43 43 43 43 43 44 47 43 42 41 41 42 43 45 44 44 45 46 45 43 43 41
49 50 49 48 47 46 45 46 44 43 44 42 41 42 41 40 39 39 38 39 38 38 39 38 38 37 43 45 46 44 40 40 40 40 41 42 43 44 46 47 45 44 40
50 50 49 48 47 46 47 44 43 44 42 41 41 41 40 39 38 38 37 36 35 35 35 35 36 36 36 44 45 44 39 38 37 38 38 40 44 41 40 42 42 42 44
51 50 49 48 47 46 45 43 43 42 41 40 40 40 39 37 37 36 35 34 34 33 33 33 34 34 38 43 43 43 37 36 36 37 37 37 37 39 41 37 36 37 38
50 50 49 47 45 44 44 44 42 42 41 41 39 39 38 36 35 33 32 32 32 31 32 34 33 33 34 42 43 41 35 35 35 39 39 39 38 43 44 37 34 35 36
49 48 47 46 44 42 42 41 40 39 38 38 38 39 38 37 35 34 33 33 34 34 35 35 35 37 36 41 44 42 38 35 36 37 38 42 42 45 44 38 34 32 33
46 46 44 43 42 41 40 38 38 36 36 37 36 36 35 34 34 34 34 34 33 34 33 33 34 35 37 36 43 43 38 36 35 35 35 37 42 43 43 43 38 35 39
44 44 42 40 39 39 38 36 35 35 36 35 34 33 33 35 36 31 31 32 32 31 32 32 32 35 35 40 40 41 42 41 37 35 36 35 41 42 42 41 42 42 41
42 43 40 38 37 37 36 35 34 34 34 32 31 31 32 33 33 30 29 29 30 29 30 30 29 31 34 33 38 39 40 40 36 37 38 40 40 41 40 40 41 42 31
41 41 39 37 35 35 35 34 33 33 32 29 29 29 29 31 31 31 32 29 28 27 29 29 29 28 30 31 32 34 34 37 36 37 34 37 38 39 39 38 36 33 31
40 39 37 36 36 35 34 33 33 32 29 29 29 29 30 29 29 31 30 31 30 30 29 30 30 30 28 31 36 36 35 35 36 37 34 30 30 30 31 32 31 31 29
37 36 36 35 34 34 33 33 33 31 29 28 29 29 29 28 28 28 29 37 38 39 38 38 36 35 37 38 37 37 37 38 38 34 30 30 29 28 29 29 28 28 30

GFSMW_sfc_temp_117.txt.gz
Temp
51 53 53 52 51 51 51 52 52 54 55 55 55 53 53 52 55 60 63 63 62 62 63 62 62 62 61 61 62 62 61 61 63 62 61 62 64 64 66 66 67 68 70
46 50 50 50 48 48 49 50 52 54 55 56 57 54 53 54 57 59 60 63 64 64 64 63 62 62 61 60 63 63 62 62 63 60 60 57 60 62 66 67 68 67 68
43 46 48 47 46 46 47 50 52 53 54 55 55 54 54 54 55 56 58 61 64 65 65 65 65 62 61 61 61 62 62 59 60 62 60 55 54 58 62 64 65 66 67
43 47 47 46 46 46 48 49 51 54 54 54 52 51 50 50 52 53 54 57 58 58 58 63 64 62 62 59 60 60 59 58 57 59 61 61 60 55 54 59 61 65 65
43 44 44 46 48 46 45 48 49 52 52 52 52 51 52 51 52 52 54 55 55 55 55 56 60 62 61 60 60 60 60 59 60 59 57 58 59 60 57 56 58 60 62
43 45 46 46 47 46 46 45 47 49 50 51 50 49 49 49 49 49 49 51 50 50 51 53 54 54 56 56 57 58 57 57 59 59 58 58 57 56 56 55 58 59 62
41 45 44 44 45 46 45 46 47 47 49 49 48 47 47 46 45 45 45 46 46 45 46 48 49 50 51 53 55 55 54 54 54 54 54 56 57 58 59 58 58 57 62
41 42 44 43 44 45 45 45 45 46 47 46 46 47 47 45 44 44 45 44 44 45 46 46 47 49 50 52 53 52 52 53 52 51 52 53 53 53 53 53 52 54 57
45 46 42 42 44 41 45 44 45 46 47 46 47 46 46 46 44 45 46 45 45 48 47 48 49 49 50 50 49 50 50 51 50 50 50 50 51 52 52 53 51 49 48
42 44 42 43 43 45 44 45 45 45 46 47 47 47 47 47 46 47 45 46 47 48 48 48 48 49 49 49 48 46 46 46 47 49 49 50 50 50 50 48 49 50 48
42 42 44 44 43 45 44 44 45 45 46 46 46 47 46 46 46 46 46 43 44 46 46 46 46 46 47 46 46 46 47 47 47 46 47 47 48 48 46 47 48 47 47
43 43 42 42 42 42 44 42 41 42 44 45 43 43 43 45 45 45 45 46 46 47 47 46 44 44 43 42 41 41 43 42 42 45 45 45 47 45 44 44 45 45 46
42 42 42 41 40 40 40 40 40 40 42 42 40 39 39 38 38 38 38 39 39 40 41 42 41 41 41 41 41 40 41 40 41 43 43 43 43 42 42 42 42 43 45
43 43 42 42 41 41 41 41 41 42 42 42 40 38 37 37 37 37 38 38 38 38 38 38 39 39 40 42 41 40 39 39 40 42 43 43 41 41 40 43 42 43 41
42 44 44 43 42 42 43 43 42 41 42 40 39 38 38 38 37 37 36 37 37 36 37 37 37 37 40 43 40 40 40 40 40 41 41 41 42 44 45 43 39 39 37
45 46 47 45 43 43 42 43 42 42 43 41 40 40 39 38 37 36 35 35 34 34 34 34 34 34 40 43 44 42 37 37 37 37 39 40 42 43 45 44 43 41 37
47 47 47 46 44 43 44 41 41 41 40 40 40 39 39 38 37 37 36 34 32 32 31 31 32 32 33 43 44 44 36 35 35 35 36 37 42 40 39 41 41 41 42
48 47 46 45 44 43 42 41 41 40 39 39 39 38 37 35 35 34 32 32 33 33 33 32 32 32 35 42 43 44 35 34 34 34 35 34 35 37 39 37 35 35 36
47 47 46 44 42 41 41 40 39 39 38 38 37 37 36 34 33 31 30 31 30 30 31 33 34 34 35 41 43 42 35 34 33 36 36 37 37 41 44 37 33 33 34
46 45 43 42 41 39 40 39 37 37 36 36 36 35 34 33 31 30 29 30 30 31 31 32 32 36 33 40 43 42 37 35 36 37 38 40 40 42 43 38 35 31 32
44 43 41 41 40 39 39 37 36 34 36 35 35 34 33 31 31 30 29 29 28 29 28 30 30 31 34 33 41 41 37 35 35 35 35 36 40 41 42 42 38 34 36
43 42 39 38 37 38 37 35 34 34 34 33 33 31 30 32 34 28 28 28 27 27 26 27 28 30 31 37 37 39 39 39 35 33 34 34 39 40 41 40 41 41 41
41 40 38 36 35 35 36 34 33 33 32 31 30 29 30 30 30 27 27 27 27 26 26 28 27 27 30 29 36 37 38 38 36 36 37 39 39 39 38 39 40 40 31
39 39 36 34 33 33 34 33 32 32 30 28 27 28 27 28 28 29 30 27 26 25 28 28 27 26 28 28 29 31 32 35 34 34 32 35 38 38 37 35 34 32 30
38 37 36 34 34 33 33 32 32 31 28 27 28 28 28 26 26 28 27 29 28 28 28 29 31 29 29 32 37 36 34 35 36 35 32 29 28 28 29 30 31 31 28
36 35 34 34 33 32 32 31 31 29 28 28 28 28 28 26 27 26 26 34 36 37 37 37 36 35 37 38 38 37 37 37 37 33 28 27 27 29 28 27 28 28 29